<?xml version="1.0" encoding="UTF-8" standalone="no" ?>
<gpx xmlns="http://www.topografix.com/GPX/1/1" xmlns:xsi="http://www.w3.org/2001/XMLSchema-instance" xsi:schemaLocation="http://www.topografix.com/GPX/1/1 http://www.topografix.com/GPX/1/1/gpx.xsd" version="1.1" creator="VisuGPX - https://www.visugpx.com">
  <metadata>
    <name>Tour du Viso</name>
    <desc><![CDATA[5 jours autour du Viso ]]></desc>
  </metadata>
  <trk>
    <name><![CDATA[16 juil. 2022]]></name>
    <desc><![CDATA[comment ...]]></desc>
    <extensions>
      <line xmlns="http://www.topografix.com/GPX/gpx_style/0/2">
        <color>FFFF00</color>
        <opacity>1</opacity>
        <width>2</width>
      </line>
    </extensions>
    <trkseg>
      <trkpt lat="44.72808" lon="7.0454">
        <ele>2370</ele>
        <time>2022-07-16T06:12:58Z</time>
      </trkpt>
      <trkpt lat="44.72807" lon="7.04539">
        <ele>2370</ele>
        <time>2022-07-16T06:12:59Z</time>
      </trkpt>
      <trkpt lat="44.72805" lon="7.04536">
        <ele>2371</ele>
        <time>2022-07-16T06:13:25Z</time>
      </trkpt>
      <trkpt lat="44.72801" lon="7.04538">
        <ele>2377</ele>
        <time>2022-07-16T06:13:29Z</time>
      </trkpt>
      <trkpt lat="44.72798" lon="7.04539">
        <ele>2379</ele>
        <time>2022-07-16T06:13:34Z</time>
      </trkpt>
      <trkpt lat="44.72794" lon="7.04541">
        <ele>2383</ele>
        <time>2022-07-16T06:13:40Z</time>
      </trkpt>
      <trkpt lat="44.72792" lon="7.04544">
        <ele>2383</ele>
        <time>2022-07-16T06:13:44Z</time>
      </trkpt>
      <trkpt lat="44.72786" lon="7.04551">
        <ele>2381</ele>
        <time>2022-07-16T06:13:56Z</time>
      </trkpt>
      <trkpt lat="44.72779" lon="7.04561">
        <ele>2379</ele>
        <time>2022-07-16T06:14:14Z</time>
      </trkpt>
      <trkpt lat="44.72772" lon="7.04565">
        <ele>2380</ele>
        <time>2022-07-16T06:14:25Z</time>
      </trkpt>
      <trkpt lat="44.72768" lon="7.04562">
        <ele>2380</ele>
        <time>2022-07-16T06:14:29Z</time>
      </trkpt>
      <trkpt lat="44.72765" lon="7.04559">
        <ele>2381</ele>
        <time>2022-07-16T06:14:35Z</time>
      </trkpt>
      <trkpt lat="44.72762" lon="7.04557">
        <ele>2381</ele>
        <time>2022-07-16T06:14:40Z</time>
      </trkpt>
      <trkpt lat="44.72762" lon="7.04552">
        <ele>2382</ele>
        <time>2022-07-16T06:14:45Z</time>
      </trkpt>
      <trkpt lat="44.72759" lon="7.04549">
        <ele>2384</ele>
        <time>2022-07-16T06:14:51Z</time>
      </trkpt>
      <trkpt lat="44.72756" lon="7.04548">
        <ele>2386</ele>
        <time>2022-07-16T06:14:56Z</time>
      </trkpt>
      <trkpt lat="44.72752" lon="7.04548">
        <ele>2387</ele>
        <time>2022-07-16T06:15:03Z</time>
      </trkpt>
      <trkpt lat="44.72749" lon="7.04547">
        <ele>2389</ele>
        <time>2022-07-16T06:15:16Z</time>
      </trkpt>
      <trkpt lat="44.72749" lon="7.04542">
        <ele>2389</ele>
        <time>2022-07-16T06:15:21Z</time>
      </trkpt>
      <trkpt lat="44.72746" lon="7.04537">
        <ele>2387</ele>
        <time>2022-07-16T06:15:28Z</time>
      </trkpt>
      <trkpt lat="44.72745" lon="7.04533">
        <ele>2386</ele>
        <time>2022-07-16T06:15:35Z</time>
      </trkpt>
      <trkpt lat="44.72742" lon="7.04528">
        <ele>2384</ele>
        <time>2022-07-16T06:15:42Z</time>
      </trkpt>
      <trkpt lat="44.72739" lon="7.04525">
        <ele>2383</ele>
        <time>2022-07-16T06:15:49Z</time>
      </trkpt>
      <trkpt lat="44.72738" lon="7.0452">
        <ele>2381</ele>
        <time>2022-07-16T06:15:54Z</time>
      </trkpt>
      <trkpt lat="44.72739" lon="7.04515">
        <ele>2380</ele>
        <time>2022-07-16T06:15:59Z</time>
      </trkpt>
      <trkpt lat="44.72741" lon="7.04499">
        <ele>2376</ele>
        <time>2022-07-16T06:16:14Z</time>
      </trkpt>
      <trkpt lat="44.72742" lon="7.04494">
        <ele>2375</ele>
        <time>2022-07-16T06:16:19Z</time>
      </trkpt>
      <trkpt lat="44.72746" lon="7.04483">
        <ele>2372</ele>
        <time>2022-07-16T06:16:29Z</time>
      </trkpt>
      <trkpt lat="44.72748" lon="7.04467">
        <ele>2365</ele>
        <time>2022-07-16T06:16:45Z</time>
      </trkpt>
      <trkpt lat="44.72745" lon="7.04465">
        <ele>2362</ele>
        <time>2022-07-16T06:17:05Z</time>
      </trkpt>
      <trkpt lat="44.72744" lon="7.04459">
        <ele>2358</ele>
        <time>2022-07-16T06:17:11Z</time>
      </trkpt>
      <trkpt lat="44.72744" lon="7.04454">
        <ele>2358</ele>
        <time>2022-07-16T06:17:16Z</time>
      </trkpt>
      <trkpt lat="44.72744" lon="7.04449">
        <ele>2357</ele>
        <time>2022-07-16T06:17:21Z</time>
      </trkpt>
      <trkpt lat="44.72741" lon="7.04446">
        <ele>2357</ele>
        <time>2022-07-16T06:17:26Z</time>
      </trkpt>
      <trkpt lat="44.72738" lon="7.04445">
        <ele>2358</ele>
        <time>2022-07-16T06:17:32Z</time>
      </trkpt>
      <trkpt lat="44.72735" lon="7.04441">
        <ele>2358</ele>
        <time>2022-07-16T06:17:39Z</time>
      </trkpt>
      <trkpt lat="44.72733" lon="7.04438">
        <ele>2359</ele>
        <time>2022-07-16T06:17:44Z</time>
      </trkpt>
      <trkpt lat="44.72729" lon="7.04439">
        <ele>2359</ele>
        <time>2022-07-16T06:17:49Z</time>
      </trkpt>
      <trkpt lat="44.72725" lon="7.04441">
        <ele>2354</ele>
        <time>2022-07-16T06:17:58Z</time>
      </trkpt>
      <trkpt lat="44.72721" lon="7.04441">
        <ele>2354</ele>
        <time>2022-07-16T06:18:03Z</time>
      </trkpt>
      <trkpt lat="44.72715" lon="7.04432">
        <ele>2354</ele>
        <time>2022-07-16T06:19:00Z</time>
      </trkpt>
      <trkpt lat="44.72699" lon="7.04434">
        <ele>2357</ele>
        <time>2022-07-16T06:19:15Z</time>
      </trkpt>
      <trkpt lat="44.72681" lon="7.04427">
        <ele>2358</ele>
        <time>2022-07-16T06:19:35Z</time>
      </trkpt>
      <trkpt lat="44.72672" lon="7.04418">
        <ele>2359</ele>
        <time>2022-07-16T06:20:11Z</time>
      </trkpt>
      <trkpt lat="44.72663" lon="7.04417">
        <ele>2358</ele>
        <time>2022-07-16T06:20:18Z</time>
      </trkpt>
      <trkpt lat="44.72656" lon="7.04422">
        <ele>2360</ele>
        <time>2022-07-16T06:20:37Z</time>
      </trkpt>
      <trkpt lat="44.72652" lon="7.04424">
        <ele>2361</ele>
        <time>2022-07-16T06:20:55Z</time>
      </trkpt>
      <trkpt lat="44.72648" lon="7.04425">
        <ele>2363</ele>
        <time>2022-07-16T06:20:58Z</time>
      </trkpt>
      <trkpt lat="44.72644" lon="7.04426">
        <ele>2364</ele>
        <time>2022-07-16T06:21:01Z</time>
      </trkpt>
      <trkpt lat="44.72641" lon="7.0443">
        <ele>2364</ele>
        <time>2022-07-16T06:21:08Z</time>
      </trkpt>
      <trkpt lat="44.72638" lon="7.04432">
        <ele>2364</ele>
        <time>2022-07-16T06:21:12Z</time>
      </trkpt>
      <trkpt lat="44.72633" lon="7.04431">
        <ele>2364</ele>
        <time>2022-07-16T06:21:17Z</time>
      </trkpt>
      <trkpt lat="44.72631" lon="7.04429">
        <ele>2364</ele>
        <time>2022-07-16T06:21:21Z</time>
      </trkpt>
      <trkpt lat="44.72628" lon="7.04425">
        <ele>2365</ele>
        <time>2022-07-16T06:21:26Z</time>
      </trkpt>
      <trkpt lat="44.72624" lon="7.04423">
        <ele>2366</ele>
        <time>2022-07-16T06:21:30Z</time>
      </trkpt>
      <trkpt lat="44.72614" lon="7.04427">
        <ele>2371</ele>
        <time>2022-07-16T06:21:45Z</time>
      </trkpt>
      <trkpt lat="44.7261" lon="7.04428">
        <ele>2371</ele>
        <time>2022-07-16T06:21:50Z</time>
      </trkpt>
      <trkpt lat="44.72606" lon="7.04426">
        <ele>2373</ele>
        <time>2022-07-16T06:21:55Z</time>
      </trkpt>
      <trkpt lat="44.72603" lon="7.04422">
        <ele>2374</ele>
        <time>2022-07-16T06:22:01Z</time>
      </trkpt>
      <trkpt lat="44.72601" lon="7.04418">
        <ele>2376</ele>
        <time>2022-07-16T06:22:07Z</time>
      </trkpt>
      <trkpt lat="44.72599" lon="7.04413">
        <ele>2377</ele>
        <time>2022-07-16T06:22:13Z</time>
      </trkpt>
      <trkpt lat="44.72593" lon="7.04408">
        <ele>2378</ele>
        <time>2022-07-16T06:22:24Z</time>
      </trkpt>
      <trkpt lat="44.72587" lon="7.04403">
        <ele>2379</ele>
        <time>2022-07-16T06:22:34Z</time>
      </trkpt>
      <trkpt lat="44.72571" lon="7.04408">
        <ele>2383</ele>
        <time>2022-07-16T06:22:56Z</time>
      </trkpt>
      <trkpt lat="44.72568" lon="7.04411">
        <ele>2383</ele>
        <time>2022-07-16T06:23:01Z</time>
      </trkpt>
      <trkpt lat="44.72561" lon="7.04414">
        <ele>2385</ele>
        <time>2022-07-16T06:23:11Z</time>
      </trkpt>
      <trkpt lat="44.72558" lon="7.04416">
        <ele>2386</ele>
        <time>2022-07-16T06:23:16Z</time>
      </trkpt>
      <trkpt lat="44.72554" lon="7.04419">
        <ele>2386</ele>
        <time>2022-07-16T06:23:22Z</time>
      </trkpt>
      <trkpt lat="44.72551" lon="7.04418">
        <ele>2385</ele>
        <time>2022-07-16T06:23:26Z</time>
      </trkpt>
      <trkpt lat="44.72548" lon="7.04421">
        <ele>2384</ele>
        <time>2022-07-16T06:23:32Z</time>
      </trkpt>
      <trkpt lat="44.72545" lon="7.04424">
        <ele>2384</ele>
        <time>2022-07-16T06:23:38Z</time>
      </trkpt>
      <trkpt lat="44.72539" lon="7.0443">
        <ele>2386</ele>
        <time>2022-07-16T06:23:52Z</time>
      </trkpt>
      <trkpt lat="44.72525" lon="7.04447">
        <ele>2391</ele>
        <time>2022-07-16T06:24:17Z</time>
      </trkpt>
      <trkpt lat="44.72522" lon="7.04449">
        <ele>2392</ele>
        <time>2022-07-16T06:24:21Z</time>
      </trkpt>
      <trkpt lat="44.72519" lon="7.04453">
        <ele>2393</ele>
        <time>2022-07-16T06:24:27Z</time>
      </trkpt>
      <trkpt lat="44.72513" lon="7.0446">
        <ele>2395</ele>
        <time>2022-07-16T06:24:40Z</time>
      </trkpt>
      <trkpt lat="44.72512" lon="7.04465">
        <ele>2396</ele>
        <time>2022-07-16T06:24:46Z</time>
      </trkpt>
      <trkpt lat="44.72504" lon="7.04475">
        <ele>2399</ele>
        <time>2022-07-16T06:25:05Z</time>
      </trkpt>
      <trkpt lat="44.72501" lon="7.04479">
        <ele>2401</ele>
        <time>2022-07-16T06:25:11Z</time>
      </trkpt>
      <trkpt lat="44.72498" lon="7.04482">
        <ele>2402</ele>
        <time>2022-07-16T06:25:18Z</time>
      </trkpt>
      <trkpt lat="44.72496" lon="7.04486">
        <ele>2404</ele>
        <time>2022-07-16T06:25:25Z</time>
      </trkpt>
      <trkpt lat="44.72493" lon="7.0449">
        <ele>2403</ele>
        <time>2022-07-16T06:25:33Z</time>
      </trkpt>
      <trkpt lat="44.72491" lon="7.04494">
        <ele>2405</ele>
        <time>2022-07-16T06:25:40Z</time>
      </trkpt>
      <trkpt lat="44.72491" lon="7.04499">
        <ele>2404</ele>
        <time>2022-07-16T06:25:48Z</time>
      </trkpt>
      <trkpt lat="44.72491" lon="7.04504">
        <ele>2405</ele>
        <time>2022-07-16T06:25:55Z</time>
      </trkpt>
      <trkpt lat="44.7249" lon="7.04509">
        <ele>2405</ele>
        <time>2022-07-16T06:26:02Z</time>
      </trkpt>
      <trkpt lat="44.72489" lon="7.04514">
        <ele>2408</ele>
        <time>2022-07-16T06:26:10Z</time>
      </trkpt>
      <trkpt lat="44.72488" lon="7.04518">
        <ele>2409</ele>
        <time>2022-07-16T06:26:17Z</time>
      </trkpt>
      <trkpt lat="44.72489" lon="7.04524">
        <ele>2411</ele>
        <time>2022-07-16T06:26:24Z</time>
      </trkpt>
      <trkpt lat="44.72487" lon="7.04528">
        <ele>2412</ele>
        <time>2022-07-16T06:26:31Z</time>
      </trkpt>
      <trkpt lat="44.72477" lon="7.0455">
        <ele>2419</ele>
        <time>2022-07-16T06:27:01Z</time>
      </trkpt>
      <trkpt lat="44.72474" lon="7.04554">
        <ele>2419</ele>
        <time>2022-07-16T06:27:07Z</time>
      </trkpt>
      <trkpt lat="44.72472" lon="7.04559">
        <ele>2420</ele>
        <time>2022-07-16T06:27:12Z</time>
      </trkpt>
      <trkpt lat="44.72473" lon="7.04564">
        <ele>2419</ele>
        <time>2022-07-16T06:27:18Z</time>
      </trkpt>
      <trkpt lat="44.7247" lon="7.04568">
        <ele>2420</ele>
        <time>2022-07-16T06:27:23Z</time>
      </trkpt>
      <trkpt lat="44.72466" lon="7.0457">
        <ele>2421</ele>
        <time>2022-07-16T06:27:29Z</time>
      </trkpt>
      <trkpt lat="44.72463" lon="7.0457">
        <ele>2422</ele>
        <time>2022-07-16T06:27:35Z</time>
      </trkpt>
      <trkpt lat="44.7246" lon="7.04574">
        <ele>2422</ele>
        <time>2022-07-16T06:27:42Z</time>
      </trkpt>
      <trkpt lat="44.72458" lon="7.04577">
        <ele>2423</ele>
        <time>2022-07-16T06:27:48Z</time>
      </trkpt>
      <trkpt lat="44.72454" lon="7.04579">
        <ele>2423</ele>
        <time>2022-07-16T06:27:53Z</time>
      </trkpt>
      <trkpt lat="44.72452" lon="7.04583">
        <ele>2424</ele>
        <time>2022-07-16T06:28:00Z</time>
      </trkpt>
      <trkpt lat="44.72448" lon="7.04584">
        <ele>2424</ele>
        <time>2022-07-16T06:28:08Z</time>
      </trkpt>
      <trkpt lat="44.72445" lon="7.0458">
        <ele>2424</ele>
        <time>2022-07-16T06:28:12Z</time>
      </trkpt>
      <trkpt lat="44.72442" lon="7.04579">
        <ele>2422</ele>
        <time>2022-07-16T06:28:17Z</time>
      </trkpt>
      <trkpt lat="44.72441" lon="7.04585">
        <ele>2422</ele>
        <time>2022-07-16T06:28:21Z</time>
      </trkpt>
      <trkpt lat="44.72443" lon="7.0459">
        <ele>2424</ele>
        <time>2022-07-16T06:28:26Z</time>
      </trkpt>
      <trkpt lat="44.7244" lon="7.04592">
        <ele>2425</ele>
        <time>2022-07-16T06:28:36Z</time>
      </trkpt>
      <trkpt lat="44.72441" lon="7.04597">
        <ele>2426</ele>
        <time>2022-07-16T06:28:41Z</time>
      </trkpt>
      <trkpt lat="44.72437" lon="7.04599">
        <ele>2428</ele>
        <time>2022-07-16T06:28:53Z</time>
      </trkpt>
      <trkpt lat="44.72437" lon="7.04604">
        <ele>2428</ele>
        <time>2022-07-16T06:29:04Z</time>
      </trkpt>
      <trkpt lat="44.72442" lon="7.04612">
        <ele>2437</ele>
        <time>2022-07-16T06:29:38Z</time>
      </trkpt>
      <trkpt lat="44.72443" lon="7.04617">
        <ele>2441</ele>
        <time>2022-07-16T06:29:45Z</time>
      </trkpt>
      <trkpt lat="44.72441" lon="7.04621">
        <ele>2441</ele>
        <time>2022-07-16T06:30:31Z</time>
      </trkpt>
      <trkpt lat="44.72438" lon="7.04621">
        <ele>2444</ele>
        <time>2022-07-16T06:30:41Z</time>
      </trkpt>
      <trkpt lat="44.72435" lon="7.04625">
        <ele>2445</ele>
        <time>2022-07-16T06:30:50Z</time>
      </trkpt>
      <trkpt lat="44.72433" lon="7.04629">
        <ele>2447</ele>
        <time>2022-07-16T06:30:59Z</time>
      </trkpt>
      <trkpt lat="44.72431" lon="7.04633">
        <ele>2448</ele>
        <time>2022-07-16T06:31:10Z</time>
      </trkpt>
      <trkpt lat="44.72429" lon="7.04638">
        <ele>2451</ele>
        <time>2022-07-16T06:31:19Z</time>
      </trkpt>
      <trkpt lat="44.72422" lon="7.0464">
        <ele>2457</ele>
        <time>2022-07-16T06:31:42Z</time>
      </trkpt>
      <trkpt lat="44.72422" lon="7.04646">
        <ele>2458</ele>
        <time>2022-07-16T06:31:53Z</time>
      </trkpt>
      <trkpt lat="44.72411" lon="7.0465">
        <ele>2465</ele>
        <time>2022-07-16T06:32:19Z</time>
      </trkpt>
      <trkpt lat="44.72409" lon="7.04654">
        <ele>2466</ele>
        <time>2022-07-16T06:32:27Z</time>
      </trkpt>
      <trkpt lat="44.72409" lon="7.04659">
        <ele>2468</ele>
        <time>2022-07-16T06:32:34Z</time>
      </trkpt>
      <trkpt lat="44.72407" lon="7.04664">
        <ele>2469</ele>
        <time>2022-07-16T06:32:43Z</time>
      </trkpt>
      <trkpt lat="44.72406" lon="7.04669">
        <ele>2471</ele>
        <time>2022-07-16T06:32:51Z</time>
      </trkpt>
      <trkpt lat="44.72403" lon="7.0467">
        <ele>2473</ele>
        <time>2022-07-16T06:33:01Z</time>
      </trkpt>
      <trkpt lat="44.724" lon="7.04672">
        <ele>2475</ele>
        <time>2022-07-16T06:33:15Z</time>
      </trkpt>
      <trkpt lat="44.72397" lon="7.04675">
        <ele>2476</ele>
        <time>2022-07-16T06:33:24Z</time>
      </trkpt>
      <trkpt lat="44.72395" lon="7.04679">
        <ele>2479</ele>
        <time>2022-07-16T06:33:33Z</time>
      </trkpt>
      <trkpt lat="44.72393" lon="7.04676">
        <ele>2479</ele>
        <time>2022-07-16T06:33:39Z</time>
      </trkpt>
      <trkpt lat="44.72389" lon="7.04676">
        <ele>2480</ele>
        <time>2022-07-16T06:33:51Z</time>
      </trkpt>
      <trkpt lat="44.72384" lon="7.04682">
        <ele>2483</ele>
        <time>2022-07-16T06:34:07Z</time>
      </trkpt>
      <trkpt lat="44.72381" lon="7.04681">
        <ele>2483</ele>
        <time>2022-07-16T06:34:21Z</time>
      </trkpt>
      <trkpt lat="44.72378" lon="7.04684">
        <ele>2484</ele>
        <time>2022-07-16T06:34:31Z</time>
      </trkpt>
      <trkpt lat="44.72375" lon="7.04686">
        <ele>2487</ele>
        <time>2022-07-16T06:34:39Z</time>
      </trkpt>
      <trkpt lat="44.72371" lon="7.04686">
        <ele>2489</ele>
        <time>2022-07-16T06:34:56Z</time>
      </trkpt>
      <trkpt lat="44.72368" lon="7.04689">
        <ele>2493</ele>
        <time>2022-07-16T06:35:05Z</time>
      </trkpt>
      <trkpt lat="44.72361" lon="7.04691">
        <ele>2498</ele>
        <time>2022-07-16T06:35:30Z</time>
      </trkpt>
      <trkpt lat="44.72358" lon="7.04692">
        <ele>2499</ele>
        <time>2022-07-16T06:35:44Z</time>
      </trkpt>
      <trkpt lat="44.72355" lon="7.04695">
        <ele>2502</ele>
        <time>2022-07-16T06:35:53Z</time>
      </trkpt>
      <trkpt lat="44.72352" lon="7.04695">
        <ele>2504</ele>
        <time>2022-07-16T06:36:09Z</time>
      </trkpt>
      <trkpt lat="44.72349" lon="7.04699">
        <ele>2507</ele>
        <time>2022-07-16T06:36:19Z</time>
      </trkpt>
      <trkpt lat="44.72347" lon="7.04702">
        <ele>2508</ele>
        <time>2022-07-16T06:36:29Z</time>
      </trkpt>
      <trkpt lat="44.72337" lon="7.04708">
        <ele>2514</ele>
        <time>2022-07-16T06:36:58Z</time>
      </trkpt>
      <trkpt lat="44.72333" lon="7.04708">
        <ele>2515</ele>
        <time>2022-07-16T06:37:12Z</time>
      </trkpt>
      <trkpt lat="44.7233" lon="7.04711">
        <ele>2517</ele>
        <time>2022-07-16T06:37:22Z</time>
      </trkpt>
      <trkpt lat="44.72326" lon="7.04712">
        <ele>2519</ele>
        <time>2022-07-16T06:37:33Z</time>
      </trkpt>
      <trkpt lat="44.72324" lon="7.04715">
        <ele>2520</ele>
        <time>2022-07-16T06:37:50Z</time>
      </trkpt>
      <trkpt lat="44.7232" lon="7.04716">
        <ele>2521</ele>
        <time>2022-07-16T06:37:58Z</time>
      </trkpt>
      <trkpt lat="44.72317" lon="7.04717">
        <ele>2523</ele>
        <time>2022-07-16T06:38:09Z</time>
      </trkpt>
      <trkpt lat="44.72313" lon="7.04717">
        <ele>2524</ele>
        <time>2022-07-16T06:38:20Z</time>
      </trkpt>
      <trkpt lat="44.72311" lon="7.04721">
        <ele>2525</ele>
        <time>2022-07-16T06:38:31Z</time>
      </trkpt>
      <trkpt lat="44.7231" lon="7.04726">
        <ele>2527</ele>
        <time>2022-07-16T06:38:44Z</time>
      </trkpt>
      <trkpt lat="44.7231" lon="7.04731">
        <ele>2530</ele>
        <time>2022-07-16T06:38:54Z</time>
      </trkpt>
      <trkpt lat="44.72307" lon="7.04733">
        <ele>2531</ele>
        <time>2022-07-16T06:39:09Z</time>
      </trkpt>
      <trkpt lat="44.72304" lon="7.04736">
        <ele>2535</ele>
        <time>2022-07-16T06:39:17Z</time>
      </trkpt>
      <trkpt lat="44.72303" lon="7.04741">
        <ele>2536</ele>
        <time>2022-07-16T06:39:29Z</time>
      </trkpt>
      <trkpt lat="44.72299" lon="7.04741">
        <ele>2539</ele>
        <time>2022-07-16T06:39:35Z</time>
      </trkpt>
      <trkpt lat="44.72291" lon="7.0474">
        <ele>2541</ele>
        <time>2022-07-16T06:39:47Z</time>
      </trkpt>
      <trkpt lat="44.72288" lon="7.0474">
        <ele>2541</ele>
        <time>2022-07-16T06:39:52Z</time>
      </trkpt>
      <trkpt lat="44.72281" lon="7.04737">
        <ele>2542</ele>
        <time>2022-07-16T06:40:04Z</time>
      </trkpt>
      <trkpt lat="44.72263" lon="7.04744">
        <ele>2545</ele>
        <time>2022-07-16T06:40:36Z</time>
      </trkpt>
      <trkpt lat="44.72259" lon="7.04746">
        <ele>2545</ele>
        <time>2022-07-16T06:40:42Z</time>
      </trkpt>
      <trkpt lat="44.72257" lon="7.0475">
        <ele>2545</ele>
        <time>2022-07-16T06:40:47Z</time>
      </trkpt>
      <trkpt lat="44.72253" lon="7.04752">
        <ele>2545</ele>
        <time>2022-07-16T06:40:53Z</time>
      </trkpt>
      <trkpt lat="44.7225" lon="7.04754">
        <ele>2546</ele>
        <time>2022-07-16T06:40:59Z</time>
      </trkpt>
      <trkpt lat="44.72244" lon="7.04759">
        <ele>2547</ele>
        <time>2022-07-16T06:41:11Z</time>
      </trkpt>
      <trkpt lat="44.72241" lon="7.0476">
        <ele>2547</ele>
        <time>2022-07-16T06:41:17Z</time>
      </trkpt>
      <trkpt lat="44.72235" lon="7.04766">
        <ele>2546</ele>
        <time>2022-07-16T06:41:30Z</time>
      </trkpt>
      <trkpt lat="44.72231" lon="7.04764">
        <ele>2546</ele>
        <time>2022-07-16T06:41:34Z</time>
      </trkpt>
      <trkpt lat="44.72228" lon="7.04764">
        <ele>2546</ele>
        <time>2022-07-16T06:41:38Z</time>
      </trkpt>
      <trkpt lat="44.72224" lon="7.04766">
        <ele>2544</ele>
        <time>2022-07-16T06:41:43Z</time>
      </trkpt>
      <trkpt lat="44.72221" lon="7.04768">
        <ele>2544</ele>
        <time>2022-07-16T06:41:50Z</time>
      </trkpt>
      <trkpt lat="44.72218" lon="7.04772">
        <ele>2547</ele>
        <time>2022-07-16T06:42:03Z</time>
      </trkpt>
      <trkpt lat="44.72215" lon="7.04774">
        <ele>2552</ele>
        <time>2022-07-16T06:42:22Z</time>
      </trkpt>
      <trkpt lat="44.72211" lon="7.04776">
        <ele>2556</ele>
        <time>2022-07-16T06:42:32Z</time>
      </trkpt>
      <trkpt lat="44.72209" lon="7.04779">
        <ele>2558</ele>
        <time>2022-07-16T06:42:43Z</time>
      </trkpt>
      <trkpt lat="44.72205" lon="7.04781">
        <ele>2560</ele>
        <time>2022-07-16T06:42:54Z</time>
      </trkpt>
      <trkpt lat="44.72203" lon="7.04785">
        <ele>2561</ele>
        <time>2022-07-16T06:43:01Z</time>
      </trkpt>
      <trkpt lat="44.72197" lon="7.0479">
        <ele>2563</ele>
        <time>2022-07-16T06:43:14Z</time>
      </trkpt>
      <trkpt lat="44.72187" lon="7.04798">
        <ele>2566</ele>
        <time>2022-07-16T06:43:33Z</time>
      </trkpt>
      <trkpt lat="44.72185" lon="7.04802">
        <ele>2567</ele>
        <time>2022-07-16T06:43:39Z</time>
      </trkpt>
      <trkpt lat="44.72181" lon="7.04804">
        <ele>2568</ele>
        <time>2022-07-16T06:43:47Z</time>
      </trkpt>
      <trkpt lat="44.72174" lon="7.04807">
        <ele>2570</ele>
        <time>2022-07-16T06:44:04Z</time>
      </trkpt>
      <trkpt lat="44.72171" lon="7.0481">
        <ele>2571</ele>
        <time>2022-07-16T06:44:12Z</time>
      </trkpt>
      <trkpt lat="44.72168" lon="7.04813">
        <ele>2572</ele>
        <time>2022-07-16T06:44:20Z</time>
      </trkpt>
      <trkpt lat="44.72154" lon="7.04817">
        <ele>2574</ele>
        <time>2022-07-16T06:44:48Z</time>
      </trkpt>
      <trkpt lat="44.72151" lon="7.04819">
        <ele>2576</ele>
        <time>2022-07-16T06:44:54Z</time>
      </trkpt>
      <trkpt lat="44.72147" lon="7.0482">
        <ele>2577</ele>
        <time>2022-07-16T06:45:02Z</time>
      </trkpt>
      <trkpt lat="44.72145" lon="7.04823">
        <ele>2578</ele>
        <time>2022-07-16T06:45:09Z</time>
      </trkpt>
      <trkpt lat="44.72141" lon="7.04823">
        <ele>2579</ele>
        <time>2022-07-16T06:45:21Z</time>
      </trkpt>
      <trkpt lat="44.72137" lon="7.04832">
        <ele>2580</ele>
        <time>2022-07-16T06:45:41Z</time>
      </trkpt>
      <trkpt lat="44.72131" lon="7.04838">
        <ele>2581</ele>
        <time>2022-07-16T06:45:57Z</time>
      </trkpt>
      <trkpt lat="44.72126" lon="7.04844">
        <ele>2581</ele>
        <time>2022-07-16T06:46:14Z</time>
      </trkpt>
      <trkpt lat="44.72122" lon="7.04846">
        <ele>2581</ele>
        <time>2022-07-16T06:46:20Z</time>
      </trkpt>
      <trkpt lat="44.7212" lon="7.0485">
        <ele>2581</ele>
        <time>2022-07-16T06:46:28Z</time>
      </trkpt>
      <trkpt lat="44.72119" lon="7.04855">
        <ele>2580</ele>
        <time>2022-07-16T06:46:33Z</time>
      </trkpt>
      <trkpt lat="44.72116" lon="7.04859">
        <ele>2580</ele>
        <time>2022-07-16T06:46:39Z</time>
      </trkpt>
      <trkpt lat="44.72109" lon="7.04863">
        <ele>2582</ele>
        <time>2022-07-16T06:46:53Z</time>
      </trkpt>
      <trkpt lat="44.72106" lon="7.04864">
        <ele>2583</ele>
        <time>2022-07-16T06:47:00Z</time>
      </trkpt>
      <trkpt lat="44.72104" lon="7.04869">
        <ele>2583</ele>
        <time>2022-07-16T06:47:06Z</time>
      </trkpt>
      <trkpt lat="44.72101" lon="7.04871">
        <ele>2584</ele>
        <time>2022-07-16T06:47:16Z</time>
      </trkpt>
      <trkpt lat="44.72099" lon="7.04875">
        <ele>2584</ele>
        <time>2022-07-16T06:47:24Z</time>
      </trkpt>
      <trkpt lat="44.72096" lon="7.04877">
        <ele>2586</ele>
        <time>2022-07-16T06:47:32Z</time>
      </trkpt>
      <trkpt lat="44.72087" lon="7.04887">
        <ele>2588</ele>
        <time>2022-07-16T06:47:57Z</time>
      </trkpt>
      <trkpt lat="44.72084" lon="7.04889">
        <ele>2589</ele>
        <time>2022-07-16T06:48:06Z</time>
      </trkpt>
      <trkpt lat="44.72082" lon="7.04892">
        <ele>2589</ele>
        <time>2022-07-16T06:48:15Z</time>
      </trkpt>
      <trkpt lat="44.72078" lon="7.04894">
        <ele>2590</ele>
        <time>2022-07-16T06:48:22Z</time>
      </trkpt>
      <trkpt lat="44.72067" lon="7.04906">
        <ele>2592</ele>
        <time>2022-07-16T06:48:52Z</time>
      </trkpt>
      <trkpt lat="44.72064" lon="7.04909">
        <ele>2593</ele>
        <time>2022-07-16T06:48:59Z</time>
      </trkpt>
      <trkpt lat="44.72059" lon="7.04916">
        <ele>2594</ele>
        <time>2022-07-16T06:49:14Z</time>
      </trkpt>
      <trkpt lat="44.72053" lon="7.04923">
        <ele>2597</ele>
        <time>2022-07-16T06:49:26Z</time>
      </trkpt>
      <trkpt lat="44.7205" lon="7.04926">
        <ele>2598</ele>
        <time>2022-07-16T06:49:32Z</time>
      </trkpt>
      <trkpt lat="44.72047" lon="7.04928">
        <ele>2600</ele>
        <time>2022-07-16T06:49:37Z</time>
      </trkpt>
      <trkpt lat="44.72044" lon="7.04929">
        <ele>2602</ele>
        <time>2022-07-16T06:49:43Z</time>
      </trkpt>
      <trkpt lat="44.7204" lon="7.04939">
        <ele>2604</ele>
        <time>2022-07-16T06:49:57Z</time>
      </trkpt>
      <trkpt lat="44.72033" lon="7.04946">
        <ele>2603</ele>
        <time>2022-07-16T06:50:11Z</time>
      </trkpt>
      <trkpt lat="44.72031" lon="7.04949">
        <ele>2604</ele>
        <time>2022-07-16T06:50:17Z</time>
      </trkpt>
      <trkpt lat="44.72029" lon="7.04954">
        <ele>2605</ele>
        <time>2022-07-16T06:50:23Z</time>
      </trkpt>
      <trkpt lat="44.72025" lon="7.04955">
        <ele>2606</ele>
        <time>2022-07-16T06:50:28Z</time>
      </trkpt>
      <trkpt lat="44.72023" lon="7.04959">
        <ele>2606</ele>
        <time>2022-07-16T06:50:34Z</time>
      </trkpt>
      <trkpt lat="44.72014" lon="7.04969">
        <ele>2608</ele>
        <time>2022-07-16T06:50:51Z</time>
      </trkpt>
      <trkpt lat="44.72014" lon="7.04974">
        <ele>2608</ele>
        <time>2022-07-16T06:50:56Z</time>
      </trkpt>
      <trkpt lat="44.72011" lon="7.04984">
        <ele>2609</ele>
        <time>2022-07-16T06:51:05Z</time>
      </trkpt>
      <trkpt lat="44.72009" lon="7.04987">
        <ele>2610</ele>
        <time>2022-07-16T06:51:11Z</time>
      </trkpt>
      <trkpt lat="44.72008" lon="7.04992">
        <ele>2611</ele>
        <time>2022-07-16T06:51:18Z</time>
      </trkpt>
      <trkpt lat="44.72005" lon="7.04991">
        <ele>2611</ele>
        <time>2022-07-16T06:51:23Z</time>
      </trkpt>
      <trkpt lat="44.72002" lon="7.04995">
        <ele>2612</ele>
        <time>2022-07-16T06:51:29Z</time>
      </trkpt>
      <trkpt lat="44.72002" lon="7.05">
        <ele>2612</ele>
        <time>2022-07-16T06:51:34Z</time>
      </trkpt>
      <trkpt lat="44.72" lon="7.0501">
        <ele>2614</ele>
        <time>2022-07-16T06:51:45Z</time>
      </trkpt>
      <trkpt lat="44.71998" lon="7.05014">
        <ele>2614</ele>
        <time>2022-07-16T06:51:50Z</time>
      </trkpt>
      <trkpt lat="44.71998" lon="7.0502">
        <ele>2614</ele>
        <time>2022-07-16T06:51:55Z</time>
      </trkpt>
      <trkpt lat="44.71996" lon="7.05023">
        <ele>2615</ele>
        <time>2022-07-16T06:52:00Z</time>
      </trkpt>
      <trkpt lat="44.71994" lon="7.05028">
        <ele>2616</ele>
        <time>2022-07-16T06:52:08Z</time>
      </trkpt>
      <trkpt lat="44.71993" lon="7.05033">
        <ele>2617</ele>
        <time>2022-07-16T06:52:14Z</time>
      </trkpt>
      <trkpt lat="44.71989" lon="7.05036">
        <ele>2616</ele>
        <time>2022-07-16T06:52:20Z</time>
      </trkpt>
      <trkpt lat="44.71986" lon="7.05037">
        <ele>2616</ele>
        <time>2022-07-16T06:52:27Z</time>
      </trkpt>
      <trkpt lat="44.71984" lon="7.05041">
        <ele>2616</ele>
        <time>2022-07-16T06:52:33Z</time>
      </trkpt>
      <trkpt lat="44.71981" lon="7.05044">
        <ele>2617</ele>
        <time>2022-07-16T06:52:40Z</time>
      </trkpt>
      <trkpt lat="44.71978" lon="7.05048">
        <ele>2617</ele>
        <time>2022-07-16T06:52:47Z</time>
      </trkpt>
      <trkpt lat="44.71978" lon="7.05053">
        <ele>2619</ele>
        <time>2022-07-16T06:52:53Z</time>
      </trkpt>
      <trkpt lat="44.71978" lon="7.05058">
        <ele>2619</ele>
        <time>2022-07-16T06:53:01Z</time>
      </trkpt>
      <trkpt lat="44.7198" lon="7.05063">
        <ele>2620</ele>
        <time>2022-07-16T06:53:37Z</time>
      </trkpt>
      <trkpt lat="44.71977" lon="7.05066">
        <ele>2620</ele>
        <time>2022-07-16T06:53:42Z</time>
      </trkpt>
      <trkpt lat="44.71974" lon="7.05061">
        <ele>2620</ele>
        <time>2022-07-16T06:53:48Z</time>
      </trkpt>
      <trkpt lat="44.71973" lon="7.05065">
        <ele>2617</ele>
        <time>2022-07-16T06:55:57Z</time>
      </trkpt>
      <trkpt lat="44.71969" lon="7.05068">
        <ele>2616</ele>
        <time>2022-07-16T06:56:02Z</time>
      </trkpt>
      <trkpt lat="44.71966" lon="7.0507">
        <ele>2614</ele>
        <time>2022-07-16T06:56:07Z</time>
      </trkpt>
      <trkpt lat="44.71964" lon="7.05075">
        <ele>2612</ele>
        <time>2022-07-16T06:56:13Z</time>
      </trkpt>
      <trkpt lat="44.7196" lon="7.05084">
        <ele>2614</ele>
        <time>2022-07-16T06:56:25Z</time>
      </trkpt>
      <trkpt lat="44.71962" lon="7.05097">
        <ele>2617</ele>
        <time>2022-07-16T06:56:38Z</time>
      </trkpt>
      <trkpt lat="44.71965" lon="7.05109">
        <ele>2625</ele>
        <time>2022-07-16T06:56:53Z</time>
      </trkpt>
      <trkpt lat="44.71959" lon="7.05119">
        <ele>2629</ele>
        <time>2022-07-16T06:57:19Z</time>
      </trkpt>
      <trkpt lat="44.71955" lon="7.05131">
        <ele>2631</ele>
        <time>2022-07-16T06:57:41Z</time>
      </trkpt>
      <trkpt lat="44.71957" lon="7.05143">
        <ele>2634</ele>
        <time>2022-07-16T06:58:11Z</time>
      </trkpt>
      <trkpt lat="44.71952" lon="7.05155">
        <ele>2639</ele>
        <time>2022-07-16T06:58:29Z</time>
      </trkpt>
      <trkpt lat="44.71942" lon="7.05176">
        <ele>2643</ele>
        <time>2022-07-16T06:59:01Z</time>
      </trkpt>
      <trkpt lat="44.7194" lon="7.05188">
        <ele>2645</ele>
        <time>2022-07-16T06:59:21Z</time>
      </trkpt>
      <trkpt lat="44.71932" lon="7.05196">
        <ele>2646</ele>
        <time>2022-07-16T06:59:39Z</time>
      </trkpt>
      <trkpt lat="44.71927" lon="7.05206">
        <ele>2647</ele>
        <time>2022-07-16T07:00:00Z</time>
      </trkpt>
      <trkpt lat="44.71919" lon="7.05213">
        <ele>2648</ele>
        <time>2022-07-16T07:00:19Z</time>
      </trkpt>
      <trkpt lat="44.71911" lon="7.05219">
        <ele>2650</ele>
        <time>2022-07-16T07:00:42Z</time>
      </trkpt>
      <trkpt lat="44.71904" lon="7.05227">
        <ele>2653</ele>
        <time>2022-07-16T07:01:01Z</time>
      </trkpt>
      <trkpt lat="44.71899" lon="7.05238">
        <ele>2657</ele>
        <time>2022-07-16T07:01:26Z</time>
      </trkpt>
      <trkpt lat="44.71891" lon="7.05245">
        <ele>2663</ele>
        <time>2022-07-16T07:01:48Z</time>
      </trkpt>
      <trkpt lat="44.71886" lon="7.05255">
        <ele>2668</ele>
        <time>2022-07-16T07:02:13Z</time>
      </trkpt>
      <trkpt lat="44.71879" lon="7.05279">
        <ele>2672</ele>
        <time>2022-07-16T07:03:02Z</time>
      </trkpt>
      <trkpt lat="44.71874" lon="7.05289">
        <ele>2678</ele>
        <time>2022-07-16T07:03:17Z</time>
      </trkpt>
      <trkpt lat="44.71871" lon="7.05296">
        <ele>2680</ele>
        <time>2022-07-16T07:03:27Z</time>
      </trkpt>
      <trkpt lat="44.71867" lon="7.05297">
        <ele>2682</ele>
        <time>2022-07-16T07:03:33Z</time>
      </trkpt>
      <trkpt lat="44.71868" lon="7.05303">
        <ele>2683</ele>
        <time>2022-07-16T07:03:38Z</time>
      </trkpt>
      <trkpt lat="44.71871" lon="7.05304">
        <ele>2683</ele>
        <time>2022-07-16T07:03:43Z</time>
      </trkpt>
      <trkpt lat="44.71872" lon="7.05308">
        <ele>2683</ele>
        <time>2022-07-16T07:03:56Z</time>
      </trkpt>
      <trkpt lat="44.71871" lon="7.05313">
        <ele>2684</ele>
        <time>2022-07-16T07:04:08Z</time>
      </trkpt>
      <trkpt lat="44.71869" lon="7.05317">
        <ele>2687</ele>
        <time>2022-07-16T07:04:16Z</time>
      </trkpt>
      <trkpt lat="44.71871" lon="7.0532">
        <ele>2686</ele>
        <time>2022-07-16T07:04:32Z</time>
      </trkpt>
      <trkpt lat="44.71869" lon="7.05334">
        <ele>2693</ele>
        <time>2022-07-16T07:04:58Z</time>
      </trkpt>
      <trkpt lat="44.71876" lon="7.05337">
        <ele>2693</ele>
        <time>2022-07-16T07:05:21Z</time>
      </trkpt>
      <trkpt lat="44.7188" lon="7.05338">
        <ele>2695</ele>
        <time>2022-07-16T07:05:31Z</time>
      </trkpt>
      <trkpt lat="44.71883" lon="7.05341">
        <ele>2697</ele>
        <time>2022-07-16T07:05:32Z</time>
      </trkpt>
      <trkpt lat="44.71884" lon="7.05346">
        <ele>2699</ele>
        <time>2022-07-16T07:05:40Z</time>
      </trkpt>
      <trkpt lat="44.71886" lon="7.05351">
        <ele>2698</ele>
        <time>2022-07-16T07:05:47Z</time>
      </trkpt>
      <trkpt lat="44.71889" lon="7.05354">
        <ele>2697</ele>
        <time>2022-07-16T07:05:54Z</time>
      </trkpt>
      <trkpt lat="44.71893" lon="7.05353">
        <ele>2698</ele>
        <time>2022-07-16T07:05:58Z</time>
      </trkpt>
      <trkpt lat="44.71896" lon="7.05355">
        <ele>2699</ele>
        <time>2022-07-16T07:06:03Z</time>
      </trkpt>
      <trkpt lat="44.71898" lon="7.05359">
        <ele>2699</ele>
        <time>2022-07-16T07:06:09Z</time>
      </trkpt>
      <trkpt lat="44.71899" lon="7.05365">
        <ele>2699</ele>
        <time>2022-07-16T07:06:17Z</time>
      </trkpt>
      <trkpt lat="44.71903" lon="7.05366">
        <ele>2700</ele>
        <time>2022-07-16T07:06:30Z</time>
      </trkpt>
      <trkpt lat="44.71902" lon="7.05371">
        <ele>2702</ele>
        <time>2022-07-16T07:06:34Z</time>
      </trkpt>
      <trkpt lat="44.71902" lon="7.05376">
        <ele>2702</ele>
        <time>2022-07-16T07:06:49Z</time>
      </trkpt>
      <trkpt lat="44.719" lon="7.0538">
        <ele>2705</ele>
        <time>2022-07-16T07:07:00Z</time>
      </trkpt>
      <trkpt lat="44.71902" lon="7.05384">
        <ele>2706</ele>
        <time>2022-07-16T07:07:08Z</time>
      </trkpt>
      <trkpt lat="44.71901" lon="7.05389">
        <ele>2707</ele>
        <time>2022-07-16T07:07:17Z</time>
      </trkpt>
      <trkpt lat="44.719" lon="7.05394">
        <ele>2708</ele>
        <time>2022-07-16T07:07:30Z</time>
      </trkpt>
      <trkpt lat="44.71897" lon="7.05392">
        <ele>2709</ele>
        <time>2022-07-16T07:07:38Z</time>
      </trkpt>
      <trkpt lat="44.71894" lon="7.05388">
        <ele>2710</ele>
        <time>2022-07-16T07:07:48Z</time>
      </trkpt>
      <trkpt lat="44.71892" lon="7.05392">
        <ele>2711</ele>
        <time>2022-07-16T07:07:55Z</time>
      </trkpt>
      <trkpt lat="44.71889" lon="7.05396">
        <ele>2711</ele>
        <time>2022-07-16T07:08:09Z</time>
      </trkpt>
      <trkpt lat="44.71891" lon="7.05399">
        <ele>2711</ele>
        <time>2022-07-16T07:08:15Z</time>
      </trkpt>
      <trkpt lat="44.71894" lon="7.05402">
        <ele>2714</ele>
        <time>2022-07-16T07:08:24Z</time>
      </trkpt>
      <trkpt lat="44.71896" lon="7.05407">
        <ele>2716</ele>
        <time>2022-07-16T07:08:31Z</time>
      </trkpt>
      <trkpt lat="44.71893" lon="7.05409">
        <ele>2717</ele>
        <time>2022-07-16T07:08:38Z</time>
      </trkpt>
      <trkpt lat="44.71892" lon="7.0541">
        <ele>2717</ele>
        <time>2022-07-16T07:08:53Z</time>
      </trkpt>
      <trkpt lat="44.71892" lon="7.05415">
        <ele>2719</ele>
        <time>2022-07-16T07:09:02Z</time>
      </trkpt>
      <trkpt lat="44.71889" lon="7.05418">
        <ele>2720</ele>
        <time>2022-07-16T07:09:10Z</time>
      </trkpt>
      <trkpt lat="44.71885" lon="7.05417">
        <ele>2724</ele>
        <time>2022-07-16T07:09:19Z</time>
      </trkpt>
      <trkpt lat="44.71882" lon="7.05427">
        <ele>2728</ele>
        <time>2022-07-16T07:09:44Z</time>
      </trkpt>
      <trkpt lat="44.71882" lon="7.05431">
        <ele>2728</ele>
        <time>2022-07-16T07:09:53Z</time>
      </trkpt>
      <trkpt lat="44.7188" lon="7.05436">
        <ele>2730</ele>
        <time>2022-07-16T07:10:00Z</time>
      </trkpt>
      <trkpt lat="44.7188" lon="7.05441">
        <ele>2730</ele>
        <time>2022-07-16T07:10:15Z</time>
      </trkpt>
      <trkpt lat="44.71882" lon="7.05445">
        <ele>2733</ele>
        <time>2022-07-16T07:10:22Z</time>
      </trkpt>
      <trkpt lat="44.71882" lon="7.0545">
        <ele>2733</ele>
        <time>2022-07-16T07:10:30Z</time>
      </trkpt>
      <trkpt lat="44.71883" lon="7.05455">
        <ele>2733</ele>
        <time>2022-07-16T07:10:38Z</time>
      </trkpt>
      <trkpt lat="44.71883" lon="7.0546">
        <ele>2735</ele>
        <time>2022-07-16T07:10:51Z</time>
      </trkpt>
      <trkpt lat="44.71879" lon="7.05457">
        <ele>2736</ele>
        <time>2022-07-16T07:11:09Z</time>
      </trkpt>
      <trkpt lat="44.71876" lon="7.05456">
        <ele>2738</ele>
        <time>2022-07-16T07:11:20Z</time>
      </trkpt>
      <trkpt lat="44.71875" lon="7.05462">
        <ele>2739</ele>
        <time>2022-07-16T07:11:25Z</time>
      </trkpt>
      <trkpt lat="44.71874" lon="7.05466">
        <ele>2740</ele>
        <time>2022-07-16T07:11:34Z</time>
      </trkpt>
      <trkpt lat="44.71872" lon="7.0547">
        <ele>2741</ele>
        <time>2022-07-16T07:11:42Z</time>
      </trkpt>
      <trkpt lat="44.71871" lon="7.0548">
        <ele>2744</ele>
        <time>2022-07-16T07:11:54Z</time>
      </trkpt>
      <trkpt lat="44.71869" lon="7.05484">
        <ele>2745</ele>
        <time>2022-07-16T07:12:01Z</time>
      </trkpt>
      <trkpt lat="44.71863" lon="7.05491">
        <ele>2746</ele>
        <time>2022-07-16T07:12:16Z</time>
      </trkpt>
      <trkpt lat="44.71861" lon="7.05495">
        <ele>2747</ele>
        <time>2022-07-16T07:12:24Z</time>
      </trkpt>
      <trkpt lat="44.71858" lon="7.05496">
        <ele>2748</ele>
        <time>2022-07-16T07:12:36Z</time>
      </trkpt>
      <trkpt lat="44.71851" lon="7.055">
        <ele>2750</ele>
        <time>2022-07-16T07:12:52Z</time>
      </trkpt>
      <trkpt lat="44.71848" lon="7.05502">
        <ele>2750</ele>
        <time>2022-07-16T07:12:59Z</time>
      </trkpt>
      <trkpt lat="44.71842" lon="7.05507">
        <ele>2748</ele>
        <time>2022-07-16T07:13:11Z</time>
      </trkpt>
      <trkpt lat="44.71839" lon="7.05511">
        <ele>2749</ele>
        <time>2022-07-16T07:13:16Z</time>
      </trkpt>
      <trkpt lat="44.71837" lon="7.05515">
        <ele>2751</ele>
        <time>2022-07-16T07:13:22Z</time>
      </trkpt>
      <trkpt lat="44.71833" lon="7.05515">
        <ele>2752</ele>
        <time>2022-07-16T07:13:27Z</time>
      </trkpt>
      <trkpt lat="44.7183" lon="7.05515">
        <ele>2752</ele>
        <time>2022-07-16T07:13:33Z</time>
      </trkpt>
      <trkpt lat="44.71827" lon="7.05518">
        <ele>2752</ele>
        <time>2022-07-16T07:13:41Z</time>
      </trkpt>
      <trkpt lat="44.71828" lon="7.05523">
        <ele>2753</ele>
        <time>2022-07-16T07:13:47Z</time>
      </trkpt>
      <trkpt lat="44.71826" lon="7.05528">
        <ele>2755</ele>
        <time>2022-07-16T07:13:54Z</time>
      </trkpt>
      <trkpt lat="44.71826" lon="7.05533">
        <ele>2759</ele>
        <time>2022-07-16T07:14:01Z</time>
      </trkpt>
      <trkpt lat="44.71828" lon="7.05537">
        <ele>2759</ele>
        <time>2022-07-16T07:14:07Z</time>
      </trkpt>
      <trkpt lat="44.71825" lon="7.05541">
        <ele>2759</ele>
        <time>2022-07-16T07:14:14Z</time>
      </trkpt>
      <trkpt lat="44.71821" lon="7.05541">
        <ele>2760</ele>
        <time>2022-07-16T07:14:22Z</time>
      </trkpt>
      <trkpt lat="44.71819" lon="7.05546">
        <ele>2760</ele>
        <time>2022-07-16T07:14:31Z</time>
      </trkpt>
      <trkpt lat="44.71815" lon="7.05545">
        <ele>2762</ele>
        <time>2022-07-16T07:14:38Z</time>
      </trkpt>
      <trkpt lat="44.71812" lon="7.05547">
        <ele>2761</ele>
        <time>2022-07-16T07:14:44Z</time>
      </trkpt>
      <trkpt lat="44.71809" lon="7.0555">
        <ele>2761</ele>
        <time>2022-07-16T07:14:50Z</time>
      </trkpt>
      <trkpt lat="44.71805" lon="7.05551">
        <ele>2761</ele>
        <time>2022-07-16T07:14:56Z</time>
      </trkpt>
      <trkpt lat="44.71801" lon="7.05551">
        <ele>2761</ele>
        <time>2022-07-16T07:15:02Z</time>
      </trkpt>
      <trkpt lat="44.71798" lon="7.05554">
        <ele>2760</ele>
        <time>2022-07-16T07:15:08Z</time>
      </trkpt>
      <trkpt lat="44.71795" lon="7.05558">
        <ele>2761</ele>
        <time>2022-07-16T07:15:16Z</time>
      </trkpt>
      <trkpt lat="44.71792" lon="7.05561">
        <ele>2764</ele>
        <time>2022-07-16T07:15:22Z</time>
      </trkpt>
      <trkpt lat="44.7179" lon="7.05564">
        <ele>2765</ele>
        <time>2022-07-16T07:15:28Z</time>
      </trkpt>
      <trkpt lat="44.71787" lon="7.05566">
        <ele>2764</ele>
        <time>2022-07-16T07:15:35Z</time>
      </trkpt>
      <trkpt lat="44.71784" lon="7.0557">
        <ele>2764</ele>
        <time>2022-07-16T07:15:41Z</time>
      </trkpt>
      <trkpt lat="44.71782" lon="7.05574">
        <ele>2766</ele>
        <time>2022-07-16T07:15:50Z</time>
      </trkpt>
      <trkpt lat="44.71778" lon="7.05574">
        <ele>2766</ele>
        <time>2022-07-16T07:15:55Z</time>
      </trkpt>
      <trkpt lat="44.71774" lon="7.05578">
        <ele>2768</ele>
        <time>2022-07-16T07:16:01Z</time>
      </trkpt>
      <trkpt lat="44.71773" lon="7.05583">
        <ele>2769</ele>
        <time>2022-07-16T07:16:06Z</time>
      </trkpt>
      <trkpt lat="44.71775" lon="7.05588">
        <ele>2772</ele>
        <time>2022-07-16T07:16:13Z</time>
      </trkpt>
      <trkpt lat="44.71772" lon="7.05592">
        <ele>2773</ele>
        <time>2022-07-16T07:16:19Z</time>
      </trkpt>
      <trkpt lat="44.71769" lon="7.05595">
        <ele>2775</ele>
        <time>2022-07-16T07:16:24Z</time>
      </trkpt>
      <trkpt lat="44.71768" lon="7.056">
        <ele>2775</ele>
        <time>2022-07-16T07:16:31Z</time>
      </trkpt>
      <trkpt lat="44.71766" lon="7.05604">
        <ele>2775</ele>
        <time>2022-07-16T07:16:38Z</time>
      </trkpt>
      <trkpt lat="44.7177" lon="7.05606">
        <ele>2774</ele>
        <time>2022-07-16T07:16:49Z</time>
      </trkpt>
      <trkpt lat="44.71768" lon="7.05611">
        <ele>2774</ele>
        <time>2022-07-16T07:16:58Z</time>
      </trkpt>
      <trkpt lat="44.71769" lon="7.05617">
        <ele>2773</ele>
        <time>2022-07-16T07:17:04Z</time>
      </trkpt>
      <trkpt lat="44.7177" lon="7.05622">
        <ele>2773</ele>
        <time>2022-07-16T07:17:10Z</time>
      </trkpt>
      <trkpt lat="44.71768" lon="7.05627">
        <ele>2775</ele>
        <time>2022-07-16T07:17:17Z</time>
      </trkpt>
      <trkpt lat="44.71769" lon="7.05637">
        <ele>2773</ele>
        <time>2022-07-16T07:17:35Z</time>
      </trkpt>
      <trkpt lat="44.71769" lon="7.05642">
        <ele>2772</ele>
        <time>2022-07-16T07:17:40Z</time>
      </trkpt>
      <trkpt lat="44.7177" lon="7.05647">
        <ele>2772</ele>
        <time>2022-07-16T07:17:45Z</time>
      </trkpt>
      <trkpt lat="44.71767" lon="7.0565">
        <ele>2772</ele>
        <time>2022-07-16T07:17:50Z</time>
      </trkpt>
      <trkpt lat="44.71765" lon="7.05654">
        <ele>2772</ele>
        <time>2022-07-16T07:17:55Z</time>
      </trkpt>
      <trkpt lat="44.71759" lon="7.0566">
        <ele>2771</ele>
        <time>2022-07-16T07:18:07Z</time>
      </trkpt>
      <trkpt lat="44.71758" lon="7.05666">
        <ele>2771</ele>
        <time>2022-07-16T07:18:13Z</time>
      </trkpt>
      <trkpt lat="44.71756" lon="7.0567">
        <ele>2774</ele>
        <time>2022-07-16T07:18:21Z</time>
      </trkpt>
      <trkpt lat="44.71756" lon="7.05675">
        <ele>2775</ele>
        <time>2022-07-16T07:18:27Z</time>
      </trkpt>
      <trkpt lat="44.71753" lon="7.05678">
        <ele>2777</ele>
        <time>2022-07-16T07:18:36Z</time>
      </trkpt>
      <trkpt lat="44.7175" lon="7.05676">
        <ele>2777</ele>
        <time>2022-07-16T07:18:42Z</time>
      </trkpt>
      <trkpt lat="44.71746" lon="7.05676">
        <ele>2779</ele>
        <time>2022-07-16T07:18:50Z</time>
      </trkpt>
      <trkpt lat="44.71743" lon="7.05674">
        <ele>2779</ele>
        <time>2022-07-16T07:19:01Z</time>
      </trkpt>
      <trkpt lat="44.71736" lon="7.05676">
        <ele>2781</ele>
        <time>2022-07-16T07:19:20Z</time>
      </trkpt>
      <trkpt lat="44.71735" lon="7.05682">
        <ele>2784</ele>
        <time>2022-07-16T07:19:29Z</time>
      </trkpt>
      <trkpt lat="44.71737" lon="7.05686">
        <ele>2785</ele>
        <time>2022-07-16T07:19:35Z</time>
      </trkpt>
      <trkpt lat="44.71735" lon="7.05689">
        <ele>2786</ele>
        <time>2022-07-16T07:19:43Z</time>
      </trkpt>
      <trkpt lat="44.71733" lon="7.05694">
        <ele>2786</ele>
        <time>2022-07-16T07:19:51Z</time>
      </trkpt>
      <trkpt lat="44.7173" lon="7.05694">
        <ele>2787</ele>
        <time>2022-07-16T07:19:58Z</time>
      </trkpt>
      <trkpt lat="44.71726" lon="7.05696">
        <ele>2788</ele>
        <time>2022-07-16T07:20:07Z</time>
      </trkpt>
      <trkpt lat="44.71724" lon="7.057">
        <ele>2790</ele>
        <time>2022-07-16T07:20:17Z</time>
      </trkpt>
      <trkpt lat="44.7172" lon="7.05697">
        <ele>2790</ele>
        <time>2022-07-16T07:20:27Z</time>
      </trkpt>
      <trkpt lat="44.71717" lon="7.057">
        <ele>2791</ele>
        <time>2022-07-16T07:20:35Z</time>
      </trkpt>
      <trkpt lat="44.71716" lon="7.05704">
        <ele>2794</ele>
        <time>2022-07-16T07:20:44Z</time>
      </trkpt>
      <trkpt lat="44.71711" lon="7.05712">
        <ele>2795</ele>
        <time>2022-07-16T07:21:05Z</time>
      </trkpt>
      <trkpt lat="44.71707" lon="7.05711">
        <ele>2795</ele>
        <time>2022-07-16T07:21:13Z</time>
      </trkpt>
      <trkpt lat="44.71704" lon="7.05712">
        <ele>2797</ele>
        <time>2022-07-16T07:21:21Z</time>
      </trkpt>
      <trkpt lat="44.71701" lon="7.05708">
        <ele>2797</ele>
        <time>2022-07-16T07:21:28Z</time>
      </trkpt>
      <trkpt lat="44.71695" lon="7.05713">
        <ele>2797</ele>
        <time>2022-07-16T07:21:40Z</time>
      </trkpt>
      <trkpt lat="44.71696" lon="7.05718">
        <ele>2800</ele>
        <time>2022-07-16T07:21:46Z</time>
      </trkpt>
      <trkpt lat="44.71695" lon="7.05722">
        <ele>2802</ele>
        <time>2022-07-16T07:21:55Z</time>
      </trkpt>
      <trkpt lat="44.71695" lon="7.05728">
        <ele>2804</ele>
        <time>2022-07-16T07:22:05Z</time>
      </trkpt>
      <trkpt lat="44.71695" lon="7.05733">
        <ele>2806</ele>
        <time>2022-07-16T07:22:20Z</time>
      </trkpt>
      <trkpt lat="44.71697" lon="7.05737">
        <ele>2808</ele>
        <time>2022-07-16T07:22:31Z</time>
      </trkpt>
      <trkpt lat="44.71698" lon="7.05743">
        <ele>2809</ele>
        <time>2022-07-16T07:22:38Z</time>
      </trkpt>
      <trkpt lat="44.71697" lon="7.05748">
        <ele>2810</ele>
        <time>2022-07-16T07:22:44Z</time>
      </trkpt>
      <trkpt lat="44.71695" lon="7.05751">
        <ele>2810</ele>
        <time>2022-07-16T07:22:53Z</time>
      </trkpt>
      <trkpt lat="44.71693" lon="7.05756">
        <ele>2810</ele>
        <time>2022-07-16T07:23:04Z</time>
      </trkpt>
      <trkpt lat="44.7169" lon="7.05758">
        <ele>2812</ele>
        <time>2022-07-16T07:23:12Z</time>
      </trkpt>
      <trkpt lat="44.71686" lon="7.05759">
        <ele>2813</ele>
        <time>2022-07-16T07:23:20Z</time>
      </trkpt>
      <trkpt lat="44.71683" lon="7.05763">
        <ele>2813</ele>
        <time>2022-07-16T07:23:29Z</time>
      </trkpt>
      <trkpt lat="44.71681" lon="7.05766">
        <ele>2815</ele>
        <time>2022-07-16T07:23:38Z</time>
      </trkpt>
      <trkpt lat="44.71683" lon="7.05777">
        <ele>2815</ele>
        <time>2022-07-16T07:23:50Z</time>
      </trkpt>
      <trkpt lat="44.71682" lon="7.05782">
        <ele>2816</ele>
        <time>2022-07-16T07:23:56Z</time>
      </trkpt>
      <trkpt lat="44.71685" lon="7.05786">
        <ele>2816</ele>
        <time>2022-07-16T07:24:03Z</time>
      </trkpt>
      <trkpt lat="44.71682" lon="7.05789">
        <ele>2817</ele>
        <time>2022-07-16T07:24:11Z</time>
      </trkpt>
      <trkpt lat="44.71684" lon="7.05794">
        <ele>2817</ele>
        <time>2022-07-16T07:24:19Z</time>
      </trkpt>
      <trkpt lat="44.71687" lon="7.05809">
        <ele>2822</ele>
        <time>2022-07-16T07:24:44Z</time>
      </trkpt>
      <trkpt lat="44.71686" lon="7.05814">
        <ele>2823</ele>
        <time>2022-07-16T07:24:50Z</time>
      </trkpt>
      <trkpt lat="44.71681" lon="7.05822">
        <ele>2825</ele>
        <time>2022-07-16T07:25:03Z</time>
      </trkpt>
      <trkpt lat="44.71679" lon="7.05825">
        <ele>2825</ele>
        <time>2022-07-16T07:25:09Z</time>
      </trkpt>
      <trkpt lat="44.71675" lon="7.05826">
        <ele>2825</ele>
        <time>2022-07-16T07:25:15Z</time>
      </trkpt>
      <trkpt lat="44.71672" lon="7.05829">
        <ele>2825</ele>
        <time>2022-07-16T07:25:20Z</time>
      </trkpt>
      <trkpt lat="44.71671" lon="7.05834">
        <ele>2826</ele>
        <time>2022-07-16T07:25:28Z</time>
      </trkpt>
      <trkpt lat="44.71668" lon="7.05837">
        <ele>2829</ele>
        <time>2022-07-16T07:25:35Z</time>
      </trkpt>
      <trkpt lat="44.71665" lon="7.05837">
        <ele>2829</ele>
        <time>2022-07-16T07:25:42Z</time>
      </trkpt>
      <trkpt lat="44.71663" lon="7.05842">
        <ele>2831</ele>
        <time>2022-07-16T07:25:55Z</time>
      </trkpt>
      <trkpt lat="44.7166" lon="7.05843">
        <ele>2831</ele>
        <time>2022-07-16T07:26:02Z</time>
      </trkpt>
      <trkpt lat="44.71657" lon="7.05846">
        <ele>2832</ele>
        <time>2022-07-16T07:26:10Z</time>
      </trkpt>
      <trkpt lat="44.71653" lon="7.05847">
        <ele>2833</ele>
        <time>2022-07-16T07:26:18Z</time>
      </trkpt>
      <trkpt lat="44.71649" lon="7.05849">
        <ele>2832</ele>
        <time>2022-07-16T07:26:25Z</time>
      </trkpt>
      <trkpt lat="44.71648" lon="7.05845">
        <ele>2832</ele>
        <time>2022-07-16T07:26:35Z</time>
      </trkpt>
      <trkpt lat="44.71645" lon="7.05847">
        <ele>2833</ele>
        <time>2022-07-16T07:26:45Z</time>
      </trkpt>
      <trkpt lat="44.71643" lon="7.05852">
        <ele>2832</ele>
        <time>2022-07-16T07:26:59Z</time>
      </trkpt>
      <trkpt lat="44.71632" lon="7.05854">
        <ele>2834</ele>
        <time>2022-07-16T07:27:22Z</time>
      </trkpt>
      <trkpt lat="44.71628" lon="7.05854">
        <ele>2835</ele>
        <time>2022-07-16T07:27:29Z</time>
      </trkpt>
      <trkpt lat="44.71625" lon="7.05855">
        <ele>2836</ele>
        <time>2022-07-16T07:27:35Z</time>
      </trkpt>
      <trkpt lat="44.71618" lon="7.05859">
        <ele>2837</ele>
        <time>2022-07-16T07:27:49Z</time>
      </trkpt>
      <trkpt lat="44.71616" lon="7.05863">
        <ele>2839</ele>
        <time>2022-07-16T07:27:59Z</time>
      </trkpt>
      <trkpt lat="44.71615" lon="7.05868">
        <ele>2843</ele>
        <time>2022-07-16T07:28:08Z</time>
      </trkpt>
      <trkpt lat="44.71611" lon="7.05869">
        <ele>2844</ele>
        <time>2022-07-16T07:28:20Z</time>
      </trkpt>
      <trkpt lat="44.71609" lon="7.05872">
        <ele>2845</ele>
        <time>2022-07-16T07:28:26Z</time>
      </trkpt>
      <trkpt lat="44.71608" lon="7.05877">
        <ele>2846</ele>
        <time>2022-07-16T07:28:32Z</time>
      </trkpt>
      <trkpt lat="44.71605" lon="7.05881">
        <ele>2847</ele>
        <time>2022-07-16T07:28:38Z</time>
      </trkpt>
      <trkpt lat="44.71602" lon="7.05885">
        <ele>2847</ele>
        <time>2022-07-16T07:28:45Z</time>
      </trkpt>
      <trkpt lat="44.71602" lon="7.05895">
        <ele>2849</ele>
        <time>2022-07-16T07:29:01Z</time>
      </trkpt>
      <trkpt lat="44.716" lon="7.05899">
        <ele>2852</ele>
        <time>2022-07-16T07:29:10Z</time>
      </trkpt>
      <trkpt lat="44.71598" lon="7.05903">
        <ele>2853</ele>
        <time>2022-07-16T07:29:18Z</time>
      </trkpt>
      <trkpt lat="44.71598" lon="7.05908">
        <ele>2854</ele>
        <time>2022-07-16T07:29:25Z</time>
      </trkpt>
      <trkpt lat="44.71599" lon="7.05913">
        <ele>2856</ele>
        <time>2022-07-16T07:29:35Z</time>
      </trkpt>
      <trkpt lat="44.71596" lon="7.05922">
        <ele>2858</ele>
        <time>2022-07-16T07:30:05Z</time>
      </trkpt>
      <trkpt lat="44.71594" lon="7.05926">
        <ele>2858</ele>
        <time>2022-07-16T07:30:12Z</time>
      </trkpt>
      <trkpt lat="44.71593" lon="7.05932">
        <ele>2857</ele>
        <time>2022-07-16T07:30:21Z</time>
      </trkpt>
      <trkpt lat="44.71594" lon="7.05937">
        <ele>2856</ele>
        <time>2022-07-16T07:30:31Z</time>
      </trkpt>
      <trkpt lat="44.71592" lon="7.05941">
        <ele>2857</ele>
        <time>2022-07-16T07:30:38Z</time>
      </trkpt>
      <trkpt lat="44.71591" lon="7.05946">
        <ele>2858</ele>
        <time>2022-07-16T07:30:46Z</time>
      </trkpt>
      <trkpt lat="44.71594" lon="7.05949">
        <ele>2860</ele>
        <time>2022-07-16T07:30:54Z</time>
      </trkpt>
      <trkpt lat="44.71593" lon="7.05953">
        <ele>2860</ele>
        <time>2022-07-16T07:31:00Z</time>
      </trkpt>
      <trkpt lat="44.71589" lon="7.05955">
        <ele>2861</ele>
        <time>2022-07-16T07:31:06Z</time>
      </trkpt>
      <trkpt lat="44.71588" lon="7.05959">
        <ele>2863</ele>
        <time>2022-07-16T07:31:15Z</time>
      </trkpt>
      <trkpt lat="44.71585" lon="7.05962">
        <ele>2863</ele>
        <time>2022-07-16T07:31:21Z</time>
      </trkpt>
      <trkpt lat="44.71583" lon="7.05966">
        <ele>2864</ele>
        <time>2022-07-16T07:31:27Z</time>
      </trkpt>
      <trkpt lat="44.71579" lon="7.05967">
        <ele>2864</ele>
        <time>2022-07-16T07:31:35Z</time>
      </trkpt>
      <trkpt lat="44.71577" lon="7.05972">
        <ele>2865</ele>
        <time>2022-07-16T07:31:43Z</time>
      </trkpt>
      <trkpt lat="44.71575" lon="7.05976">
        <ele>2866</ele>
        <time>2022-07-16T07:31:51Z</time>
      </trkpt>
      <trkpt lat="44.71571" lon="7.05984">
        <ele>2869</ele>
        <time>2022-07-16T07:32:06Z</time>
      </trkpt>
      <trkpt lat="44.71567" lon="7.05986">
        <ele>2868</ele>
        <time>2022-07-16T07:32:12Z</time>
      </trkpt>
      <trkpt lat="44.71564" lon="7.05989">
        <ele>2869</ele>
        <time>2022-07-16T07:32:20Z</time>
      </trkpt>
      <trkpt lat="44.71564" lon="7.05994">
        <ele>2870</ele>
        <time>2022-07-16T07:32:29Z</time>
      </trkpt>
      <trkpt lat="44.7156" lon="7.05994">
        <ele>2870</ele>
        <time>2022-07-16T07:32:38Z</time>
      </trkpt>
      <trkpt lat="44.71558" lon="7.05997">
        <ele>2871</ele>
        <time>2022-07-16T07:32:46Z</time>
      </trkpt>
      <trkpt lat="44.71557" lon="7.06002">
        <ele>2871</ele>
        <time>2022-07-16T07:32:53Z</time>
      </trkpt>
      <trkpt lat="44.71556" lon="7.06008">
        <ele>2871</ele>
        <time>2022-07-16T07:33:00Z</time>
      </trkpt>
      <trkpt lat="44.71554" lon="7.06012">
        <ele>2870</ele>
        <time>2022-07-16T07:33:09Z</time>
      </trkpt>
      <trkpt lat="44.71555" lon="7.06017">
        <ele>2871</ele>
        <time>2022-07-16T07:33:16Z</time>
      </trkpt>
      <trkpt lat="44.71555" lon="7.06022">
        <ele>2872</ele>
        <time>2022-07-16T07:33:24Z</time>
      </trkpt>
      <trkpt lat="44.71552" lon="7.06025">
        <ele>2872</ele>
        <time>2022-07-16T07:33:31Z</time>
      </trkpt>
      <trkpt lat="44.71552" lon="7.0603">
        <ele>2873</ele>
        <time>2022-07-16T07:33:38Z</time>
      </trkpt>
      <trkpt lat="44.7155" lon="7.06035">
        <ele>2874</ele>
        <time>2022-07-16T07:33:44Z</time>
      </trkpt>
      <trkpt lat="44.71547" lon="7.06039">
        <ele>2873</ele>
        <time>2022-07-16T07:33:50Z</time>
      </trkpt>
      <trkpt lat="44.71546" lon="7.06044">
        <ele>2874</ele>
        <time>2022-07-16T07:33:56Z</time>
      </trkpt>
      <trkpt lat="44.71545" lon="7.06048">
        <ele>2874</ele>
        <time>2022-07-16T07:34:02Z</time>
      </trkpt>
      <trkpt lat="44.71545" lon="7.06053">
        <ele>2874</ele>
        <time>2022-07-16T07:34:05Z</time>
      </trkpt>
      <trkpt lat="44.71548" lon="7.06057">
        <ele>2874</ele>
        <time>2022-07-16T07:34:10Z</time>
      </trkpt>
      <trkpt lat="44.71554" lon="7.06069">
        <ele>2874</ele>
        <time>2022-07-16T07:34:34Z</time>
      </trkpt>
      <trkpt lat="44.71557" lon="7.06073">
        <ele>2873</ele>
        <time>2022-07-16T07:34:40Z</time>
      </trkpt>
      <trkpt lat="44.7156" lon="7.06077">
        <ele>2874</ele>
        <time>2022-07-16T07:34:45Z</time>
      </trkpt>
      <trkpt lat="44.71561" lon="7.06088">
        <ele>2875</ele>
        <time>2022-07-16T07:34:56Z</time>
      </trkpt>
      <trkpt lat="44.7156" lon="7.06093">
        <ele>2874</ele>
        <time>2022-07-16T07:35:02Z</time>
      </trkpt>
      <trkpt lat="44.71557" lon="7.06096">
        <ele>2873</ele>
        <time>2022-07-16T07:35:07Z</time>
      </trkpt>
      <trkpt lat="44.71555" lon="7.061">
        <ele>2873</ele>
        <time>2022-07-16T07:35:14Z</time>
      </trkpt>
      <trkpt lat="44.71553" lon="7.06105">
        <ele>2874</ele>
        <time>2022-07-16T07:35:19Z</time>
      </trkpt>
      <trkpt lat="44.71554" lon="7.0611">
        <ele>2874</ele>
        <time>2022-07-16T07:35:25Z</time>
      </trkpt>
      <trkpt lat="44.71553" lon="7.0612">
        <ele>2875</ele>
        <time>2022-07-16T07:35:42Z</time>
      </trkpt>
      <trkpt lat="44.7155" lon="7.06123">
        <ele>2877</ele>
        <time>2022-07-16T07:35:48Z</time>
      </trkpt>
      <trkpt lat="44.71547" lon="7.06126">
        <ele>2878</ele>
        <time>2022-07-16T07:35:59Z</time>
      </trkpt>
      <trkpt lat="44.71546" lon="7.06131">
        <ele>2879</ele>
        <time>2022-07-16T07:36:10Z</time>
      </trkpt>
      <trkpt lat="44.71545" lon="7.06136">
        <ele>2882</ele>
        <time>2022-07-16T07:36:23Z</time>
      </trkpt>
      <trkpt lat="44.71543" lon="7.0614">
        <ele>2883</ele>
        <time>2022-07-16T07:36:32Z</time>
      </trkpt>
      <trkpt lat="44.71543" lon="7.06145">
        <ele>2884</ele>
        <time>2022-07-16T07:36:39Z</time>
      </trkpt>
      <trkpt lat="44.71542" lon="7.0615">
        <ele>2885</ele>
        <time>2022-07-16T07:36:44Z</time>
      </trkpt>
      <trkpt lat="44.71546" lon="7.06159">
        <ele>2884</ele>
        <time>2022-07-16T07:36:53Z</time>
      </trkpt>
      <trkpt lat="44.71542" lon="7.06167">
        <ele>2888</ele>
        <time>2022-07-16T07:37:10Z</time>
      </trkpt>
      <trkpt lat="44.71542" lon="7.06177">
        <ele>2889</ele>
        <time>2022-07-16T07:37:23Z</time>
      </trkpt>
      <trkpt lat="44.7154" lon="7.06182">
        <ele>2889</ele>
        <time>2022-07-16T07:37:29Z</time>
      </trkpt>
      <trkpt lat="44.71537" lon="7.06185">
        <ele>2892</ele>
        <time>2022-07-16T07:37:36Z</time>
      </trkpt>
      <trkpt lat="44.71534" lon="7.06188">
        <ele>2893</ele>
        <time>2022-07-16T07:37:43Z</time>
      </trkpt>
      <trkpt lat="44.71534" lon="7.06193">
        <ele>2895</ele>
        <time>2022-07-16T07:37:51Z</time>
      </trkpt>
      <trkpt lat="44.71535" lon="7.06198">
        <ele>2894</ele>
        <time>2022-07-16T07:37:59Z</time>
      </trkpt>
      <trkpt lat="44.71534" lon="7.06203">
        <ele>2895</ele>
        <time>2022-07-16T07:38:07Z</time>
      </trkpt>
      <trkpt lat="44.71536" lon="7.06208">
        <ele>2896</ele>
        <time>2022-07-16T07:38:16Z</time>
      </trkpt>
      <trkpt lat="44.71533" lon="7.06209">
        <ele>2896</ele>
        <time>2022-07-16T07:38:23Z</time>
      </trkpt>
      <trkpt lat="44.7153" lon="7.06213">
        <ele>2896</ele>
        <time>2022-07-16T07:38:32Z</time>
      </trkpt>
      <trkpt lat="44.71532" lon="7.06223">
        <ele>2896</ele>
        <time>2022-07-16T07:38:44Z</time>
      </trkpt>
      <trkpt lat="44.71534" lon="7.06228">
        <ele>2896</ele>
        <time>2022-07-16T07:39:05Z</time>
      </trkpt>
      <trkpt lat="44.71536" lon="7.06235">
        <ele>2894</ele>
        <time>2022-07-16T07:39:14Z</time>
      </trkpt>
      <trkpt lat="44.71537" lon="7.06241">
        <ele>2890</ele>
        <time>2022-07-16T07:39:26Z</time>
      </trkpt>
      <trkpt lat="44.71535" lon="7.06246">
        <ele>2890</ele>
        <time>2022-07-16T07:39:32Z</time>
      </trkpt>
      <trkpt lat="44.71533" lon="7.0625">
        <ele>2888</ele>
        <time>2022-07-16T07:39:42Z</time>
      </trkpt>
      <trkpt lat="44.71536" lon="7.06253">
        <ele>2888</ele>
        <time>2022-07-16T07:39:51Z</time>
      </trkpt>
      <trkpt lat="44.71536" lon="7.06258">
        <ele>2887</ele>
        <time>2022-07-16T07:39:54Z</time>
      </trkpt>
      <trkpt lat="44.71537" lon="7.06263">
        <ele>2886</ele>
        <time>2022-07-16T07:39:58Z</time>
      </trkpt>
      <trkpt lat="44.71536" lon="7.06269">
        <ele>2885</ele>
        <time>2022-07-16T07:40:04Z</time>
      </trkpt>
      <trkpt lat="44.71536" lon="7.06275">
        <ele>2885</ele>
        <time>2022-07-16T07:40:14Z</time>
      </trkpt>
      <trkpt lat="44.71535" lon="7.06288">
        <ele>2884</ele>
        <time>2022-07-16T07:40:28Z</time>
      </trkpt>
      <trkpt lat="44.71535" lon="7.06294">
        <ele>2882</ele>
        <time>2022-07-16T07:40:36Z</time>
      </trkpt>
      <trkpt lat="44.71534" lon="7.063">
        <ele>2881</ele>
        <time>2022-07-16T07:40:43Z</time>
      </trkpt>
      <trkpt lat="44.71534" lon="7.06307">
        <ele>2880</ele>
        <time>2022-07-16T07:40:50Z</time>
      </trkpt>
      <trkpt lat="44.71535" lon="7.06313">
        <ele>2879</ele>
        <time>2022-07-16T07:40:56Z</time>
      </trkpt>
      <trkpt lat="44.71536" lon="7.06318">
        <ele>2880</ele>
        <time>2022-07-16T07:41:03Z</time>
      </trkpt>
      <trkpt lat="44.71536" lon="7.06342">
        <ele>2880</ele>
        <time>2022-07-16T07:41:29Z</time>
      </trkpt>
      <trkpt lat="44.71534" lon="7.06349">
        <ele>2879</ele>
        <time>2022-07-16T07:41:37Z</time>
      </trkpt>
      <trkpt lat="44.71535" lon="7.06354">
        <ele>2882</ele>
        <time>2022-07-16T07:41:52Z</time>
      </trkpt>
      <trkpt lat="44.71536" lon="7.0636">
        <ele>2885</ele>
        <time>2022-07-16T07:42:02Z</time>
      </trkpt>
      <trkpt lat="44.71536" lon="7.06364">
        <ele>2891</ele>
        <time>2022-07-16T07:47:27Z</time>
      </trkpt>
      <trkpt lat="44.71536" lon="7.06373">
        <ele>2890</ele>
        <time>2022-07-16T07:48:07Z</time>
      </trkpt>
      <trkpt lat="44.71533" lon="7.06376">
        <ele>2889</ele>
        <time>2022-07-16T07:48:14Z</time>
      </trkpt>
      <trkpt lat="44.71534" lon="7.06381">
        <ele>2889</ele>
        <time>2022-07-16T07:48:23Z</time>
      </trkpt>
      <trkpt lat="44.71533" lon="7.06396">
        <ele>2891</ele>
        <time>2022-07-16T07:48:52Z</time>
      </trkpt>
      <trkpt lat="44.7153" lon="7.06398">
        <ele>2892</ele>
        <time>2022-07-16T07:49:00Z</time>
      </trkpt>
      <trkpt lat="44.71525" lon="7.06408">
        <ele>2894</ele>
        <time>2022-07-16T07:49:21Z</time>
      </trkpt>
      <trkpt lat="44.71527" lon="7.06421">
        <ele>2896</ele>
        <time>2022-07-16T07:50:00Z</time>
      </trkpt>
      <trkpt lat="44.71529" lon="7.06426">
        <ele>2901</ele>
        <time>2022-07-16T07:50:19Z</time>
      </trkpt>
      <trkpt lat="44.71528" lon="7.06431">
        <ele>2903</ele>
        <time>2022-07-16T07:50:34Z</time>
      </trkpt>
      <trkpt lat="44.71524" lon="7.06432">
        <ele>2903</ele>
        <time>2022-07-16T07:50:51Z</time>
      </trkpt>
      <trkpt lat="44.71518" lon="7.06439">
        <ele>2903</ele>
        <time>2022-07-16T07:51:28Z</time>
      </trkpt>
      <trkpt lat="44.71521" lon="7.0644">
        <ele>2907</ele>
        <time>2022-07-16T07:51:52Z</time>
      </trkpt>
      <trkpt lat="44.71521" lon="7.06446">
        <ele>2908</ele>
        <time>2022-07-16T07:52:07Z</time>
      </trkpt>
      <trkpt lat="44.71523" lon="7.06451">
        <ele>2911</ele>
        <time>2022-07-16T07:52:21Z</time>
      </trkpt>
      <trkpt lat="44.71523" lon="7.06456">
        <ele>2913</ele>
        <time>2022-07-16T07:53:16Z</time>
      </trkpt>
      <trkpt lat="44.71522" lon="7.06461">
        <ele>2915</ele>
        <time>2022-07-16T07:53:30Z</time>
      </trkpt>
      <trkpt lat="44.71524" lon="7.06465">
        <ele>2915</ele>
        <time>2022-07-16T07:54:30Z</time>
      </trkpt>
      <trkpt lat="44.71524" lon="7.0647">
        <ele>2918</ele>
        <time>2022-07-16T07:54:38Z</time>
      </trkpt>
      <trkpt lat="44.71525" lon="7.06475">
        <ele>2919</ele>
        <time>2022-07-16T07:54:47Z</time>
      </trkpt>
      <trkpt lat="44.71525" lon="7.0648">
        <ele>2923</ele>
        <time>2022-07-16T07:54:58Z</time>
      </trkpt>
      <trkpt lat="44.71526" lon="7.06485">
        <ele>2924</ele>
        <time>2022-07-16T07:55:10Z</time>
      </trkpt>
      <trkpt lat="44.71526" lon="7.0649">
        <ele>2929</ele>
        <time>2022-07-16T07:55:18Z</time>
      </trkpt>
      <trkpt lat="44.71526" lon="7.06494">
        <ele>2932</ele>
        <time>2022-07-16T07:55:32Z</time>
      </trkpt>
      <trkpt lat="44.71532" lon="7.06498">
        <ele>2941</ele>
        <time>2022-07-16T07:56:14Z</time>
      </trkpt>
      <trkpt lat="44.71533" lon="7.06503">
        <ele>2941</ele>
        <time>2022-07-16T07:56:22Z</time>
      </trkpt>
      <trkpt lat="44.71533" lon="7.06508">
        <ele>2942</ele>
        <time>2022-07-16T07:56:31Z</time>
      </trkpt>
      <trkpt lat="44.71535" lon="7.06513">
        <ele>2941</ele>
        <time>2022-07-16T07:56:42Z</time>
      </trkpt>
      <trkpt lat="44.71533" lon="7.06517">
        <ele>2941</ele>
        <time>2022-07-16T07:56:54Z</time>
      </trkpt>
      <trkpt lat="44.7153" lon="7.0652">
        <ele>2942</ele>
        <time>2022-07-16T07:57:11Z</time>
      </trkpt>
      <trkpt lat="44.71534" lon="7.06525">
        <ele>2942</ele>
        <time>2022-07-16T07:57:18Z</time>
      </trkpt>
      <trkpt lat="44.71533" lon="7.06531">
        <ele>2947</ele>
        <time>2022-07-16T07:57:34Z</time>
      </trkpt>
      <trkpt lat="44.71529" lon="7.06533">
        <ele>2948</ele>
        <time>2022-07-16T07:57:43Z</time>
      </trkpt>
      <trkpt lat="44.71532" lon="7.06537">
        <ele>2953</ele>
        <time>2022-07-16T07:58:10Z</time>
      </trkpt>
      <trkpt lat="44.71536" lon="7.06538">
        <ele>2955</ele>
        <time>2022-07-16T07:58:23Z</time>
      </trkpt>
      <trkpt lat="44.71534" lon="7.06543">
        <ele>2958</ele>
        <time>2022-07-16T07:58:37Z</time>
      </trkpt>
      <trkpt lat="44.71532" lon="7.06548">
        <ele>2961</ele>
        <time>2022-07-16T07:58:46Z</time>
      </trkpt>
      <trkpt lat="44.71535" lon="7.0655">
        <ele>2963</ele>
        <time>2022-07-16T07:59:02Z</time>
      </trkpt>
      <trkpt lat="44.7154" lon="7.06553">
        <ele>2966</ele>
        <time>2022-07-16T07:59:17Z</time>
      </trkpt>
      <trkpt lat="44.71537" lon="7.06557">
        <ele>2968</ele>
        <time>2022-07-16T07:59:22Z</time>
      </trkpt>
      <trkpt lat="44.71535" lon="7.06562">
        <ele>2966</ele>
        <time>2022-07-16T07:59:43Z</time>
      </trkpt>
      <trkpt lat="44.71539" lon="7.06563">
        <ele>2965</ele>
        <time>2022-07-16T08:00:13Z</time>
      </trkpt>
      <trkpt lat="44.71542" lon="7.06564">
        <ele>2972</ele>
        <time>2022-07-16T08:01:04Z</time>
      </trkpt>
      <trkpt lat="44.71543" lon="7.06569">
        <ele>2972</ele>
        <time>2022-07-16T08:01:11Z</time>
      </trkpt>
      <trkpt lat="44.71547" lon="7.06571">
        <ele>2976</ele>
        <time>2022-07-16T08:01:29Z</time>
      </trkpt>
      <trkpt lat="44.71549" lon="7.06574">
        <ele>2983</ele>
        <time>2022-07-16T08:01:54Z</time>
      </trkpt>
      <trkpt lat="44.71553" lon="7.06573">
        <ele>2989</ele>
        <time>2022-07-16T08:02:07Z</time>
      </trkpt>
      <trkpt lat="44.71554" lon="7.06578">
        <ele>2990</ele>
        <time>2022-07-16T08:02:12Z</time>
      </trkpt>
      <trkpt lat="44.71553" lon="7.06582">
        <ele>2991</ele>
        <time>2022-07-16T08:02:17Z</time>
      </trkpt>
      <trkpt lat="44.7155" lon="7.06584">
        <ele>2992</ele>
        <time>2022-07-16T08:02:21Z</time>
      </trkpt>
      <trkpt lat="44.7155" lon="7.06589">
        <ele>2991</ele>
        <time>2022-07-16T08:02:31Z</time>
      </trkpt>
      <trkpt lat="44.7155" lon="7.06594">
        <ele>2993</ele>
        <time>2022-07-16T08:02:54Z</time>
      </trkpt>
      <trkpt lat="44.71554" lon="7.06593">
        <ele>2997</ele>
        <time>2022-07-16T08:03:03Z</time>
      </trkpt>
      <trkpt lat="44.71557" lon="7.06595">
        <ele>2999</ele>
        <time>2022-07-16T08:03:19Z</time>
      </trkpt>
      <trkpt lat="44.7156" lon="7.06595">
        <ele>3001</ele>
        <time>2022-07-16T08:03:48Z</time>
      </trkpt>
      <trkpt lat="44.71564" lon="7.06599">
        <ele>3002</ele>
        <time>2022-07-16T08:04:00Z</time>
      </trkpt>
      <trkpt lat="44.71567" lon="7.06601">
        <ele>3001</ele>
        <time>2022-07-16T08:04:18Z</time>
      </trkpt>
      <trkpt lat="44.71565" lon="7.06605">
        <ele>3002</ele>
        <time>2022-07-16T08:04:26Z</time>
      </trkpt>
      <trkpt lat="44.71568" lon="7.06609">
        <ele>3006</ele>
        <time>2022-07-16T08:05:12Z</time>
      </trkpt>
      <trkpt lat="44.7157" lon="7.06612">
        <ele>3012</ele>
        <time>2022-07-16T08:05:40Z</time>
      </trkpt>
      <trkpt lat="44.71571" lon="7.06617">
        <ele>3012</ele>
        <time>2022-07-16T08:05:45Z</time>
      </trkpt>
      <trkpt lat="44.71565" lon="7.06621">
        <ele>3018</ele>
        <time>2022-07-16T08:06:02Z</time>
      </trkpt>
      <trkpt lat="44.71562" lon="7.06622">
        <ele>3021</ele>
        <time>2022-07-16T08:06:13Z</time>
      </trkpt>
      <trkpt lat="44.71563" lon="7.06627">
        <ele>3021</ele>
        <time>2022-07-16T08:06:39Z</time>
      </trkpt>
      <trkpt lat="44.71565" lon="7.06632">
        <ele>3025</ele>
        <time>2022-07-16T08:07:01Z</time>
      </trkpt>
      <trkpt lat="44.71567" lon="7.06636">
        <ele>3026</ele>
        <time>2022-07-16T08:07:11Z</time>
      </trkpt>
      <trkpt lat="44.71565" lon="7.06641">
        <ele>3026</ele>
        <time>2022-07-16T08:07:22Z</time>
      </trkpt>
      <trkpt lat="44.71563" lon="7.06644">
        <ele>3026</ele>
        <time>2022-07-16T08:07:39Z</time>
      </trkpt>
      <trkpt lat="44.71564" lon="7.06646">
        <ele>3031</ele>
        <time>2022-07-16T08:08:58Z</time>
      </trkpt>
      <trkpt lat="44.71568" lon="7.06649">
        <ele>3031</ele>
        <time>2022-07-16T08:11:49Z</time>
      </trkpt>
      <trkpt lat="44.71571" lon="7.06651">
        <ele>3041</ele>
        <time>2022-07-16T08:13:00Z</time>
      </trkpt>
      <trkpt lat="44.7157" lon="7.06656">
        <ele>3042</ele>
        <time>2022-07-16T08:13:21Z</time>
      </trkpt>
      <trkpt lat="44.7157" lon="7.06661">
        <ele>3046</ele>
        <time>2022-07-16T08:13:38Z</time>
      </trkpt>
      <trkpt lat="44.71573" lon="7.06664">
        <ele>3049</ele>
        <time>2022-07-16T08:14:17Z</time>
      </trkpt>
      <trkpt lat="44.71576" lon="7.06664">
        <ele>3052</ele>
        <time>2022-07-16T08:14:35Z</time>
      </trkpt>
      <trkpt lat="44.7158" lon="7.06666">
        <ele>3053</ele>
        <time>2022-07-16T08:14:44Z</time>
      </trkpt>
      <trkpt lat="44.71583" lon="7.0667">
        <ele>3057</ele>
        <time>2022-07-16T08:15:02Z</time>
      </trkpt>
      <trkpt lat="44.71585" lon="7.06674">
        <ele>3058</ele>
        <time>2022-07-16T08:15:13Z</time>
      </trkpt>
      <trkpt lat="44.71588" lon="7.06676">
        <ele>3060</ele>
        <time>2022-07-16T08:15:34Z</time>
      </trkpt>
      <trkpt lat="44.71592" lon="7.06675">
        <ele>3062</ele>
        <time>2022-07-16T08:15:53Z</time>
      </trkpt>
      <trkpt lat="44.71595" lon="7.06678">
        <ele>3067</ele>
        <time>2022-07-16T08:16:33Z</time>
      </trkpt>
      <trkpt lat="44.71596" lon="7.06682">
        <ele>3068</ele>
        <time>2022-07-16T08:16:49Z</time>
      </trkpt>
      <trkpt lat="44.71599" lon="7.06687">
        <ele>3071</ele>
        <time>2022-07-16T08:17:05Z</time>
      </trkpt>
      <trkpt lat="44.71602" lon="7.06688">
        <ele>3072</ele>
        <time>2022-07-16T08:17:27Z</time>
      </trkpt>
      <trkpt lat="44.71602" lon="7.06693">
        <ele>3075</ele>
        <time>2022-07-16T08:17:38Z</time>
      </trkpt>
      <trkpt lat="44.71605" lon="7.06692">
        <ele>3077</ele>
        <time>2022-07-16T08:17:53Z</time>
      </trkpt>
      <trkpt lat="44.71609" lon="7.06693">
        <ele>3080</ele>
        <time>2022-07-16T08:18:10Z</time>
      </trkpt>
      <trkpt lat="44.71612" lon="7.06694">
        <ele>3080</ele>
        <time>2022-07-16T08:18:23Z</time>
      </trkpt>
      <trkpt lat="44.71613" lon="7.06699">
        <ele>3082</ele>
        <time>2022-07-16T08:18:39Z</time>
      </trkpt>
      <trkpt lat="44.71614" lon="7.06704">
        <ele>3089</ele>
        <time>2022-07-16T08:19:37Z</time>
      </trkpt>
      <trkpt lat="44.71613" lon="7.06708">
        <ele>3090</ele>
        <time>2022-07-16T08:19:44Z</time>
      </trkpt>
      <trkpt lat="44.71617" lon="7.06708">
        <ele>3094</ele>
        <time>2022-07-16T08:20:11Z</time>
      </trkpt>
      <trkpt lat="44.71619" lon="7.06712">
        <ele>3096</ele>
        <time>2022-07-16T08:20:30Z</time>
      </trkpt>
      <trkpt lat="44.71622" lon="7.06714">
        <ele>3097</ele>
        <time>2022-07-16T08:21:04Z</time>
      </trkpt>
      <trkpt lat="44.71625" lon="7.06718">
        <ele>3100</ele>
        <time>2022-07-16T08:21:14Z</time>
      </trkpt>
      <trkpt lat="44.71625" lon="7.06723">
        <ele>3102</ele>
        <time>2022-07-16T08:22:53Z</time>
      </trkpt>
      <trkpt lat="44.71628" lon="7.06726">
        <ele>3111</ele>
        <time>2022-07-16T08:23:53Z</time>
      </trkpt>
      <trkpt lat="44.7163" lon="7.06729">
        <ele>3113</ele>
        <time>2022-07-16T08:24:48Z</time>
      </trkpt>
      <trkpt lat="44.71633" lon="7.06732">
        <ele>3115</ele>
        <time>2022-07-16T08:25:02Z</time>
      </trkpt>
      <trkpt lat="44.71636" lon="7.06735">
        <ele>3121</ele>
        <time>2022-07-16T08:25:35Z</time>
      </trkpt>
      <trkpt lat="44.71639" lon="7.06738">
        <ele>3125</ele>
        <time>2022-07-16T08:26:03Z</time>
      </trkpt>
      <trkpt lat="44.71643" lon="7.06735">
        <ele>3126</ele>
        <time>2022-07-16T08:26:30Z</time>
      </trkpt>
      <trkpt lat="44.71646" lon="7.06733">
        <ele>3127</ele>
        <time>2022-07-16T08:26:38Z</time>
      </trkpt>
      <trkpt lat="44.71646" lon="7.06735">
        <ele>3127</ele>
        <time>2022-07-16T08:26:49Z</time>
      </trkpt>
      <trkpt lat="44.71645" lon="7.0674">
        <ele>3130</ele>
        <time>2022-07-16T08:27:12Z</time>
      </trkpt>
      <trkpt lat="44.71648" lon="7.06743">
        <ele>3133</ele>
        <time>2022-07-16T08:27:23Z</time>
      </trkpt>
      <trkpt lat="44.71645" lon="7.06746">
        <ele>3135</ele>
        <time>2022-07-16T08:27:30Z</time>
      </trkpt>
      <trkpt lat="44.71648" lon="7.0675">
        <ele>3136</ele>
        <time>2022-07-16T08:27:41Z</time>
      </trkpt>
      <trkpt lat="44.7165" lon="7.06747">
        <ele>3137</ele>
        <time>2022-07-16T08:28:02Z</time>
      </trkpt>
      <trkpt lat="44.71653" lon="7.06749">
        <ele>3139</ele>
        <time>2022-07-16T08:28:08Z</time>
      </trkpt>
      <trkpt lat="44.71655" lon="7.06745">
        <ele>3139</ele>
        <time>2022-07-16T08:28:13Z</time>
      </trkpt>
      <trkpt lat="44.71655" lon="7.06739">
        <ele>3141</ele>
        <time>2022-07-16T08:28:17Z</time>
      </trkpt>
      <trkpt lat="44.71657" lon="7.06735">
        <ele>3142</ele>
        <time>2022-07-16T08:28:22Z</time>
      </trkpt>
      <trkpt lat="44.71651" lon="7.0673">
        <ele>3147</ele>
        <time>2022-07-16T08:28:33Z</time>
      </trkpt>
      <trkpt lat="44.71653" lon="7.06734">
        <ele>3146</ele>
        <time>2022-07-16T08:28:45Z</time>
      </trkpt>
      <trkpt lat="44.71655" lon="7.06739">
        <ele>3146</ele>
        <time>2022-07-16T08:28:50Z</time>
      </trkpt>
      <trkpt lat="44.71653" lon="7.06745">
        <ele>3145</ele>
        <time>2022-07-16T08:28:58Z</time>
      </trkpt>
      <trkpt lat="44.71655" lon="7.06746">
        <ele>3145</ele>
        <time>2022-07-16T08:29:18Z</time>
      </trkpt>
      <trkpt lat="44.71659" lon="7.06748">
        <ele>3146</ele>
        <time>2022-07-16T08:29:48Z</time>
      </trkpt>
      <trkpt lat="44.71666" lon="7.06744">
        <ele>3147</ele>
        <time>2022-07-16T08:30:06Z</time>
      </trkpt>
      <trkpt lat="44.71669" lon="7.06748">
        <ele>3147</ele>
        <time>2022-07-16T08:30:12Z</time>
      </trkpt>
      <trkpt lat="44.71673" lon="7.06746">
        <ele>3147</ele>
        <time>2022-07-16T08:30:17Z</time>
      </trkpt>
      <trkpt lat="44.71673" lon="7.06751">
        <ele>3148</ele>
        <time>2022-07-16T08:30:20Z</time>
      </trkpt>
      <trkpt lat="44.71673" lon="7.06757">
        <ele>3149</ele>
        <time>2022-07-16T08:30:31Z</time>
      </trkpt>
      <trkpt lat="44.71671" lon="7.06761">
        <ele>3151</ele>
        <time>2022-07-16T08:30:35Z</time>
      </trkpt>
      <trkpt lat="44.71669" lon="7.06765">
        <ele>3152</ele>
        <time>2022-07-16T08:30:45Z</time>
      </trkpt>
      <trkpt lat="44.71668" lon="7.06765">
        <ele>3159</ele>
        <time>2022-07-16T08:31:49Z</time>
      </trkpt>
      <trkpt lat="44.71667" lon="7.06761">
        <ele>3159</ele>
        <time>2022-07-16T08:31:54Z</time>
      </trkpt>
      <trkpt lat="44.71666" lon="7.06755">
        <ele>3160</ele>
        <time>2022-07-16T08:32:17Z</time>
      </trkpt>
      <trkpt lat="44.71669" lon="7.06756">
        <ele>3162</ele>
        <time>2022-07-16T08:32:31Z</time>
      </trkpt>
      <trkpt lat="44.71672" lon="7.06753">
        <ele>3163</ele>
        <time>2022-07-16T08:33:05Z</time>
      </trkpt>
      <trkpt lat="44.71674" lon="7.06748">
        <ele>3165</ele>
        <time>2022-07-16T08:33:10Z</time>
      </trkpt>
      <trkpt lat="44.71675" lon="7.06754">
        <ele>3165</ele>
        <time>2022-07-16T08:33:23Z</time>
      </trkpt>
      <trkpt lat="44.71679" lon="7.06753">
        <ele>3173</ele>
        <time>2022-07-16T08:35:24Z</time>
      </trkpt>
      <trkpt lat="44.71678" lon="7.06755">
        <ele>3176</ele>
        <time>2022-07-16T08:48:17Z</time>
      </trkpt>
      <trkpt lat="44.71675" lon="7.06754">
        <ele>3176</ele>
        <time>2022-07-16T08:48:51Z</time>
      </trkpt>
      <trkpt lat="44.71674" lon="7.06754">
        <ele>3175</ele>
        <time>2022-07-16T08:49:46Z</time>
      </trkpt>
      <trkpt lat="44.71672" lon="7.06758">
        <ele>3167</ele>
        <time>2022-07-16T08:50:30Z</time>
      </trkpt>
      <trkpt lat="44.71668" lon="7.06756">
        <ele>3166</ele>
        <time>2022-07-16T08:50:53Z</time>
      </trkpt>
      <trkpt lat="44.71665" lon="7.06759">
        <ele>3159</ele>
        <time>2022-07-16T08:51:42Z</time>
      </trkpt>
      <trkpt lat="44.71664" lon="7.06754">
        <ele>3158</ele>
        <time>2022-07-16T08:51:46Z</time>
      </trkpt>
      <trkpt lat="44.71662" lon="7.0675">
        <ele>3155</ele>
        <time>2022-07-16T08:51:58Z</time>
      </trkpt>
      <trkpt lat="44.71659" lon="7.06748">
        <ele>3153</ele>
        <time>2022-07-16T08:52:14Z</time>
      </trkpt>
      <trkpt lat="44.71657" lon="7.06752">
        <ele>3152</ele>
        <time>2022-07-16T08:52:50Z</time>
      </trkpt>
      <trkpt lat="44.71655" lon="7.06749">
        <ele>3151</ele>
        <time>2022-07-16T08:53:06Z</time>
      </trkpt>
      <trkpt lat="44.71652" lon="7.06746">
        <ele>3148</ele>
        <time>2022-07-16T08:55:43Z</time>
      </trkpt>
      <trkpt lat="44.71643" lon="7.06747">
        <ele>3146</ele>
        <time>2022-07-16T08:59:57Z</time>
      </trkpt>
      <trkpt lat="44.71639" lon="7.06747">
        <ele>3146</ele>
        <time>2022-07-16T09:00:09Z</time>
      </trkpt>
      <trkpt lat="44.71641" lon="7.06742">
        <ele>3144</ele>
        <time>2022-07-16T09:00:21Z</time>
      </trkpt>
      <trkpt lat="44.71638" lon="7.06738">
        <ele>3136</ele>
        <time>2022-07-16T09:01:25Z</time>
      </trkpt>
      <trkpt lat="44.71639" lon="7.06734">
        <ele>3134</ele>
        <time>2022-07-16T09:01:32Z</time>
      </trkpt>
      <trkpt lat="44.71636" lon="7.06735">
        <ele>3129</ele>
        <time>2022-07-16T09:01:59Z</time>
      </trkpt>
      <trkpt lat="44.71634" lon="7.06731">
        <ele>3128</ele>
        <time>2022-07-16T09:02:10Z</time>
      </trkpt>
      <trkpt lat="44.71632" lon="7.06735">
        <ele>3121</ele>
        <time>2022-07-16T09:02:24Z</time>
      </trkpt>
      <trkpt lat="44.71629" lon="7.06739">
        <ele>3122</ele>
        <time>2022-07-16T09:02:28Z</time>
      </trkpt>
      <trkpt lat="44.71626" lon="7.06737">
        <ele>3121</ele>
        <time>2022-07-16T09:02:36Z</time>
      </trkpt>
      <trkpt lat="44.71625" lon="7.06732">
        <ele>3121</ele>
        <time>2022-07-16T09:02:49Z</time>
      </trkpt>
      <trkpt lat="44.71625" lon="7.06727">
        <ele>3117</ele>
        <time>2022-07-16T09:03:59Z</time>
      </trkpt>
      <trkpt lat="44.71622" lon="7.06726">
        <ele>3116</ele>
        <time>2022-07-16T09:04:57Z</time>
      </trkpt>
      <trkpt lat="44.71618" lon="7.06724">
        <ele>3112</ele>
        <time>2022-07-16T09:05:18Z</time>
      </trkpt>
      <trkpt lat="44.71618" lon="7.06719">
        <ele>3112</ele>
        <time>2022-07-16T09:05:33Z</time>
      </trkpt>
      <trkpt lat="44.71616" lon="7.06715">
        <ele>3104</ele>
        <time>2022-07-16T09:06:59Z</time>
      </trkpt>
      <trkpt lat="44.71613" lon="7.06712">
        <ele>3103</ele>
        <time>2022-07-16T09:07:29Z</time>
      </trkpt>
      <trkpt lat="44.71611" lon="7.06708">
        <ele>3099</ele>
        <time>2022-07-16T09:07:43Z</time>
      </trkpt>
      <trkpt lat="44.71613" lon="7.06703">
        <ele>3098</ele>
        <time>2022-07-16T09:07:52Z</time>
      </trkpt>
      <trkpt lat="44.7161" lon="7.06701">
        <ele>3096</ele>
        <time>2022-07-16T09:08:14Z</time>
      </trkpt>
      <trkpt lat="44.71608" lon="7.06697">
        <ele>3087</ele>
        <time>2022-07-16T09:09:11Z</time>
      </trkpt>
      <trkpt lat="44.71608" lon="7.06691">
        <ele>3085</ele>
        <time>2022-07-16T09:09:21Z</time>
      </trkpt>
      <trkpt lat="44.71604" lon="7.06689">
        <ele>3083</ele>
        <time>2022-07-16T09:09:35Z</time>
      </trkpt>
      <trkpt lat="44.71601" lon="7.06692">
        <ele>3083</ele>
        <time>2022-07-16T09:09:47Z</time>
      </trkpt>
      <trkpt lat="44.71598" lon="7.06693">
        <ele>3079</ele>
        <time>2022-07-16T09:09:55Z</time>
      </trkpt>
      <trkpt lat="44.71595" lon="7.06689">
        <ele>3079</ele>
        <time>2022-07-16T09:10:01Z</time>
      </trkpt>
      <trkpt lat="44.71594" lon="7.06684">
        <ele>3078</ele>
        <time>2022-07-16T09:10:16Z</time>
      </trkpt>
      <trkpt lat="44.71593" lon="7.0668">
        <ele>3074</ele>
        <time>2022-07-16T09:10:43Z</time>
      </trkpt>
      <trkpt lat="44.71591" lon="7.06676">
        <ele>3072</ele>
        <time>2022-07-16T09:10:59Z</time>
      </trkpt>
      <trkpt lat="44.71587" lon="7.06675">
        <ele>3070</ele>
        <time>2022-07-16T09:11:19Z</time>
      </trkpt>
      <trkpt lat="44.71585" lon="7.06672">
        <ele>3065</ele>
        <time>2022-07-16T09:11:29Z</time>
      </trkpt>
      <trkpt lat="44.71581" lon="7.06671">
        <ele>3061</ele>
        <time>2022-07-16T09:12:37Z</time>
      </trkpt>
      <trkpt lat="44.71577" lon="7.06671">
        <ele>3056</ele>
        <time>2022-07-16T09:12:45Z</time>
      </trkpt>
      <trkpt lat="44.71576" lon="7.06667">
        <ele>3054</ele>
        <time>2022-07-16T09:12:53Z</time>
      </trkpt>
      <trkpt lat="44.71573" lon="7.06664">
        <ele>3051</ele>
        <time>2022-07-16T09:13:18Z</time>
      </trkpt>
      <trkpt lat="44.7157" lon="7.06665">
        <ele>3050</ele>
        <time>2022-07-16T09:13:26Z</time>
      </trkpt>
      <trkpt lat="44.71567" lon="7.06663">
        <ele>3049</ele>
        <time>2022-07-16T09:13:40Z</time>
      </trkpt>
      <trkpt lat="44.71563" lon="7.06661">
        <ele>3045</ele>
        <time>2022-07-16T09:14:33Z</time>
      </trkpt>
      <trkpt lat="44.7156" lon="7.06662">
        <ele>3045</ele>
        <time>2022-07-16T09:14:41Z</time>
      </trkpt>
      <trkpt lat="44.71557" lon="7.06663">
        <ele>3045</ele>
        <time>2022-07-16T09:14:46Z</time>
      </trkpt>
      <trkpt lat="44.71554" lon="7.0666">
        <ele>3045</ele>
        <time>2022-07-16T09:14:54Z</time>
      </trkpt>
      <trkpt lat="44.71551" lon="7.06656">
        <ele>3043</ele>
        <time>2022-07-16T09:15:22Z</time>
      </trkpt>
      <trkpt lat="44.71548" lon="7.06655">
        <ele>3042</ele>
        <time>2022-07-16T09:15:54Z</time>
      </trkpt>
      <trkpt lat="44.71545" lon="7.06652">
        <ele>3040</ele>
        <time>2022-07-16T09:16:02Z</time>
      </trkpt>
      <trkpt lat="44.71543" lon="7.06647">
        <ele>3039</ele>
        <time>2022-07-16T09:16:10Z</time>
      </trkpt>
      <trkpt lat="44.71546" lon="7.06645">
        <ele>3038</ele>
        <time>2022-07-16T09:17:28Z</time>
      </trkpt>
      <trkpt lat="44.71557" lon="7.0664">
        <ele>3034</ele>
        <time>2022-07-16T09:17:57Z</time>
      </trkpt>
      <trkpt lat="44.7156" lon="7.06637">
        <ele>3033</ele>
        <time>2022-07-16T09:18:14Z</time>
      </trkpt>
      <trkpt lat="44.71563" lon="7.06637">
        <ele>3032</ele>
        <time>2022-07-16T09:18:21Z</time>
      </trkpt>
      <trkpt lat="44.71562" lon="7.06633">
        <ele>3031</ele>
        <time>2022-07-16T09:18:37Z</time>
      </trkpt>
      <trkpt lat="44.71559" lon="7.06631">
        <ele>3031</ele>
        <time>2022-07-16T09:18:44Z</time>
      </trkpt>
      <trkpt lat="44.71559" lon="7.06626">
        <ele>3029</ele>
        <time>2022-07-16T09:18:55Z</time>
      </trkpt>
      <trkpt lat="44.7156" lon="7.06622">
        <ele>3027</ele>
        <time>2022-07-16T09:19:08Z</time>
      </trkpt>
      <trkpt lat="44.7156" lon="7.06617">
        <ele>3024</ele>
        <time>2022-07-16T09:19:23Z</time>
      </trkpt>
      <trkpt lat="44.71564" lon="7.06614">
        <ele>3024</ele>
        <time>2022-07-16T09:19:35Z</time>
      </trkpt>
      <trkpt lat="44.71565" lon="7.0661">
        <ele>3021</ele>
        <time>2022-07-16T09:20:04Z</time>
      </trkpt>
      <trkpt lat="44.71561" lon="7.0661">
        <ele>3020</ele>
        <time>2022-07-16T09:20:20Z</time>
      </trkpt>
      <trkpt lat="44.71563" lon="7.06605">
        <ele>3019</ele>
        <time>2022-07-16T09:20:30Z</time>
      </trkpt>
      <trkpt lat="44.7156" lon="7.06604">
        <ele>3015</ele>
        <time>2022-07-16T09:20:46Z</time>
      </trkpt>
      <trkpt lat="44.71561" lon="7.06599">
        <ele>3014</ele>
        <time>2022-07-16T09:20:55Z</time>
      </trkpt>
      <trkpt lat="44.71557" lon="7.06596">
        <ele>3013</ele>
        <time>2022-07-16T09:21:07Z</time>
      </trkpt>
      <trkpt lat="44.71557" lon="7.06591">
        <ele>3010</ele>
        <time>2022-07-16T09:21:33Z</time>
      </trkpt>
      <trkpt lat="44.71554" lon="7.06589">
        <ele>3007</ele>
        <time>2022-07-16T09:21:42Z</time>
      </trkpt>
      <trkpt lat="44.71551" lon="7.06587">
        <ele>3004</ele>
        <time>2022-07-16T09:21:58Z</time>
      </trkpt>
      <trkpt lat="44.7155" lon="7.06586">
        <ele>2999</ele>
        <time>2022-07-16T09:23:31Z</time>
      </trkpt>
      <trkpt lat="44.71548" lon="7.06582">
        <ele>2994</ele>
        <time>2022-07-16T09:23:55Z</time>
      </trkpt>
      <trkpt lat="44.7155" lon="7.06578">
        <ele>2994</ele>
        <time>2022-07-16T09:24:13Z</time>
      </trkpt>
      <trkpt lat="44.71552" lon="7.06573">
        <ele>2994</ele>
        <time>2022-07-16T09:24:24Z</time>
      </trkpt>
      <trkpt lat="44.71548" lon="7.06571">
        <ele>2994</ele>
        <time>2022-07-16T09:24:52Z</time>
      </trkpt>
      <trkpt lat="44.71546" lon="7.06566">
        <ele>2992</ele>
        <time>2022-07-16T09:25:13Z</time>
      </trkpt>
      <trkpt lat="44.71543" lon="7.06562">
        <ele>2991</ele>
        <time>2022-07-16T09:25:20Z</time>
      </trkpt>
      <trkpt lat="44.7154" lon="7.0656">
        <ele>2989</ele>
        <time>2022-07-16T09:25:36Z</time>
      </trkpt>
      <trkpt lat="44.71541" lon="7.06556">
        <ele>2987</ele>
        <time>2022-07-16T09:25:54Z</time>
      </trkpt>
      <trkpt lat="44.71537" lon="7.06556">
        <ele>2981</ele>
        <time>2022-07-16T09:26:37Z</time>
      </trkpt>
      <trkpt lat="44.71533" lon="7.06556">
        <ele>2980</ele>
        <time>2022-07-16T09:26:48Z</time>
      </trkpt>
      <trkpt lat="44.7153" lon="7.06554">
        <ele>2976</ele>
        <time>2022-07-16T09:26:57Z</time>
      </trkpt>
      <trkpt lat="44.71527" lon="7.06551">
        <ele>2974</ele>
        <time>2022-07-16T09:27:28Z</time>
      </trkpt>
      <trkpt lat="44.71525" lon="7.06546">
        <ele>2973</ele>
        <time>2022-07-16T09:27:35Z</time>
      </trkpt>
      <trkpt lat="44.71519" lon="7.06541">
        <ele>2969</ele>
        <time>2022-07-16T09:28:04Z</time>
      </trkpt>
      <trkpt lat="44.71517" lon="7.06537">
        <ele>2968</ele>
        <time>2022-07-16T09:28:10Z</time>
      </trkpt>
      <trkpt lat="44.71513" lon="7.06535">
        <ele>2967</ele>
        <time>2022-07-16T09:28:15Z</time>
      </trkpt>
      <trkpt lat="44.7151" lon="7.06532">
        <ele>2966</ele>
        <time>2022-07-16T09:28:28Z</time>
      </trkpt>
      <trkpt lat="44.71506" lon="7.06534">
        <ele>2966</ele>
        <time>2022-07-16T09:28:45Z</time>
      </trkpt>
      <trkpt lat="44.71501" lon="7.06535">
        <ele>2963</ele>
        <time>2022-07-16T09:28:56Z</time>
      </trkpt>
      <trkpt lat="44.71499" lon="7.06529">
        <ele>2962</ele>
        <time>2022-07-16T09:29:08Z</time>
      </trkpt>
      <trkpt lat="44.715" lon="7.06525">
        <ele>2961</ele>
        <time>2022-07-16T09:29:15Z</time>
      </trkpt>
      <trkpt lat="44.71495" lon="7.06524">
        <ele>2959</ele>
        <time>2022-07-16T09:29:29Z</time>
      </trkpt>
      <trkpt lat="44.71492" lon="7.06521">
        <ele>2955</ele>
        <time>2022-07-16T09:29:36Z</time>
      </trkpt>
      <trkpt lat="44.71488" lon="7.06518">
        <ele>2954</ele>
        <time>2022-07-16T09:29:44Z</time>
      </trkpt>
      <trkpt lat="44.71484" lon="7.06516">
        <ele>2951</ele>
        <time>2022-07-16T09:30:08Z</time>
      </trkpt>
      <trkpt lat="44.71482" lon="7.06514">
        <ele>2947</ele>
        <time>2022-07-16T09:33:33Z</time>
      </trkpt>
      <trkpt lat="44.71485" lon="7.06511">
        <ele>2947</ele>
        <time>2022-07-16T09:33:39Z</time>
      </trkpt>
      <trkpt lat="44.71488" lon="7.06509">
        <ele>2947</ele>
        <time>2022-07-16T09:33:44Z</time>
      </trkpt>
      <trkpt lat="44.71487" lon="7.06504">
        <ele>2939</ele>
        <time>2022-07-16T09:33:50Z</time>
      </trkpt>
      <trkpt lat="44.71476" lon="7.065">
        <ele>2940</ele>
        <time>2022-07-16T09:34:21Z</time>
      </trkpt>
      <trkpt lat="44.71472" lon="7.06501">
        <ele>2941</ele>
        <time>2022-07-16T09:34:29Z</time>
      </trkpt>
      <trkpt lat="44.71467" lon="7.06493">
        <ele>2936</ele>
        <time>2022-07-16T09:34:46Z</time>
      </trkpt>
      <trkpt lat="44.71464" lon="7.06491">
        <ele>2934</ele>
        <time>2022-07-16T09:35:02Z</time>
      </trkpt>
      <trkpt lat="44.71462" lon="7.06486">
        <ele>2931</ele>
        <time>2022-07-16T09:35:13Z</time>
      </trkpt>
      <trkpt lat="44.71459" lon="7.06486">
        <ele>2925</ele>
        <time>2022-07-16T09:35:46Z</time>
      </trkpt>
      <trkpt lat="44.71456" lon="7.06481">
        <ele>2923</ele>
        <time>2022-07-16T09:35:53Z</time>
      </trkpt>
      <trkpt lat="44.71452" lon="7.06484">
        <ele>2921</ele>
        <time>2022-07-16T09:36:02Z</time>
      </trkpt>
      <trkpt lat="44.71444" lon="7.06481">
        <ele>2917</ele>
        <time>2022-07-16T09:36:11Z</time>
      </trkpt>
      <trkpt lat="44.71442" lon="7.06477">
        <ele>2914</ele>
        <time>2022-07-16T09:36:20Z</time>
      </trkpt>
      <trkpt lat="44.7144" lon="7.06472">
        <ele>2910</ele>
        <time>2022-07-16T09:36:43Z</time>
      </trkpt>
      <trkpt lat="44.71432" lon="7.06468">
        <ele>2908</ele>
        <time>2022-07-16T09:37:10Z</time>
      </trkpt>
      <trkpt lat="44.7143" lon="7.06465">
        <ele>2912</ele>
        <time>2022-07-16T09:37:22Z</time>
      </trkpt>
      <trkpt lat="44.71427" lon="7.06461">
        <ele>2913</ele>
        <time>2022-07-16T09:37:33Z</time>
      </trkpt>
      <trkpt lat="44.7143" lon="7.06459">
        <ele>2912</ele>
        <time>2022-07-16T09:38:08Z</time>
      </trkpt>
      <trkpt lat="44.71431" lon="7.06454">
        <ele>2915</ele>
        <time>2022-07-16T09:39:25Z</time>
      </trkpt>
      <trkpt lat="44.71429" lon="7.06449">
        <ele>2915</ele>
        <time>2022-07-16T09:39:32Z</time>
      </trkpt>
      <trkpt lat="44.71432" lon="7.0644">
        <ele>2916</ele>
        <time>2022-07-16T09:39:47Z</time>
      </trkpt>
      <trkpt lat="44.71432" lon="7.06434">
        <ele>2916</ele>
        <time>2022-07-16T09:39:53Z</time>
      </trkpt>
      <trkpt lat="44.7143" lon="7.06429">
        <ele>2917</ele>
        <time>2022-07-16T09:40:02Z</time>
      </trkpt>
      <trkpt lat="44.71429" lon="7.06425">
        <ele>2918</ele>
        <time>2022-07-16T09:40:11Z</time>
      </trkpt>
      <trkpt lat="44.71426" lon="7.06421">
        <ele>2918</ele>
        <time>2022-07-16T09:40:30Z</time>
      </trkpt>
      <trkpt lat="44.71425" lon="7.06416">
        <ele>2921</ele>
        <time>2022-07-16T09:40:44Z</time>
      </trkpt>
      <trkpt lat="44.71423" lon="7.06412">
        <ele>2922</ele>
        <time>2022-07-16T09:40:51Z</time>
      </trkpt>
      <trkpt lat="44.71419" lon="7.06413">
        <ele>2923</ele>
        <time>2022-07-16T09:41:04Z</time>
      </trkpt>
      <trkpt lat="44.71416" lon="7.0641">
        <ele>2924</ele>
        <time>2022-07-16T09:41:10Z</time>
      </trkpt>
      <trkpt lat="44.71414" lon="7.06406">
        <ele>2927</ele>
        <time>2022-07-16T09:41:19Z</time>
      </trkpt>
      <trkpt lat="44.71411" lon="7.06402">
        <ele>2930</ele>
        <time>2022-07-16T09:42:17Z</time>
      </trkpt>
      <trkpt lat="44.71407" lon="7.06405">
        <ele>2931</ele>
        <time>2022-07-16T09:42:35Z</time>
      </trkpt>
      <trkpt lat="44.71403" lon="7.06402">
        <ele>2933</ele>
        <time>2022-07-16T09:42:45Z</time>
      </trkpt>
      <trkpt lat="44.714" lon="7.06406">
        <ele>2936</ele>
        <time>2022-07-16T09:42:53Z</time>
      </trkpt>
      <trkpt lat="44.714" lon="7.06404">
        <ele>2945</ele>
        <time>2022-07-16T09:51:49Z</time>
      </trkpt>
      <trkpt lat="44.714" lon="7.06399">
        <ele>2944</ele>
        <time>2022-07-16T09:52:01Z</time>
      </trkpt>
      <trkpt lat="44.71397" lon="7.06399">
        <ele>2944</ele>
        <time>2022-07-16T09:52:36Z</time>
      </trkpt>
      <trkpt lat="44.71393" lon="7.06397">
        <ele>2944</ele>
        <time>2022-07-16T09:52:50Z</time>
      </trkpt>
      <trkpt lat="44.71391" lon="7.06393">
        <ele>2944</ele>
        <time>2022-07-16T09:52:57Z</time>
      </trkpt>
      <trkpt lat="44.71388" lon="7.06392">
        <ele>2943</ele>
        <time>2022-07-16T09:53:15Z</time>
      </trkpt>
      <trkpt lat="44.71384" lon="7.0639">
        <ele>2941</ele>
        <time>2022-07-16T09:53:28Z</time>
      </trkpt>
      <trkpt lat="44.71382" lon="7.06387">
        <ele>2940</ele>
        <time>2022-07-16T09:53:51Z</time>
      </trkpt>
      <trkpt lat="44.71383" lon="7.06383">
        <ele>2940</ele>
        <time>2022-07-16T09:54:35Z</time>
      </trkpt>
      <trkpt lat="44.71379" lon="7.06378">
        <ele>2934</ele>
        <time>2022-07-16T09:55:39Z</time>
      </trkpt>
      <trkpt lat="44.71375" lon="7.06378">
        <ele>2928</ele>
        <time>2022-07-16T09:55:54Z</time>
      </trkpt>
      <trkpt lat="44.71367" lon="7.06368">
        <ele>2917</ele>
        <time>2022-07-16T09:56:38Z</time>
      </trkpt>
      <trkpt lat="44.71366" lon="7.06364">
        <ele>2916</ele>
        <time>2022-07-16T09:59:13Z</time>
      </trkpt>
      <trkpt lat="44.71365" lon="7.06359">
        <ele>2911</ele>
        <time>2022-07-16T09:59:22Z</time>
      </trkpt>
      <trkpt lat="44.71362" lon="7.06356">
        <ele>2908</ele>
        <time>2022-07-16T09:59:32Z</time>
      </trkpt>
      <trkpt lat="44.71361" lon="7.0635">
        <ele>2906</ele>
        <time>2022-07-16T09:59:44Z</time>
      </trkpt>
      <trkpt lat="44.71358" lon="7.06347">
        <ele>2904</ele>
        <time>2022-07-16T09:59:53Z</time>
      </trkpt>
      <trkpt lat="44.71356" lon="7.06343">
        <ele>2903</ele>
        <time>2022-07-16T10:00:05Z</time>
      </trkpt>
      <trkpt lat="44.71354" lon="7.06338">
        <ele>2899</ele>
        <time>2022-07-16T10:00:40Z</time>
      </trkpt>
      <trkpt lat="44.7135" lon="7.0634">
        <ele>2899</ele>
        <time>2022-07-16T10:00:48Z</time>
      </trkpt>
      <trkpt lat="44.71345" lon="7.06339">
        <ele>2897</ele>
        <time>2022-07-16T10:01:03Z</time>
      </trkpt>
      <trkpt lat="44.71342" lon="7.06343">
        <ele>2896</ele>
        <time>2022-07-16T10:01:21Z</time>
      </trkpt>
      <trkpt lat="44.71339" lon="7.06338">
        <ele>2886</ele>
        <time>2022-07-16T10:01:45Z</time>
      </trkpt>
      <trkpt lat="44.71337" lon="7.06342">
        <ele>2883</ele>
        <time>2022-07-16T10:02:08Z</time>
      </trkpt>
      <trkpt lat="44.71336" lon="7.06347">
        <ele>2882</ele>
        <time>2022-07-16T10:02:13Z</time>
      </trkpt>
      <trkpt lat="44.71336" lon="7.06352">
        <ele>2878</ele>
        <time>2022-07-16T10:02:17Z</time>
      </trkpt>
      <trkpt lat="44.71331" lon="7.0636">
        <ele>2873</ele>
        <time>2022-07-16T10:02:27Z</time>
      </trkpt>
      <trkpt lat="44.71323" lon="7.06376">
        <ele>2870</ele>
        <time>2022-07-16T10:02:46Z</time>
      </trkpt>
      <trkpt lat="44.71319" lon="7.06384">
        <ele>2869</ele>
        <time>2022-07-16T10:02:56Z</time>
      </trkpt>
      <trkpt lat="44.71316" lon="7.06387">
        <ele>2869</ele>
        <time>2022-07-16T10:03:00Z</time>
      </trkpt>
      <trkpt lat="44.71314" lon="7.06392">
        <ele>2868</ele>
        <time>2022-07-16T10:03:07Z</time>
      </trkpt>
      <trkpt lat="44.71311" lon="7.06395">
        <ele>2869</ele>
        <time>2022-07-16T10:03:13Z</time>
      </trkpt>
      <trkpt lat="44.71311" lon="7.064">
        <ele>2868</ele>
        <time>2022-07-16T10:03:19Z</time>
      </trkpt>
      <trkpt lat="44.71311" lon="7.06405">
        <ele>2868</ele>
        <time>2022-07-16T10:03:25Z</time>
      </trkpt>
      <trkpt lat="44.71312" lon="7.0641">
        <ele>2867</ele>
        <time>2022-07-16T10:03:31Z</time>
      </trkpt>
      <trkpt lat="44.71308" lon="7.06412">
        <ele>2862</ele>
        <time>2022-07-16T10:03:36Z</time>
      </trkpt>
      <trkpt lat="44.71305" lon="7.06409">
        <ele>2862</ele>
        <time>2022-07-16T10:03:42Z</time>
      </trkpt>
      <trkpt lat="44.71304" lon="7.06414">
        <ele>2864</ele>
        <time>2022-07-16T10:04:00Z</time>
      </trkpt>
      <trkpt lat="44.713" lon="7.06417">
        <ele>2864</ele>
        <time>2022-07-16T10:04:10Z</time>
      </trkpt>
      <trkpt lat="44.71299" lon="7.06423">
        <ele>2862</ele>
        <time>2022-07-16T10:04:16Z</time>
      </trkpt>
      <trkpt lat="44.71294" lon="7.06428">
        <ele>2862</ele>
        <time>2022-07-16T10:04:23Z</time>
      </trkpt>
      <trkpt lat="44.71291" lon="7.06432">
        <ele>2862</ele>
        <time>2022-07-16T10:04:31Z</time>
      </trkpt>
      <trkpt lat="44.71288" lon="7.06435">
        <ele>2863</ele>
        <time>2022-07-16T10:04:37Z</time>
      </trkpt>
      <trkpt lat="44.71286" lon="7.0644">
        <ele>2870</ele>
        <time>2022-07-16T10:04:47Z</time>
      </trkpt>
      <trkpt lat="44.71284" lon="7.06444">
        <ele>2870</ele>
        <time>2022-07-16T10:04:52Z</time>
      </trkpt>
      <trkpt lat="44.71283" lon="7.06449">
        <ele>2874</ele>
        <time>2022-07-16T10:04:58Z</time>
      </trkpt>
      <trkpt lat="44.7128" lon="7.06452">
        <ele>2874</ele>
        <time>2022-07-16T10:05:03Z</time>
      </trkpt>
      <trkpt lat="44.71277" lon="7.06455">
        <ele>2874</ele>
        <time>2022-07-16T10:05:07Z</time>
      </trkpt>
      <trkpt lat="44.71274" lon="7.06457">
        <ele>2874</ele>
        <time>2022-07-16T10:05:11Z</time>
      </trkpt>
      <trkpt lat="44.71271" lon="7.06459">
        <ele>2875</ele>
        <time>2022-07-16T10:05:15Z</time>
      </trkpt>
      <trkpt lat="44.71257" lon="7.06471">
        <ele>2874</ele>
        <time>2022-07-16T10:05:39Z</time>
      </trkpt>
      <trkpt lat="44.71254" lon="7.06472">
        <ele>2873</ele>
        <time>2022-07-16T10:05:44Z</time>
      </trkpt>
      <trkpt lat="44.7125" lon="7.06474">
        <ele>2872</ele>
        <time>2022-07-16T10:05:47Z</time>
      </trkpt>
      <trkpt lat="44.71247" lon="7.06477">
        <ele>2871</ele>
        <time>2022-07-16T10:05:51Z</time>
      </trkpt>
      <trkpt lat="44.71244" lon="7.06479">
        <ele>2871</ele>
        <time>2022-07-16T10:05:55Z</time>
      </trkpt>
      <trkpt lat="44.71238" lon="7.06486">
        <ele>2872</ele>
        <time>2022-07-16T10:06:09Z</time>
      </trkpt>
      <trkpt lat="44.71234" lon="7.06487">
        <ele>2874</ele>
        <time>2022-07-16T10:06:16Z</time>
      </trkpt>
      <trkpt lat="44.71231" lon="7.06488">
        <ele>2874</ele>
        <time>2022-07-16T10:06:22Z</time>
      </trkpt>
      <trkpt lat="44.71227" lon="7.06489">
        <ele>2872</ele>
        <time>2022-07-16T10:06:28Z</time>
      </trkpt>
      <trkpt lat="44.71227" lon="7.06495">
        <ele>2871</ele>
        <time>2022-07-16T10:06:38Z</time>
      </trkpt>
      <trkpt lat="44.71221" lon="7.06502">
        <ele>2870</ele>
        <time>2022-07-16T10:06:50Z</time>
      </trkpt>
      <trkpt lat="44.71218" lon="7.065">
        <ele>2869</ele>
        <time>2022-07-16T10:07:05Z</time>
      </trkpt>
      <trkpt lat="44.71211" lon="7.06503">
        <ele>2873</ele>
        <time>2022-07-16T10:07:15Z</time>
      </trkpt>
      <trkpt lat="44.71205" lon="7.06507">
        <ele>2876</ele>
        <time>2022-07-16T10:07:29Z</time>
      </trkpt>
      <trkpt lat="44.71203" lon="7.0651">
        <ele>2877</ele>
        <time>2022-07-16T10:07:37Z</time>
      </trkpt>
      <trkpt lat="44.71203" lon="7.06515">
        <ele>2876</ele>
        <time>2022-07-16T10:07:45Z</time>
      </trkpt>
      <trkpt lat="44.71206" lon="7.06516">
        <ele>2877</ele>
        <time>2022-07-16T10:07:52Z</time>
      </trkpt>
      <trkpt lat="44.7121" lon="7.06518">
        <ele>2877</ele>
        <time>2022-07-16T10:08:00Z</time>
      </trkpt>
      <trkpt lat="44.71214" lon="7.0652">
        <ele>2879</ele>
        <time>2022-07-16T10:08:08Z</time>
      </trkpt>
      <trkpt lat="44.71217" lon="7.0652">
        <ele>2880</ele>
        <time>2022-07-16T10:08:17Z</time>
      </trkpt>
      <trkpt lat="44.71211" lon="7.06533">
        <ele>2884</ele>
        <time>2022-07-16T10:08:40Z</time>
      </trkpt>
      <trkpt lat="44.71208" lon="7.06536">
        <ele>2884</ele>
        <time>2022-07-16T10:08:47Z</time>
      </trkpt>
      <trkpt lat="44.71208" lon="7.06541">
        <ele>2885</ele>
        <time>2022-07-16T10:08:53Z</time>
      </trkpt>
      <trkpt lat="44.71209" lon="7.06548">
        <ele>2886</ele>
        <time>2022-07-16T10:09:09Z</time>
      </trkpt>
      <trkpt lat="44.7121" lon="7.06554">
        <ele>2887</ele>
        <time>2022-07-16T10:11:29Z</time>
      </trkpt>
      <trkpt lat="44.71214" lon="7.06562">
        <ele>2887</ele>
        <time>2022-07-16T10:11:39Z</time>
      </trkpt>
      <trkpt lat="44.71218" lon="7.06596">
        <ele>2929</ele>
        <time>2022-07-16T10:12:12Z</time>
      </trkpt>
      <trkpt lat="44.71227" lon="7.06644">
        <ele>2902</ele>
        <time>2022-07-16T10:13:05Z</time>
      </trkpt>
      <trkpt lat="44.71225" lon="7.06657">
        <ele>2883</ele>
        <time>2022-07-16T10:13:33Z</time>
      </trkpt>
      <trkpt lat="44.7122" lon="7.0666">
        <ele>2889</ele>
        <time>2022-07-16T10:14:04Z</time>
      </trkpt>
      <trkpt lat="44.71223" lon="7.06667">
        <ele>2882</ele>
        <time>2022-07-16T10:19:19Z</time>
      </trkpt>
      <trkpt lat="44.71222" lon="7.06677">
        <ele>2882</ele>
        <time>2022-07-16T10:19:40Z</time>
      </trkpt>
      <trkpt lat="44.71223" lon="7.06685">
        <ele>2878</ele>
        <time>2022-07-16T10:19:49Z</time>
      </trkpt>
      <trkpt lat="44.71221" lon="7.06705">
        <ele>2871</ele>
        <time>2022-07-16T10:20:14Z</time>
      </trkpt>
      <trkpt lat="44.71219" lon="7.0671">
        <ele>2870</ele>
        <time>2022-07-16T10:20:20Z</time>
      </trkpt>
      <trkpt lat="44.7122" lon="7.06716">
        <ele>2866</ele>
        <time>2022-07-16T10:20:31Z</time>
      </trkpt>
      <trkpt lat="44.71217" lon="7.0672">
        <ele>2866</ele>
        <time>2022-07-16T10:20:39Z</time>
      </trkpt>
      <trkpt lat="44.71215" lon="7.06725">
        <ele>2867</ele>
        <time>2022-07-16T10:20:50Z</time>
      </trkpt>
      <trkpt lat="44.71211" lon="7.06726">
        <ele>2867</ele>
        <time>2022-07-16T10:20:56Z</time>
      </trkpt>
      <trkpt lat="44.71204" lon="7.06729">
        <ele>2868</ele>
        <time>2022-07-16T10:21:09Z</time>
      </trkpt>
      <trkpt lat="44.71201" lon="7.06731">
        <ele>2869</ele>
        <time>2022-07-16T10:21:16Z</time>
      </trkpt>
      <trkpt lat="44.712" lon="7.06736">
        <ele>2869</ele>
        <time>2022-07-16T10:21:21Z</time>
      </trkpt>
      <trkpt lat="44.71199" lon="7.06741">
        <ele>2870</ele>
        <time>2022-07-16T10:21:31Z</time>
      </trkpt>
      <trkpt lat="44.71193" lon="7.06753">
        <ele>2871</ele>
        <time>2022-07-16T10:21:55Z</time>
      </trkpt>
      <trkpt lat="44.7119" lon="7.06755">
        <ele>2870</ele>
        <time>2022-07-16T10:22:04Z</time>
      </trkpt>
      <trkpt lat="44.71187" lon="7.06758">
        <ele>2870</ele>
        <time>2022-07-16T10:22:13Z</time>
      </trkpt>
      <trkpt lat="44.71181" lon="7.06771">
        <ele>2868</ele>
        <time>2022-07-16T10:22:35Z</time>
      </trkpt>
      <trkpt lat="44.71175" lon="7.06784">
        <ele>2868</ele>
        <time>2022-07-16T10:22:56Z</time>
      </trkpt>
      <trkpt lat="44.71172" lon="7.06793">
        <ele>2869</ele>
        <time>2022-07-16T10:23:12Z</time>
      </trkpt>
      <trkpt lat="44.71169" lon="7.06797">
        <ele>2871</ele>
        <time>2022-07-16T10:23:19Z</time>
      </trkpt>
      <trkpt lat="44.71169" lon="7.06792">
        <ele>2872</ele>
        <time>2022-07-16T10:23:25Z</time>
      </trkpt>
      <trkpt lat="44.71168" lon="7.06786">
        <ele>2873</ele>
        <time>2022-07-16T10:23:31Z</time>
      </trkpt>
      <trkpt lat="44.71164" lon="7.06786">
        <ele>2874</ele>
        <time>2022-07-16T10:23:33Z</time>
      </trkpt>
      <trkpt lat="44.71162" lon="7.0679">
        <ele>2874</ele>
        <time>2022-07-16T10:23:36Z</time>
      </trkpt>
      <trkpt lat="44.71162" lon="7.06795">
        <ele>2876</ele>
        <time>2022-07-16T10:23:42Z</time>
      </trkpt>
      <trkpt lat="44.71156" lon="7.06801">
        <ele>2880</ele>
        <time>2022-07-16T10:24:01Z</time>
      </trkpt>
      <trkpt lat="44.71153" lon="7.06803">
        <ele>2881</ele>
        <time>2022-07-16T10:24:13Z</time>
      </trkpt>
      <trkpt lat="44.71151" lon="7.06798">
        <ele>2884</ele>
        <time>2022-07-16T10:24:22Z</time>
      </trkpt>
      <trkpt lat="44.71153" lon="7.06794">
        <ele>2886</ele>
        <time>2022-07-16T10:24:30Z</time>
      </trkpt>
      <trkpt lat="44.71154" lon="7.06789">
        <ele>2887</ele>
        <time>2022-07-16T10:24:38Z</time>
      </trkpt>
      <trkpt lat="44.71152" lon="7.0678">
        <ele>2889</ele>
        <time>2022-07-16T10:24:55Z</time>
      </trkpt>
      <trkpt lat="44.7115" lon="7.06784">
        <ele>2890</ele>
        <time>2022-07-16T10:25:03Z</time>
      </trkpt>
      <trkpt lat="44.71147" lon="7.06782">
        <ele>2891</ele>
        <time>2022-07-16T10:25:11Z</time>
      </trkpt>
      <trkpt lat="44.71148" lon="7.06771">
        <ele>2892</ele>
        <time>2022-07-16T10:25:22Z</time>
      </trkpt>
      <trkpt lat="44.71145" lon="7.06768">
        <ele>2893</ele>
        <time>2022-07-16T10:25:32Z</time>
      </trkpt>
      <trkpt lat="44.71143" lon="7.06764">
        <ele>2894</ele>
        <time>2022-07-16T10:25:40Z</time>
      </trkpt>
      <trkpt lat="44.71141" lon="7.06761">
        <ele>2895</ele>
        <time>2022-07-16T10:25:52Z</time>
      </trkpt>
      <trkpt lat="44.71139" lon="7.06759">
        <ele>2899</ele>
        <time>2022-07-16T10:26:27Z</time>
      </trkpt>
      <trkpt lat="44.71137" lon="7.06755">
        <ele>2900</ele>
        <time>2022-07-16T10:26:39Z</time>
      </trkpt>
      <trkpt lat="44.71136" lon="7.06751">
        <ele>2906</ele>
        <time>2022-07-16T10:26:49Z</time>
      </trkpt>
      <trkpt lat="44.71134" lon="7.06747">
        <ele>2908</ele>
        <time>2022-07-16T10:27:03Z</time>
      </trkpt>
      <trkpt lat="44.7113" lon="7.06739">
        <ele>2911</ele>
        <time>2022-07-16T10:27:20Z</time>
      </trkpt>
      <trkpt lat="44.71128" lon="7.06735">
        <ele>2912</ele>
        <time>2022-07-16T10:27:30Z</time>
      </trkpt>
      <trkpt lat="44.71127" lon="7.06729">
        <ele>2912</ele>
        <time>2022-07-16T10:27:37Z</time>
      </trkpt>
      <trkpt lat="44.71126" lon="7.06724">
        <ele>2913</ele>
        <time>2022-07-16T10:27:43Z</time>
      </trkpt>
      <trkpt lat="44.71126" lon="7.06719">
        <ele>2913</ele>
        <time>2022-07-16T10:27:51Z</time>
      </trkpt>
      <trkpt lat="44.71126" lon="7.06715">
        <ele>2914</ele>
        <time>2022-07-16T10:27:57Z</time>
      </trkpt>
      <trkpt lat="44.71124" lon="7.0671">
        <ele>2915</ele>
        <time>2022-07-16T10:28:04Z</time>
      </trkpt>
      <trkpt lat="44.71119" lon="7.06703">
        <ele>2918</ele>
        <time>2022-07-16T10:28:18Z</time>
      </trkpt>
      <trkpt lat="44.71123" lon="7.06702">
        <ele>2918</ele>
        <time>2022-07-16T10:28:27Z</time>
      </trkpt>
      <trkpt lat="44.71124" lon="7.06699">
        <ele>2920</ele>
        <time>2022-07-16T10:28:50Z</time>
      </trkpt>
      <trkpt lat="44.71121" lon="7.06697">
        <ele>2924</ele>
        <time>2022-07-16T10:28:58Z</time>
      </trkpt>
      <trkpt lat="44.71118" lon="7.06698">
        <ele>2926</ele>
        <time>2022-07-16T10:29:10Z</time>
      </trkpt>
      <trkpt lat="44.71115" lon="7.06694">
        <ele>2928</ele>
        <time>2022-07-16T10:29:19Z</time>
      </trkpt>
      <trkpt lat="44.71112" lon="7.06692">
        <ele>2929</ele>
        <time>2022-07-16T10:29:27Z</time>
      </trkpt>
      <trkpt lat="44.7111" lon="7.06688">
        <ele>2930</ele>
        <time>2022-07-16T10:29:34Z</time>
      </trkpt>
      <trkpt lat="44.71113" lon="7.06686">
        <ele>2930</ele>
        <time>2022-07-16T10:29:40Z</time>
      </trkpt>
      <trkpt lat="44.71116" lon="7.06685">
        <ele>2929</ele>
        <time>2022-07-16T10:29:49Z</time>
      </trkpt>
      <trkpt lat="44.71114" lon="7.06681">
        <ele>2930</ele>
        <time>2022-07-16T10:29:57Z</time>
      </trkpt>
      <trkpt lat="44.71111" lon="7.06678">
        <ele>2931</ele>
        <time>2022-07-16T10:30:05Z</time>
      </trkpt>
      <trkpt lat="44.71108" lon="7.06675">
        <ele>2933</ele>
        <time>2022-07-16T10:30:12Z</time>
      </trkpt>
      <trkpt lat="44.71105" lon="7.06671">
        <ele>2934</ele>
        <time>2022-07-16T10:30:20Z</time>
      </trkpt>
      <trkpt lat="44.71103" lon="7.06667">
        <ele>2935</ele>
        <time>2022-07-16T10:30:31Z</time>
      </trkpt>
      <trkpt lat="44.711" lon="7.06665">
        <ele>2938</ele>
        <time>2022-07-16T10:30:39Z</time>
      </trkpt>
      <trkpt lat="44.71096" lon="7.06665">
        <ele>2939</ele>
        <time>2022-07-16T10:30:48Z</time>
      </trkpt>
      <trkpt lat="44.71095" lon="7.06661">
        <ele>2939</ele>
        <time>2022-07-16T10:30:54Z</time>
      </trkpt>
      <trkpt lat="44.71094" lon="7.06656">
        <ele>2940</ele>
        <time>2022-07-16T10:31:04Z</time>
      </trkpt>
      <trkpt lat="44.71091" lon="7.06652">
        <ele>2941</ele>
        <time>2022-07-16T10:31:11Z</time>
      </trkpt>
      <trkpt lat="44.7109" lon="7.06647">
        <ele>2942</ele>
        <time>2022-07-16T10:31:19Z</time>
      </trkpt>
      <trkpt lat="44.71094" lon="7.06646">
        <ele>2942</ele>
        <time>2022-07-16T10:31:26Z</time>
      </trkpt>
      <trkpt lat="44.71095" lon="7.06641">
        <ele>2943</ele>
        <time>2022-07-16T10:31:39Z</time>
      </trkpt>
      <trkpt lat="44.7109" lon="7.06635">
        <ele>2947</ele>
        <time>2022-07-16T10:31:58Z</time>
      </trkpt>
      <trkpt lat="44.71089" lon="7.0663">
        <ele>2948</ele>
        <time>2022-07-16T10:32:07Z</time>
      </trkpt>
      <trkpt lat="44.71085" lon="7.06628">
        <ele>2949</ele>
        <time>2022-07-16T10:32:42Z</time>
      </trkpt>
      <trkpt lat="44.71082" lon="7.06627">
        <ele>2950</ele>
        <time>2022-07-16T10:33:00Z</time>
      </trkpt>
      <trkpt lat="44.71078" lon="7.06627">
        <ele>2952</ele>
        <time>2022-07-16T10:33:12Z</time>
      </trkpt>
      <trkpt lat="44.71075" lon="7.06629">
        <ele>2953</ele>
        <time>2022-07-16T10:33:20Z</time>
      </trkpt>
      <trkpt lat="44.71069" lon="7.06633">
        <ele>2958</ele>
        <time>2022-07-16T10:48:15Z</time>
      </trkpt>
      <trkpt lat="44.71071" lon="7.06629">
        <ele>2958</ele>
        <time>2022-07-16T10:55:31Z</time>
      </trkpt>
      <trkpt lat="44.71075" lon="7.06629">
        <ele>2956</ele>
        <time>2022-07-16T10:55:38Z</time>
      </trkpt>
      <trkpt lat="44.71079" lon="7.06629">
        <ele>2955</ele>
        <time>2022-07-16T10:55:43Z</time>
      </trkpt>
      <trkpt lat="44.71086" lon="7.06631">
        <ele>2953</ele>
        <time>2022-07-16T10:55:55Z</time>
      </trkpt>
      <trkpt lat="44.71089" lon="7.06634">
        <ele>2951</ele>
        <time>2022-07-16T10:55:59Z</time>
      </trkpt>
      <trkpt lat="44.71092" lon="7.0663">
        <ele>2950</ele>
        <time>2022-07-16T10:56:22Z</time>
      </trkpt>
      <trkpt lat="44.71094" lon="7.06626">
        <ele>2948</ele>
        <time>2022-07-16T10:56:30Z</time>
      </trkpt>
      <trkpt lat="44.71097" lon="7.06622">
        <ele>2947</ele>
        <time>2022-07-16T10:56:36Z</time>
      </trkpt>
      <trkpt lat="44.71098" lon="7.06617">
        <ele>2945</ele>
        <time>2022-07-16T10:56:42Z</time>
      </trkpt>
      <trkpt lat="44.71101" lon="7.06614">
        <ele>2944</ele>
        <time>2022-07-16T10:56:48Z</time>
      </trkpt>
      <trkpt lat="44.71118" lon="7.06607">
        <ele>2938</ele>
        <time>2022-07-16T10:57:19Z</time>
      </trkpt>
      <trkpt lat="44.71122" lon="7.06606">
        <ele>2938</ele>
        <time>2022-07-16T10:57:25Z</time>
      </trkpt>
      <trkpt lat="44.71125" lon="7.06604">
        <ele>2938</ele>
        <time>2022-07-16T10:57:32Z</time>
      </trkpt>
      <trkpt lat="44.71129" lon="7.06603">
        <ele>2936</ele>
        <time>2022-07-16T10:57:38Z</time>
      </trkpt>
      <trkpt lat="44.71132" lon="7.06604">
        <ele>2935</ele>
        <time>2022-07-16T10:57:44Z</time>
      </trkpt>
      <trkpt lat="44.71136" lon="7.06604">
        <ele>2934</ele>
        <time>2022-07-16T10:57:50Z</time>
      </trkpt>
      <trkpt lat="44.71139" lon="7.066">
        <ele>2934</ele>
        <time>2022-07-16T10:57:56Z</time>
      </trkpt>
      <trkpt lat="44.71142" lon="7.06597">
        <ele>2933</ele>
        <time>2022-07-16T10:58:03Z</time>
      </trkpt>
      <trkpt lat="44.71145" lon="7.06596">
        <ele>2932</ele>
        <time>2022-07-16T10:58:09Z</time>
      </trkpt>
      <trkpt lat="44.71144" lon="7.0659">
        <ele>2932</ele>
        <time>2022-07-16T10:58:18Z</time>
      </trkpt>
      <trkpt lat="44.71148" lon="7.06588">
        <ele>2928</ele>
        <time>2022-07-16T10:58:28Z</time>
      </trkpt>
      <trkpt lat="44.71151" lon="7.0659">
        <ele>2927</ele>
        <time>2022-07-16T10:58:34Z</time>
      </trkpt>
      <trkpt lat="44.71158" lon="7.06589">
        <ele>2926</ele>
        <time>2022-07-16T10:58:48Z</time>
      </trkpt>
      <trkpt lat="44.71166" lon="7.06586">
        <ele>2921</ele>
        <time>2022-07-16T10:58:59Z</time>
      </trkpt>
      <trkpt lat="44.71169" lon="7.06586">
        <ele>2920</ele>
        <time>2022-07-16T10:59:06Z</time>
      </trkpt>
      <trkpt lat="44.71179" lon="7.06585">
        <ele>2916</ele>
        <time>2022-07-16T10:59:48Z</time>
      </trkpt>
      <trkpt lat="44.71186" lon="7.06576">
        <ele>2914</ele>
        <time>2022-07-16T11:00:15Z</time>
      </trkpt>
      <trkpt lat="44.71183" lon="7.06565">
        <ele>2912</ele>
        <time>2022-07-16T11:00:33Z</time>
      </trkpt>
      <trkpt lat="44.71193" lon="7.06561">
        <ele>2911</ele>
        <time>2022-07-16T11:00:46Z</time>
      </trkpt>
      <trkpt lat="44.71202" lon="7.0656">
        <ele>2906</ele>
        <time>2022-07-16T11:00:59Z</time>
      </trkpt>
      <trkpt lat="44.71206" lon="7.06548">
        <ele>2905</ele>
        <time>2022-07-16T11:01:15Z</time>
      </trkpt>
      <trkpt lat="44.71198" lon="7.06541">
        <ele>2903</ele>
        <time>2022-07-16T11:01:30Z</time>
      </trkpt>
      <trkpt lat="44.71199" lon="7.06527">
        <ele>2896</ele>
        <time>2022-07-16T11:02:11Z</time>
      </trkpt>
      <trkpt lat="44.71209" lon="7.06526">
        <ele>2895</ele>
        <time>2022-07-16T11:02:21Z</time>
      </trkpt>
      <trkpt lat="44.71208" lon="7.06513">
        <ele>2891</ele>
        <time>2022-07-16T11:03:22Z</time>
      </trkpt>
      <trkpt lat="44.71203" lon="7.06505">
        <ele>2887</ele>
        <time>2022-07-16T11:03:31Z</time>
      </trkpt>
      <trkpt lat="44.71206" lon="7.06501">
        <ele>2885</ele>
        <time>2022-07-16T11:03:36Z</time>
      </trkpt>
      <trkpt lat="44.7122" lon="7.06491">
        <ele>2881</ele>
        <time>2022-07-16T11:03:51Z</time>
      </trkpt>
      <trkpt lat="44.71223" lon="7.0649">
        <ele>2880</ele>
        <time>2022-07-16T11:03:55Z</time>
      </trkpt>
      <trkpt lat="44.71227" lon="7.06489">
        <ele>2880</ele>
        <time>2022-07-16T11:04:16Z</time>
      </trkpt>
      <trkpt lat="44.7123" lon="7.06486">
        <ele>2879</ele>
        <time>2022-07-16T11:04:24Z</time>
      </trkpt>
      <trkpt lat="44.71239" lon="7.06479">
        <ele>2877</ele>
        <time>2022-07-16T11:04:46Z</time>
      </trkpt>
      <trkpt lat="44.71247" lon="7.06474">
        <ele>2874</ele>
        <time>2022-07-16T11:04:58Z</time>
      </trkpt>
      <trkpt lat="44.71254" lon="7.06464">
        <ele>2873</ele>
        <time>2022-07-16T11:05:07Z</time>
      </trkpt>
      <trkpt lat="44.71271" lon="7.06455">
        <ele>2873</ele>
        <time>2022-07-16T11:05:30Z</time>
      </trkpt>
      <trkpt lat="44.71279" lon="7.06448">
        <ele>2873</ele>
        <time>2022-07-16T11:05:41Z</time>
      </trkpt>
      <trkpt lat="44.71286" lon="7.06439">
        <ele>2873</ele>
        <time>2022-07-16T11:05:53Z</time>
      </trkpt>
      <trkpt lat="44.71288" lon="7.06426">
        <ele>2873</ele>
        <time>2022-07-16T11:06:04Z</time>
      </trkpt>
      <trkpt lat="44.71303" lon="7.06411">
        <ele>2873</ele>
        <time>2022-07-16T11:06:27Z</time>
      </trkpt>
      <trkpt lat="44.71309" lon="7.06401">
        <ele>2872</ele>
        <time>2022-07-16T11:06:45Z</time>
      </trkpt>
      <trkpt lat="44.71313" lon="7.06392">
        <ele>2875</ele>
        <time>2022-07-16T11:07:16Z</time>
      </trkpt>
      <trkpt lat="44.71315" lon="7.06388">
        <ele>2875</ele>
        <time>2022-07-16T11:07:22Z</time>
      </trkpt>
      <trkpt lat="44.71317" lon="7.06383">
        <ele>2874</ele>
        <time>2022-07-16T11:07:28Z</time>
      </trkpt>
      <trkpt lat="44.71324" lon="7.06371">
        <ele>2871</ele>
        <time>2022-07-16T11:07:42Z</time>
      </trkpt>
      <trkpt lat="44.71326" lon="7.06366">
        <ele>2872</ele>
        <time>2022-07-16T11:07:46Z</time>
      </trkpt>
      <trkpt lat="44.71328" lon="7.06362">
        <ele>2872</ele>
        <time>2022-07-16T11:07:50Z</time>
      </trkpt>
      <trkpt lat="44.71332" lon="7.06353">
        <ele>2874</ele>
        <time>2022-07-16T11:07:57Z</time>
      </trkpt>
      <trkpt lat="44.71333" lon="7.06348">
        <ele>2875</ele>
        <time>2022-07-16T11:08:01Z</time>
      </trkpt>
      <trkpt lat="44.71335" lon="7.06338">
        <ele>2876</ele>
        <time>2022-07-16T11:08:11Z</time>
      </trkpt>
      <trkpt lat="44.71334" lon="7.06327">
        <ele>2876</ele>
        <time>2022-07-16T11:08:22Z</time>
      </trkpt>
      <trkpt lat="44.71336" lon="7.06323">
        <ele>2875</ele>
        <time>2022-07-16T11:08:28Z</time>
      </trkpt>
      <trkpt lat="44.71337" lon="7.06318">
        <ele>2874</ele>
        <time>2022-07-16T11:08:32Z</time>
      </trkpt>
      <trkpt lat="44.71341" lon="7.06315">
        <ele>2874</ele>
        <time>2022-07-16T11:08:37Z</time>
      </trkpt>
      <trkpt lat="44.71347" lon="7.06296">
        <ele>2871</ele>
        <time>2022-07-16T11:08:55Z</time>
      </trkpt>
      <trkpt lat="44.7135" lon="7.06281">
        <ele>2868</ele>
        <time>2022-07-16T11:09:10Z</time>
      </trkpt>
      <trkpt lat="44.71349" lon="7.06276">
        <ele>2866</ele>
        <time>2022-07-16T11:09:16Z</time>
      </trkpt>
      <trkpt lat="44.71348" lon="7.06271">
        <ele>2864</ele>
        <time>2022-07-16T11:09:25Z</time>
      </trkpt>
      <trkpt lat="44.71346" lon="7.06268">
        <ele>2861</ele>
        <time>2022-07-16T11:09:32Z</time>
      </trkpt>
      <trkpt lat="44.71345" lon="7.06263">
        <ele>2860</ele>
        <time>2022-07-16T11:09:39Z</time>
      </trkpt>
      <trkpt lat="44.71346" lon="7.06257">
        <ele>2859</ele>
        <time>2022-07-16T11:09:45Z</time>
      </trkpt>
      <trkpt lat="44.71353" lon="7.06245">
        <ele>2858</ele>
        <time>2022-07-16T11:09:58Z</time>
      </trkpt>
      <trkpt lat="44.71354" lon="7.0624">
        <ele>2857</ele>
        <time>2022-07-16T11:10:04Z</time>
      </trkpt>
      <trkpt lat="44.71353" lon="7.06237">
        <ele>2855</ele>
        <time>2022-07-16T11:10:15Z</time>
      </trkpt>
      <trkpt lat="44.71353" lon="7.06232">
        <ele>2855</ele>
        <time>2022-07-16T11:10:33Z</time>
      </trkpt>
      <trkpt lat="44.71356" lon="7.06228">
        <ele>2854</ele>
        <time>2022-07-16T11:10:40Z</time>
      </trkpt>
      <trkpt lat="44.71356" lon="7.06223">
        <ele>2853</ele>
        <time>2022-07-16T11:10:49Z</time>
      </trkpt>
      <trkpt lat="44.71357" lon="7.06218">
        <ele>2850</ele>
        <time>2022-07-16T11:10:55Z</time>
      </trkpt>
      <trkpt lat="44.71355" lon="7.06213">
        <ele>2849</ele>
        <time>2022-07-16T11:11:04Z</time>
      </trkpt>
      <trkpt lat="44.71355" lon="7.06209">
        <ele>2846</ele>
        <time>2022-07-16T11:11:10Z</time>
      </trkpt>
      <trkpt lat="44.71354" lon="7.06204">
        <ele>2845</ele>
        <time>2022-07-16T11:11:16Z</time>
      </trkpt>
      <trkpt lat="44.71351" lon="7.06193">
        <ele>2842</ele>
        <time>2022-07-16T11:11:25Z</time>
      </trkpt>
      <trkpt lat="44.71349" lon="7.06182">
        <ele>2841</ele>
        <time>2022-07-16T11:11:34Z</time>
      </trkpt>
      <trkpt lat="44.71349" lon="7.06177">
        <ele>2841</ele>
        <time>2022-07-16T11:11:38Z</time>
      </trkpt>
      <trkpt lat="44.71349" lon="7.06172">
        <ele>2840</ele>
        <time>2022-07-16T11:11:43Z</time>
      </trkpt>
      <trkpt lat="44.7135" lon="7.06166">
        <ele>2839</ele>
        <time>2022-07-16T11:11:53Z</time>
      </trkpt>
      <trkpt lat="44.71351" lon="7.06162">
        <ele>2839</ele>
        <time>2022-07-16T11:11:58Z</time>
      </trkpt>
      <trkpt lat="44.71352" lon="7.06157">
        <ele>2838</ele>
        <time>2022-07-16T11:12:04Z</time>
      </trkpt>
      <trkpt lat="44.71352" lon="7.06147">
        <ele>2835</ele>
        <time>2022-07-16T11:12:24Z</time>
      </trkpt>
      <trkpt lat="44.71349" lon="7.06146">
        <ele>2834</ele>
        <time>2022-07-16T11:12:33Z</time>
      </trkpt>
      <trkpt lat="44.7135" lon="7.0613">
        <ele>2829</ele>
        <time>2022-07-16T11:12:47Z</time>
      </trkpt>
      <trkpt lat="44.71352" lon="7.06126">
        <ele>2828</ele>
        <time>2022-07-16T11:12:52Z</time>
      </trkpt>
      <trkpt lat="44.71354" lon="7.06115">
        <ele>2829</ele>
        <time>2022-07-16T11:13:04Z</time>
      </trkpt>
      <trkpt lat="44.71356" lon="7.0611">
        <ele>2829</ele>
        <time>2022-07-16T11:13:08Z</time>
      </trkpt>
      <trkpt lat="44.71359" lon="7.06108">
        <ele>2829</ele>
        <time>2022-07-16T11:13:13Z</time>
      </trkpt>
      <trkpt lat="44.71362" lon="7.06104">
        <ele>2829</ele>
        <time>2022-07-16T11:13:18Z</time>
      </trkpt>
      <trkpt lat="44.71363" lon="7.06099">
        <ele>2829</ele>
        <time>2022-07-16T11:13:22Z</time>
      </trkpt>
      <trkpt lat="44.71364" lon="7.06094">
        <ele>2829</ele>
        <time>2022-07-16T11:13:26Z</time>
      </trkpt>
      <trkpt lat="44.71369" lon="7.0608">
        <ele>2829</ele>
        <time>2022-07-16T11:13:44Z</time>
      </trkpt>
      <trkpt lat="44.7137" lon="7.06075">
        <ele>2826</ele>
        <time>2022-07-16T11:13:50Z</time>
      </trkpt>
      <trkpt lat="44.71369" lon="7.06071">
        <ele>2825</ele>
        <time>2022-07-16T11:13:58Z</time>
      </trkpt>
      <trkpt lat="44.71372" lon="7.06061">
        <ele>2820</ele>
        <time>2022-07-16T11:14:11Z</time>
      </trkpt>
      <trkpt lat="44.71373" lon="7.06056">
        <ele>2819</ele>
        <time>2022-07-16T11:14:16Z</time>
      </trkpt>
      <trkpt lat="44.71376" lon="7.06052">
        <ele>2819</ele>
        <time>2022-07-16T11:14:20Z</time>
      </trkpt>
      <trkpt lat="44.71376" lon="7.06047">
        <ele>2817</ele>
        <time>2022-07-16T11:14:27Z</time>
      </trkpt>
      <trkpt lat="44.71374" lon="7.06043">
        <ele>2816</ele>
        <time>2022-07-16T11:14:35Z</time>
      </trkpt>
      <trkpt lat="44.71376" lon="7.06038">
        <ele>2814</ele>
        <time>2022-07-16T11:14:41Z</time>
      </trkpt>
      <trkpt lat="44.71377" lon="7.06034">
        <ele>2813</ele>
        <time>2022-07-16T11:14:45Z</time>
      </trkpt>
      <trkpt lat="44.71377" lon="7.06029">
        <ele>2811</ele>
        <time>2022-07-16T11:14:52Z</time>
      </trkpt>
      <trkpt lat="44.71377" lon="7.06019">
        <ele>2810</ele>
        <time>2022-07-16T11:15:03Z</time>
      </trkpt>
      <trkpt lat="44.71382" lon="7.05999">
        <ele>2807</ele>
        <time>2022-07-16T11:15:23Z</time>
      </trkpt>
      <trkpt lat="44.71382" lon="7.05993">
        <ele>2806</ele>
        <time>2022-07-16T11:15:28Z</time>
      </trkpt>
      <trkpt lat="44.71379" lon="7.05978">
        <ele>2804</ele>
        <time>2022-07-16T11:15:45Z</time>
      </trkpt>
      <trkpt lat="44.71379" lon="7.05972">
        <ele>2803</ele>
        <time>2022-07-16T11:15:49Z</time>
      </trkpt>
      <trkpt lat="44.71379" lon="7.05961">
        <ele>2804</ele>
        <time>2022-07-16T11:15:59Z</time>
      </trkpt>
      <trkpt lat="44.7138" lon="7.05957">
        <ele>2803</ele>
        <time>2022-07-16T11:16:04Z</time>
      </trkpt>
      <trkpt lat="44.71378" lon="7.05952">
        <ele>2801</ele>
        <time>2022-07-16T11:16:10Z</time>
      </trkpt>
      <trkpt lat="44.71375" lon="7.0595">
        <ele>2801</ele>
        <time>2022-07-16T11:16:17Z</time>
      </trkpt>
      <trkpt lat="44.71374" lon="7.05944">
        <ele>2802</ele>
        <time>2022-07-16T11:16:26Z</time>
      </trkpt>
      <trkpt lat="44.71371" lon="7.05941">
        <ele>2801</ele>
        <time>2022-07-16T11:16:40Z</time>
      </trkpt>
      <trkpt lat="44.71369" lon="7.05938">
        <ele>2797</ele>
        <time>2022-07-16T11:16:47Z</time>
      </trkpt>
      <trkpt lat="44.71366" lon="7.05934">
        <ele>2796</ele>
        <time>2022-07-16T11:16:52Z</time>
      </trkpt>
      <trkpt lat="44.71367" lon="7.05928">
        <ele>2794</ele>
        <time>2022-07-16T11:16:56Z</time>
      </trkpt>
      <trkpt lat="44.71369" lon="7.05913">
        <ele>2793</ele>
        <time>2022-07-16T11:17:08Z</time>
      </trkpt>
      <trkpt lat="44.71366" lon="7.05904">
        <ele>2792</ele>
        <time>2022-07-16T11:17:18Z</time>
      </trkpt>
      <trkpt lat="44.71365" lon="7.05899">
        <ele>2792</ele>
        <time>2022-07-16T11:17:24Z</time>
      </trkpt>
      <trkpt lat="44.71362" lon="7.05896">
        <ele>2792</ele>
        <time>2022-07-16T11:17:29Z</time>
      </trkpt>
      <trkpt lat="44.7136" lon="7.05891">
        <ele>2790</ele>
        <time>2022-07-16T11:17:34Z</time>
      </trkpt>
      <trkpt lat="44.71359" lon="7.05885">
        <ele>2789</ele>
        <time>2022-07-16T11:17:39Z</time>
      </trkpt>
      <trkpt lat="44.71359" lon="7.0588">
        <ele>2786</ele>
        <time>2022-07-16T11:17:43Z</time>
      </trkpt>
      <trkpt lat="44.71357" lon="7.05876">
        <ele>2786</ele>
        <time>2022-07-16T11:17:48Z</time>
      </trkpt>
      <trkpt lat="44.71354" lon="7.05874">
        <ele>2785</ele>
        <time>2022-07-16T11:17:53Z</time>
      </trkpt>
      <trkpt lat="44.71354" lon="7.05868">
        <ele>2786</ele>
        <time>2022-07-16T11:17:57Z</time>
      </trkpt>
      <trkpt lat="44.71353" lon="7.05863">
        <ele>2784</ele>
        <time>2022-07-16T11:18:02Z</time>
      </trkpt>
      <trkpt lat="44.71352" lon="7.05857">
        <ele>2785</ele>
        <time>2022-07-16T11:18:07Z</time>
      </trkpt>
      <trkpt lat="44.71349" lon="7.05856">
        <ele>2785</ele>
        <time>2022-07-16T11:18:12Z</time>
      </trkpt>
      <trkpt lat="44.71345" lon="7.05854">
        <ele>2785</ele>
        <time>2022-07-16T11:18:17Z</time>
      </trkpt>
      <trkpt lat="44.71342" lon="7.05851">
        <ele>2785</ele>
        <time>2022-07-16T11:18:22Z</time>
      </trkpt>
      <trkpt lat="44.71339" lon="7.05851">
        <ele>2785</ele>
        <time>2022-07-16T11:18:25Z</time>
      </trkpt>
      <trkpt lat="44.71336" lon="7.05849">
        <ele>2785</ele>
        <time>2022-07-16T11:18:33Z</time>
      </trkpt>
      <trkpt lat="44.71328" lon="7.05849">
        <ele>2780</ele>
        <time>2022-07-16T11:18:44Z</time>
      </trkpt>
      <trkpt lat="44.71321" lon="7.05853">
        <ele>2777</ele>
        <time>2022-07-16T11:18:53Z</time>
      </trkpt>
      <trkpt lat="44.71317" lon="7.05853">
        <ele>2775</ele>
        <time>2022-07-16T11:19:05Z</time>
      </trkpt>
      <trkpt lat="44.71315" lon="7.05848">
        <ele>2773</ele>
        <time>2022-07-16T11:19:09Z</time>
      </trkpt>
      <trkpt lat="44.71312" lon="7.05849">
        <ele>2771</ele>
        <time>2022-07-16T11:19:16Z</time>
      </trkpt>
      <trkpt lat="44.71308" lon="7.0585">
        <ele>2771</ele>
        <time>2022-07-16T11:19:21Z</time>
      </trkpt>
      <trkpt lat="44.71305" lon="7.05851">
        <ele>2769</ele>
        <time>2022-07-16T11:19:26Z</time>
      </trkpt>
      <trkpt lat="44.71303" lon="7.05847">
        <ele>2768</ele>
        <time>2022-07-16T11:19:31Z</time>
      </trkpt>
      <trkpt lat="44.713" lon="7.05848">
        <ele>2768</ele>
        <time>2022-07-16T11:19:36Z</time>
      </trkpt>
      <trkpt lat="44.713" lon="7.05853">
        <ele>2767</ele>
        <time>2022-07-16T11:19:39Z</time>
      </trkpt>
      <trkpt lat="44.71305" lon="7.05876">
        <ele>2759</ele>
        <time>2022-07-16T11:19:55Z</time>
      </trkpt>
      <trkpt lat="44.71305" lon="7.05888">
        <ele>2757</ele>
        <time>2022-07-16T11:20:04Z</time>
      </trkpt>
      <trkpt lat="44.71303" lon="7.05893">
        <ele>2757</ele>
        <time>2022-07-16T11:20:08Z</time>
      </trkpt>
      <trkpt lat="44.71304" lon="7.05898">
        <ele>2755</ele>
        <time>2022-07-16T11:20:14Z</time>
      </trkpt>
      <trkpt lat="44.71303" lon="7.05903">
        <ele>2754</ele>
        <time>2022-07-16T11:20:21Z</time>
      </trkpt>
      <trkpt lat="44.71296" lon="7.05904">
        <ele>2752</ele>
        <time>2022-07-16T11:20:30Z</time>
      </trkpt>
      <trkpt lat="44.71292" lon="7.05902">
        <ele>2752</ele>
        <time>2022-07-16T11:20:35Z</time>
      </trkpt>
      <trkpt lat="44.71288" lon="7.05902">
        <ele>2752</ele>
        <time>2022-07-16T11:20:40Z</time>
      </trkpt>
      <trkpt lat="44.71286" lon="7.05898">
        <ele>2751</ele>
        <time>2022-07-16T11:20:45Z</time>
      </trkpt>
      <trkpt lat="44.71283" lon="7.05896">
        <ele>2750</ele>
        <time>2022-07-16T11:20:53Z</time>
      </trkpt>
      <trkpt lat="44.7128" lon="7.05894">
        <ele>2748</ele>
        <time>2022-07-16T11:20:59Z</time>
      </trkpt>
      <trkpt lat="44.71276" lon="7.05894">
        <ele>2748</ele>
        <time>2022-07-16T11:21:04Z</time>
      </trkpt>
      <trkpt lat="44.71272" lon="7.05895">
        <ele>2747</ele>
        <time>2022-07-16T11:21:09Z</time>
      </trkpt>
      <trkpt lat="44.7127" lon="7.05905">
        <ele>2746</ele>
        <time>2022-07-16T11:21:18Z</time>
      </trkpt>
      <trkpt lat="44.71268" lon="7.05909">
        <ele>2745</ele>
        <time>2022-07-16T11:21:22Z</time>
      </trkpt>
      <trkpt lat="44.71264" lon="7.05908">
        <ele>2744</ele>
        <time>2022-07-16T11:21:27Z</time>
      </trkpt>
      <trkpt lat="44.71261" lon="7.05909">
        <ele>2743</ele>
        <time>2022-07-16T11:21:31Z</time>
      </trkpt>
      <trkpt lat="44.71257" lon="7.0591">
        <ele>2743</ele>
        <time>2022-07-16T11:21:35Z</time>
      </trkpt>
      <trkpt lat="44.71253" lon="7.0591">
        <ele>2742</ele>
        <time>2022-07-16T11:21:40Z</time>
      </trkpt>
      <trkpt lat="44.7125" lon="7.05909">
        <ele>2741</ele>
        <time>2022-07-16T11:21:44Z</time>
      </trkpt>
      <trkpt lat="44.71246" lon="7.05911">
        <ele>2741</ele>
        <time>2022-07-16T11:21:50Z</time>
      </trkpt>
      <trkpt lat="44.71243" lon="7.05913">
        <ele>2739</ele>
        <time>2022-07-16T11:21:57Z</time>
      </trkpt>
      <trkpt lat="44.7124" lon="7.0591">
        <ele>2739</ele>
        <time>2022-07-16T11:22:01Z</time>
      </trkpt>
      <trkpt lat="44.71236" lon="7.05912">
        <ele>2739</ele>
        <time>2022-07-16T11:22:08Z</time>
      </trkpt>
      <trkpt lat="44.71233" lon="7.05915">
        <ele>2738</ele>
        <time>2022-07-16T11:22:14Z</time>
      </trkpt>
      <trkpt lat="44.71226" lon="7.0592">
        <ele>2738</ele>
        <time>2022-07-16T11:22:23Z</time>
      </trkpt>
      <trkpt lat="44.71223" lon="7.05919">
        <ele>2737</ele>
        <time>2022-07-16T11:22:28Z</time>
      </trkpt>
      <trkpt lat="44.71219" lon="7.05922">
        <ele>2735</ele>
        <time>2022-07-16T11:22:34Z</time>
      </trkpt>
      <trkpt lat="44.71216" lon="7.05926">
        <ele>2733</ele>
        <time>2022-07-16T11:22:39Z</time>
      </trkpt>
      <trkpt lat="44.71213" lon="7.05927">
        <ele>2732</ele>
        <time>2022-07-16T11:22:46Z</time>
      </trkpt>
      <trkpt lat="44.71205" lon="7.05921">
        <ele>2732</ele>
        <time>2022-07-16T11:23:00Z</time>
      </trkpt>
      <trkpt lat="44.71203" lon="7.05917">
        <ele>2734</ele>
        <time>2022-07-16T11:23:12Z</time>
      </trkpt>
      <trkpt lat="44.712" lon="7.05917">
        <ele>2734</ele>
        <time>2022-07-16T11:23:16Z</time>
      </trkpt>
      <trkpt lat="44.71197" lon="7.05922">
        <ele>2733</ele>
        <time>2022-07-16T11:23:20Z</time>
      </trkpt>
      <trkpt lat="44.71196" lon="7.05927">
        <ele>2733</ele>
        <time>2022-07-16T11:23:25Z</time>
      </trkpt>
      <trkpt lat="44.71192" lon="7.05929">
        <ele>2732</ele>
        <time>2022-07-16T11:23:36Z</time>
      </trkpt>
      <trkpt lat="44.71189" lon="7.05931">
        <ele>2732</ele>
        <time>2022-07-16T11:23:41Z</time>
      </trkpt>
      <trkpt lat="44.71185" lon="7.05933">
        <ele>2730</ele>
        <time>2022-07-16T11:23:50Z</time>
      </trkpt>
      <trkpt lat="44.71174" lon="7.05927">
        <ele>2727</ele>
        <time>2022-07-16T11:24:09Z</time>
      </trkpt>
      <trkpt lat="44.7117" lon="7.05927">
        <ele>2725</ele>
        <time>2022-07-16T11:24:16Z</time>
      </trkpt>
      <trkpt lat="44.71167" lon="7.05929">
        <ele>2724</ele>
        <time>2022-07-16T11:24:30Z</time>
      </trkpt>
      <trkpt lat="44.71164" lon="7.05926">
        <ele>2724</ele>
        <time>2022-07-16T11:24:38Z</time>
      </trkpt>
      <trkpt lat="44.71161" lon="7.05923">
        <ele>2724</ele>
        <time>2022-07-16T11:24:44Z</time>
      </trkpt>
      <trkpt lat="44.71157" lon="7.05922">
        <ele>2723</ele>
        <time>2022-07-16T11:24:50Z</time>
      </trkpt>
      <trkpt lat="44.71159" lon="7.05918">
        <ele>2723</ele>
        <time>2022-07-16T11:25:40Z</time>
      </trkpt>
      <trkpt lat="44.71158" lon="7.05913">
        <ele>2721</ele>
        <time>2022-07-16T11:25:50Z</time>
      </trkpt>
      <trkpt lat="44.71159" lon="7.05907">
        <ele>2719</ele>
        <time>2022-07-16T11:25:56Z</time>
      </trkpt>
      <trkpt lat="44.71159" lon="7.05902">
        <ele>2718</ele>
        <time>2022-07-16T11:26:00Z</time>
      </trkpt>
      <trkpt lat="44.7116" lon="7.05897">
        <ele>2718</ele>
        <time>2022-07-16T11:26:04Z</time>
      </trkpt>
      <trkpt lat="44.71161" lon="7.05892">
        <ele>2717</ele>
        <time>2022-07-16T11:26:09Z</time>
      </trkpt>
      <trkpt lat="44.71159" lon="7.05887">
        <ele>2717</ele>
        <time>2022-07-16T11:26:14Z</time>
      </trkpt>
      <trkpt lat="44.7116" lon="7.05882">
        <ele>2716</ele>
        <time>2022-07-16T11:26:18Z</time>
      </trkpt>
      <trkpt lat="44.71162" lon="7.05878">
        <ele>2716</ele>
        <time>2022-07-16T11:26:24Z</time>
      </trkpt>
      <trkpt lat="44.7116" lon="7.05873">
        <ele>2714</ele>
        <time>2022-07-16T11:26:32Z</time>
      </trkpt>
      <trkpt lat="44.7116" lon="7.05867">
        <ele>2714</ele>
        <time>2022-07-16T11:26:43Z</time>
      </trkpt>
      <trkpt lat="44.71159" lon="7.05862">
        <ele>2714</ele>
        <time>2022-07-16T11:26:56Z</time>
      </trkpt>
      <trkpt lat="44.71154" lon="7.05863">
        <ele>2713</ele>
        <time>2022-07-16T11:27:01Z</time>
      </trkpt>
      <trkpt lat="44.71153" lon="7.05858">
        <ele>2711</ele>
        <time>2022-07-16T11:27:09Z</time>
      </trkpt>
      <trkpt lat="44.7115" lon="7.05856">
        <ele>2709</ele>
        <time>2022-07-16T11:27:16Z</time>
      </trkpt>
      <trkpt lat="44.71146" lon="7.05854">
        <ele>2708</ele>
        <time>2022-07-16T11:27:20Z</time>
      </trkpt>
      <trkpt lat="44.71143" lon="7.05857">
        <ele>2708</ele>
        <time>2022-07-16T11:27:25Z</time>
      </trkpt>
      <trkpt lat="44.71136" lon="7.05859">
        <ele>2706</ele>
        <time>2022-07-16T11:27:35Z</time>
      </trkpt>
      <trkpt lat="44.71132" lon="7.05858">
        <ele>2704</ele>
        <time>2022-07-16T11:27:40Z</time>
      </trkpt>
      <trkpt lat="44.7113" lon="7.05854">
        <ele>2702</ele>
        <time>2022-07-16T11:27:44Z</time>
      </trkpt>
      <trkpt lat="44.71126" lon="7.05855">
        <ele>2702</ele>
        <time>2022-07-16T11:27:49Z</time>
      </trkpt>
      <trkpt lat="44.7112" lon="7.05859">
        <ele>2699</ele>
        <time>2022-07-16T11:28:03Z</time>
      </trkpt>
      <trkpt lat="44.71116" lon="7.0586">
        <ele>2697</ele>
        <time>2022-07-16T11:28:10Z</time>
      </trkpt>
      <trkpt lat="44.71113" lon="7.05863">
        <ele>2697</ele>
        <time>2022-07-16T11:28:16Z</time>
      </trkpt>
      <trkpt lat="44.7111" lon="7.0586">
        <ele>2694</ele>
        <time>2022-07-16T11:28:24Z</time>
      </trkpt>
      <trkpt lat="44.7111" lon="7.05855">
        <ele>2694</ele>
        <time>2022-07-16T11:28:28Z</time>
      </trkpt>
      <trkpt lat="44.7111" lon="7.0585">
        <ele>2694</ele>
        <time>2022-07-16T11:28:34Z</time>
      </trkpt>
      <trkpt lat="44.71109" lon="7.05845">
        <ele>2696</ele>
        <time>2022-07-16T11:28:45Z</time>
      </trkpt>
      <trkpt lat="44.71106" lon="7.05842">
        <ele>2696</ele>
        <time>2022-07-16T11:29:18Z</time>
      </trkpt>
      <trkpt lat="44.71107" lon="7.05837">
        <ele>2698</ele>
        <time>2022-07-16T11:30:09Z</time>
      </trkpt>
      <trkpt lat="44.71109" lon="7.05832">
        <ele>2701</ele>
        <time>2022-07-16T11:30:31Z</time>
      </trkpt>
      <trkpt lat="44.7111" lon="7.05828">
        <ele>2700</ele>
        <time>2022-07-16T11:30:39Z</time>
      </trkpt>
      <trkpt lat="44.71109" lon="7.05824">
        <ele>2695</ele>
        <time>2022-07-16T11:30:46Z</time>
      </trkpt>
      <trkpt lat="44.71109" lon="7.05819">
        <ele>2693</ele>
        <time>2022-07-16T11:30:51Z</time>
      </trkpt>
      <trkpt lat="44.71108" lon="7.05815">
        <ele>2691</ele>
        <time>2022-07-16T11:30:58Z</time>
      </trkpt>
      <trkpt lat="44.71104" lon="7.05816">
        <ele>2690</ele>
        <time>2022-07-16T11:31:04Z</time>
      </trkpt>
      <trkpt lat="44.711" lon="7.05817">
        <ele>2688</ele>
        <time>2022-07-16T11:31:09Z</time>
      </trkpt>
      <trkpt lat="44.71097" lon="7.05814">
        <ele>2687</ele>
        <time>2022-07-16T11:31:14Z</time>
      </trkpt>
      <trkpt lat="44.7109" lon="7.0581">
        <ele>2683</ele>
        <time>2022-07-16T11:31:23Z</time>
      </trkpt>
      <trkpt lat="44.71088" lon="7.05805">
        <ele>2681</ele>
        <time>2022-07-16T11:31:28Z</time>
      </trkpt>
      <trkpt lat="44.71089" lon="7.058">
        <ele>2680</ele>
        <time>2022-07-16T11:31:32Z</time>
      </trkpt>
      <trkpt lat="44.71083" lon="7.05794">
        <ele>2680</ele>
        <time>2022-07-16T11:31:43Z</time>
      </trkpt>
      <trkpt lat="44.71079" lon="7.0579">
        <ele>2678</ele>
        <time>2022-07-16T11:31:48Z</time>
      </trkpt>
      <trkpt lat="44.71076" lon="7.05788">
        <ele>2677</ele>
        <time>2022-07-16T11:31:53Z</time>
      </trkpt>
      <trkpt lat="44.71073" lon="7.05788">
        <ele>2676</ele>
        <time>2022-07-16T11:31:56Z</time>
      </trkpt>
      <trkpt lat="44.71069" lon="7.05789">
        <ele>2675</ele>
        <time>2022-07-16T11:32:00Z</time>
      </trkpt>
      <trkpt lat="44.71065" lon="7.05789">
        <ele>2674</ele>
        <time>2022-07-16T11:32:05Z</time>
      </trkpt>
      <trkpt lat="44.71057" lon="7.0579">
        <ele>2672</ele>
        <time>2022-07-16T11:32:14Z</time>
      </trkpt>
      <trkpt lat="44.71053" lon="7.0579">
        <ele>2671</ele>
        <time>2022-07-16T11:32:18Z</time>
      </trkpt>
      <trkpt lat="44.71035" lon="7.05791">
        <ele>2670</ele>
        <time>2022-07-16T11:32:40Z</time>
      </trkpt>
      <trkpt lat="44.71031" lon="7.05795">
        <ele>2670</ele>
        <time>2022-07-16T11:32:46Z</time>
      </trkpt>
      <trkpt lat="44.7103" lon="7.0579">
        <ele>2669</ele>
        <time>2022-07-16T11:32:54Z</time>
      </trkpt>
      <trkpt lat="44.71031" lon="7.05785">
        <ele>2669</ele>
        <time>2022-07-16T11:32:58Z</time>
      </trkpt>
      <trkpt lat="44.71031" lon="7.05779">
        <ele>2668</ele>
        <time>2022-07-16T11:33:03Z</time>
      </trkpt>
      <trkpt lat="44.71029" lon="7.05776">
        <ele>2669</ele>
        <time>2022-07-16T11:34:11Z</time>
      </trkpt>
      <trkpt lat="44.71025" lon="7.05779">
        <ele>2667</ele>
        <time>2022-07-16T11:34:16Z</time>
      </trkpt>
      <trkpt lat="44.71022" lon="7.0578">
        <ele>2665</ele>
        <time>2022-07-16T11:34:22Z</time>
      </trkpt>
      <trkpt lat="44.71018" lon="7.05782">
        <ele>2663</ele>
        <time>2022-07-16T11:34:28Z</time>
      </trkpt>
      <trkpt lat="44.71015" lon="7.0578">
        <ele>2663</ele>
        <time>2022-07-16T11:34:35Z</time>
      </trkpt>
      <trkpt lat="44.71012" lon="7.05779">
        <ele>2661</ele>
        <time>2022-07-16T11:34:45Z</time>
      </trkpt>
      <trkpt lat="44.71011" lon="7.05774">
        <ele>2661</ele>
        <time>2022-07-16T11:34:52Z</time>
      </trkpt>
      <trkpt lat="44.71007" lon="7.05773">
        <ele>2661</ele>
        <time>2022-07-16T11:34:58Z</time>
      </trkpt>
      <trkpt lat="44.71004" lon="7.05773">
        <ele>2660</ele>
        <time>2022-07-16T11:35:04Z</time>
      </trkpt>
      <trkpt lat="44.71" lon="7.05771">
        <ele>2659</ele>
        <time>2022-07-16T11:35:10Z</time>
      </trkpt>
      <trkpt lat="44.70998" lon="7.05768">
        <ele>2659</ele>
        <time>2022-07-16T11:35:43Z</time>
      </trkpt>
      <trkpt lat="44.70997" lon="7.05763">
        <ele>2660</ele>
        <time>2022-07-16T11:35:48Z</time>
      </trkpt>
      <trkpt lat="44.70994" lon="7.05761">
        <ele>2661</ele>
        <time>2022-07-16T11:35:53Z</time>
      </trkpt>
      <trkpt lat="44.70989" lon="7.05759">
        <ele>2660</ele>
        <time>2022-07-16T11:35:57Z</time>
      </trkpt>
      <trkpt lat="44.70986" lon="7.05761">
        <ele>2659</ele>
        <time>2022-07-16T11:36:02Z</time>
      </trkpt>
      <trkpt lat="44.70982" lon="7.0576">
        <ele>2658</ele>
        <time>2022-07-16T11:36:09Z</time>
      </trkpt>
      <trkpt lat="44.70979" lon="7.05759">
        <ele>2657</ele>
        <time>2022-07-16T11:36:15Z</time>
      </trkpt>
      <trkpt lat="44.70975" lon="7.05759">
        <ele>2656</ele>
        <time>2022-07-16T11:36:22Z</time>
      </trkpt>
      <trkpt lat="44.70972" lon="7.05757">
        <ele>2656</ele>
        <time>2022-07-16T11:36:26Z</time>
      </trkpt>
      <trkpt lat="44.70968" lon="7.05759">
        <ele>2656</ele>
        <time>2022-07-16T11:36:31Z</time>
      </trkpt>
      <trkpt lat="44.70965" lon="7.0576">
        <ele>2655</ele>
        <time>2022-07-16T11:36:35Z</time>
      </trkpt>
      <trkpt lat="44.70961" lon="7.05757">
        <ele>2654</ele>
        <time>2022-07-16T11:36:40Z</time>
      </trkpt>
      <trkpt lat="44.70959" lon="7.05753">
        <ele>2654</ele>
        <time>2022-07-16T11:36:46Z</time>
      </trkpt>
      <trkpt lat="44.70955" lon="7.05755">
        <ele>2653</ele>
        <time>2022-07-16T11:36:51Z</time>
      </trkpt>
      <trkpt lat="44.70954" lon="7.05751">
        <ele>2652</ele>
        <time>2022-07-16T11:36:56Z</time>
      </trkpt>
      <trkpt lat="44.70955" lon="7.05746">
        <ele>2652</ele>
        <time>2022-07-16T11:37:01Z</time>
      </trkpt>
      <trkpt lat="44.70957" lon="7.05741">
        <ele>2651</ele>
        <time>2022-07-16T11:37:07Z</time>
      </trkpt>
      <trkpt lat="44.70953" lon="7.05733">
        <ele>2652</ele>
        <time>2022-07-16T11:37:35Z</time>
      </trkpt>
      <trkpt lat="44.70955" lon="7.0573">
        <ele>2652</ele>
        <time>2022-07-16T11:37:44Z</time>
      </trkpt>
      <trkpt lat="44.70959" lon="7.05728">
        <ele>2649</ele>
        <time>2022-07-16T11:38:18Z</time>
      </trkpt>
      <trkpt lat="44.7096" lon="7.05724">
        <ele>2647</ele>
        <time>2022-07-16T11:38:27Z</time>
      </trkpt>
      <trkpt lat="44.7096" lon="7.05719">
        <ele>2648</ele>
        <time>2022-07-16T11:38:42Z</time>
      </trkpt>
      <trkpt lat="44.70956" lon="7.05717">
        <ele>2648</ele>
        <time>2022-07-16T11:38:50Z</time>
      </trkpt>
      <trkpt lat="44.70959" lon="7.05714">
        <ele>2647</ele>
        <time>2022-07-16T11:38:55Z</time>
      </trkpt>
      <trkpt lat="44.70955" lon="7.05714">
        <ele>2645</ele>
        <time>2022-07-16T11:39:10Z</time>
      </trkpt>
      <trkpt lat="44.70951" lon="7.05713">
        <ele>2640</ele>
        <time>2022-07-16T11:39:16Z</time>
      </trkpt>
      <trkpt lat="44.70948" lon="7.05715">
        <ele>2639</ele>
        <time>2022-07-16T11:39:35Z</time>
      </trkpt>
      <trkpt lat="44.70944" lon="7.05714">
        <ele>2637</ele>
        <time>2022-07-16T11:39:41Z</time>
      </trkpt>
      <trkpt lat="44.7094" lon="7.05713">
        <ele>2637</ele>
        <time>2022-07-16T11:39:47Z</time>
      </trkpt>
      <trkpt lat="44.70936" lon="7.05714">
        <ele>2634</ele>
        <time>2022-07-16T11:39:53Z</time>
      </trkpt>
      <trkpt lat="44.70934" lon="7.0571">
        <ele>2634</ele>
        <time>2022-07-16T11:39:58Z</time>
      </trkpt>
      <trkpt lat="44.70928" lon="7.05704">
        <ele>2632</ele>
        <time>2022-07-16T11:40:08Z</time>
      </trkpt>
      <trkpt lat="44.70925" lon="7.05694">
        <ele>2630</ele>
        <time>2022-07-16T11:40:18Z</time>
      </trkpt>
      <trkpt lat="44.70926" lon="7.05689">
        <ele>2629</ele>
        <time>2022-07-16T11:40:24Z</time>
      </trkpt>
      <trkpt lat="44.70929" lon="7.05686">
        <ele>2628</ele>
        <time>2022-07-16T11:40:33Z</time>
      </trkpt>
      <trkpt lat="44.70927" lon="7.05682">
        <ele>2627</ele>
        <time>2022-07-16T11:40:39Z</time>
      </trkpt>
      <trkpt lat="44.70924" lon="7.05682">
        <ele>2627</ele>
        <time>2022-07-16T11:40:43Z</time>
      </trkpt>
      <trkpt lat="44.70922" lon="7.05676">
        <ele>2625</ele>
        <time>2022-07-16T11:40:47Z</time>
      </trkpt>
      <trkpt lat="44.70923" lon="7.05671">
        <ele>2625</ele>
        <time>2022-07-16T11:40:51Z</time>
      </trkpt>
      <trkpt lat="44.70926" lon="7.05667">
        <ele>2624</ele>
        <time>2022-07-16T11:40:56Z</time>
      </trkpt>
      <trkpt lat="44.70927" lon="7.05662">
        <ele>2624</ele>
        <time>2022-07-16T11:41:00Z</time>
      </trkpt>
      <trkpt lat="44.70928" lon="7.05658">
        <ele>2624</ele>
        <time>2022-07-16T11:41:04Z</time>
      </trkpt>
      <trkpt lat="44.70929" lon="7.05642">
        <ele>2622</ele>
        <time>2022-07-16T11:41:18Z</time>
      </trkpt>
      <trkpt lat="44.70934" lon="7.05636">
        <ele>2620</ele>
        <time>2022-07-16T11:41:27Z</time>
      </trkpt>
      <trkpt lat="44.70938" lon="7.05635">
        <ele>2620</ele>
        <time>2022-07-16T11:41:32Z</time>
      </trkpt>
      <trkpt lat="44.70944" lon="7.0564">
        <ele>2619</ele>
        <time>2022-07-16T11:41:40Z</time>
      </trkpt>
      <trkpt lat="44.70948" lon="7.05642">
        <ele>2619</ele>
        <time>2022-07-16T11:41:45Z</time>
      </trkpt>
      <trkpt lat="44.70952" lon="7.05641">
        <ele>2618</ele>
        <time>2022-07-16T11:41:52Z</time>
      </trkpt>
      <trkpt lat="44.70952" lon="7.05635">
        <ele>2618</ele>
        <time>2022-07-16T11:41:56Z</time>
      </trkpt>
      <trkpt lat="44.7095" lon="7.05631">
        <ele>2618</ele>
        <time>2022-07-16T11:42:03Z</time>
      </trkpt>
      <trkpt lat="44.70947" lon="7.05629">
        <ele>2618</ele>
        <time>2022-07-16T11:42:08Z</time>
      </trkpt>
      <trkpt lat="44.70946" lon="7.05624">
        <ele>2616</ele>
        <time>2022-07-16T11:42:13Z</time>
      </trkpt>
      <trkpt lat="44.70945" lon="7.05619">
        <ele>2616</ele>
        <time>2022-07-16T11:42:19Z</time>
      </trkpt>
      <trkpt lat="44.70943" lon="7.05615">
        <ele>2615</ele>
        <time>2022-07-16T11:42:25Z</time>
      </trkpt>
      <trkpt lat="44.70939" lon="7.05612">
        <ele>2614</ele>
        <time>2022-07-16T11:42:33Z</time>
      </trkpt>
      <trkpt lat="44.7094" lon="7.05607">
        <ele>2613</ele>
        <time>2022-07-16T11:42:39Z</time>
      </trkpt>
      <trkpt lat="44.70942" lon="7.05604">
        <ele>2613</ele>
        <time>2022-07-16T11:42:45Z</time>
      </trkpt>
      <trkpt lat="44.70945" lon="7.05606">
        <ele>2610</ele>
        <time>2022-07-16T11:42:59Z</time>
      </trkpt>
      <trkpt lat="44.70949" lon="7.05603">
        <ele>2609</ele>
        <time>2022-07-16T11:43:08Z</time>
      </trkpt>
      <trkpt lat="44.70949" lon="7.05598">
        <ele>2608</ele>
        <time>2022-07-16T11:43:13Z</time>
      </trkpt>
      <trkpt lat="44.70953" lon="7.05601">
        <ele>2608</ele>
        <time>2022-07-16T11:43:19Z</time>
      </trkpt>
      <trkpt lat="44.70955" lon="7.05611">
        <ele>2605</ele>
        <time>2022-07-16T11:43:31Z</time>
      </trkpt>
      <trkpt lat="44.70961" lon="7.05617">
        <ele>2603</ele>
        <time>2022-07-16T11:43:41Z</time>
      </trkpt>
      <trkpt lat="44.7096" lon="7.05613">
        <ele>2603</ele>
        <time>2022-07-16T11:43:50Z</time>
      </trkpt>
      <trkpt lat="44.70956" lon="7.05611">
        <ele>2604</ele>
        <time>2022-07-16T11:43:54Z</time>
      </trkpt>
      <trkpt lat="44.70956" lon="7.05606">
        <ele>2603</ele>
        <time>2022-07-16T11:43:59Z</time>
      </trkpt>
      <trkpt lat="44.7096" lon="7.05606">
        <ele>2603</ele>
        <time>2022-07-16T11:44:04Z</time>
      </trkpt>
      <trkpt lat="44.70962" lon="7.05601">
        <ele>2599</ele>
        <time>2022-07-16T11:44:16Z</time>
      </trkpt>
      <trkpt lat="44.70962" lon="7.05596">
        <ele>2597</ele>
        <time>2022-07-16T11:44:24Z</time>
      </trkpt>
      <trkpt lat="44.70964" lon="7.05593">
        <ele>2595</ele>
        <time>2022-07-16T11:44:36Z</time>
      </trkpt>
      <trkpt lat="44.70962" lon="7.05588">
        <ele>2594</ele>
        <time>2022-07-16T11:44:40Z</time>
      </trkpt>
      <trkpt lat="44.70955" lon="7.05564">
        <ele>2590</ele>
        <time>2022-07-16T11:45:02Z</time>
      </trkpt>
      <trkpt lat="44.70955" lon="7.05559">
        <ele>2590</ele>
        <time>2022-07-16T11:45:06Z</time>
      </trkpt>
      <trkpt lat="44.70955" lon="7.05553">
        <ele>2589</ele>
        <time>2022-07-16T11:45:11Z</time>
      </trkpt>
      <trkpt lat="44.70953" lon="7.05548">
        <ele>2589</ele>
        <time>2022-07-16T11:45:16Z</time>
      </trkpt>
      <trkpt lat="44.70952" lon="7.05543">
        <ele>2588</ele>
        <time>2022-07-16T11:45:21Z</time>
      </trkpt>
      <trkpt lat="44.70952" lon="7.05538">
        <ele>2588</ele>
        <time>2022-07-16T11:45:25Z</time>
      </trkpt>
      <trkpt lat="44.70951" lon="7.05533">
        <ele>2587</ele>
        <time>2022-07-16T11:45:29Z</time>
      </trkpt>
      <trkpt lat="44.70951" lon="7.05527">
        <ele>2587</ele>
        <time>2022-07-16T11:45:34Z</time>
      </trkpt>
      <trkpt lat="44.7095" lon="7.05522">
        <ele>2586</ele>
        <time>2022-07-16T11:45:39Z</time>
      </trkpt>
      <trkpt lat="44.7095" lon="7.05517">
        <ele>2585</ele>
        <time>2022-07-16T11:45:43Z</time>
      </trkpt>
      <trkpt lat="44.70948" lon="7.05507">
        <ele>2584</ele>
        <time>2022-07-16T11:45:51Z</time>
      </trkpt>
      <trkpt lat="44.70949" lon="7.05497">
        <ele>2583</ele>
        <time>2022-07-16T11:46:01Z</time>
      </trkpt>
      <trkpt lat="44.70949" lon="7.05492">
        <ele>2583</ele>
        <time>2022-07-16T11:46:05Z</time>
      </trkpt>
      <trkpt lat="44.70943" lon="7.05485">
        <ele>2582</ele>
        <time>2022-07-16T11:46:15Z</time>
      </trkpt>
      <trkpt lat="44.70939" lon="7.05484">
        <ele>2582</ele>
        <time>2022-07-16T11:46:21Z</time>
      </trkpt>
      <trkpt lat="44.70936" lon="7.05486">
        <ele>2580</ele>
        <time>2022-07-16T11:46:27Z</time>
      </trkpt>
      <trkpt lat="44.70933" lon="7.05483">
        <ele>2580</ele>
        <time>2022-07-16T11:46:31Z</time>
      </trkpt>
      <trkpt lat="44.70933" lon="7.05478">
        <ele>2580</ele>
        <time>2022-07-16T11:46:35Z</time>
      </trkpt>
      <trkpt lat="44.70936" lon="7.05474">
        <ele>2580</ele>
        <time>2022-07-16T11:46:44Z</time>
      </trkpt>
      <trkpt lat="44.70934" lon="7.05469">
        <ele>2580</ele>
        <time>2022-07-16T11:46:50Z</time>
      </trkpt>
      <trkpt lat="44.70935" lon="7.05464">
        <ele>2579</ele>
        <time>2022-07-16T11:46:55Z</time>
      </trkpt>
      <trkpt lat="44.70932" lon="7.05462">
        <ele>2578</ele>
        <time>2022-07-16T11:46:59Z</time>
      </trkpt>
      <trkpt lat="44.70929" lon="7.05462">
        <ele>2577</ele>
        <time>2022-07-16T11:47:04Z</time>
      </trkpt>
      <trkpt lat="44.70926" lon="7.05465">
        <ele>2575</ele>
        <time>2022-07-16T11:47:11Z</time>
      </trkpt>
      <trkpt lat="44.70924" lon="7.05461">
        <ele>2574</ele>
        <time>2022-07-16T11:47:26Z</time>
      </trkpt>
      <trkpt lat="44.70923" lon="7.05456">
        <ele>2573</ele>
        <time>2022-07-16T11:47:32Z</time>
      </trkpt>
      <trkpt lat="44.70924" lon="7.05451">
        <ele>2572</ele>
        <time>2022-07-16T11:47:38Z</time>
      </trkpt>
      <trkpt lat="44.70925" lon="7.05446">
        <ele>2572</ele>
        <time>2022-07-16T11:47:43Z</time>
      </trkpt>
      <trkpt lat="44.70921" lon="7.05445">
        <ele>2571</ele>
        <time>2022-07-16T11:47:50Z</time>
      </trkpt>
      <trkpt lat="44.70921" lon="7.05439">
        <ele>2570</ele>
        <time>2022-07-16T11:47:55Z</time>
      </trkpt>
      <trkpt lat="44.70919" lon="7.05435">
        <ele>2568</ele>
        <time>2022-07-16T11:48:02Z</time>
      </trkpt>
      <trkpt lat="44.70916" lon="7.05432">
        <ele>2567</ele>
        <time>2022-07-16T11:48:10Z</time>
      </trkpt>
      <trkpt lat="44.70913" lon="7.05427">
        <ele>2565</ele>
        <time>2022-07-16T11:48:15Z</time>
      </trkpt>
      <trkpt lat="44.70911" lon="7.05418">
        <ele>2559</ele>
        <time>2022-07-16T11:48:34Z</time>
      </trkpt>
      <trkpt lat="44.70909" lon="7.05414">
        <ele>2559</ele>
        <time>2022-07-16T11:48:39Z</time>
      </trkpt>
      <trkpt lat="44.70906" lon="7.05416">
        <ele>2558</ele>
        <time>2022-07-16T11:48:47Z</time>
      </trkpt>
      <trkpt lat="44.70904" lon="7.05427">
        <ele>2556</ele>
        <time>2022-07-16T11:48:55Z</time>
      </trkpt>
      <trkpt lat="44.709" lon="7.05428">
        <ele>2555</ele>
        <time>2022-07-16T11:49:00Z</time>
      </trkpt>
      <trkpt lat="44.70896" lon="7.05429">
        <ele>2554</ele>
        <time>2022-07-16T11:49:05Z</time>
      </trkpt>
      <trkpt lat="44.70894" lon="7.05425">
        <ele>2553</ele>
        <time>2022-07-16T11:49:11Z</time>
      </trkpt>
      <trkpt lat="44.7089" lon="7.05425">
        <ele>2552</ele>
        <time>2022-07-16T11:49:15Z</time>
      </trkpt>
      <trkpt lat="44.70886" lon="7.05428">
        <ele>2551</ele>
        <time>2022-07-16T11:49:20Z</time>
      </trkpt>
      <trkpt lat="44.70882" lon="7.0543">
        <ele>2548</ele>
        <time>2022-07-16T11:49:25Z</time>
      </trkpt>
      <trkpt lat="44.70879" lon="7.05429">
        <ele>2547</ele>
        <time>2022-07-16T11:49:33Z</time>
      </trkpt>
      <trkpt lat="44.70876" lon="7.05432">
        <ele>2545</ele>
        <time>2022-07-16T11:49:38Z</time>
      </trkpt>
      <trkpt lat="44.70872" lon="7.05433">
        <ele>2545</ele>
        <time>2022-07-16T11:49:42Z</time>
      </trkpt>
      <trkpt lat="44.70868" lon="7.05432">
        <ele>2543</ele>
        <time>2022-07-16T11:49:47Z</time>
      </trkpt>
      <trkpt lat="44.70865" lon="7.0543">
        <ele>2542</ele>
        <time>2022-07-16T11:49:52Z</time>
      </trkpt>
      <trkpt lat="44.70861" lon="7.0543">
        <ele>2542</ele>
        <time>2022-07-16T11:49:57Z</time>
      </trkpt>
      <trkpt lat="44.70858" lon="7.05428">
        <ele>2541</ele>
        <time>2022-07-16T11:50:03Z</time>
      </trkpt>
      <trkpt lat="44.70855" lon="7.05425">
        <ele>2539</ele>
        <time>2022-07-16T11:50:09Z</time>
      </trkpt>
      <trkpt lat="44.70852" lon="7.05424">
        <ele>2538</ele>
        <time>2022-07-16T11:50:15Z</time>
      </trkpt>
      <trkpt lat="44.7085" lon="7.05419">
        <ele>2537</ele>
        <time>2022-07-16T11:50:21Z</time>
      </trkpt>
      <trkpt lat="44.70849" lon="7.05414">
        <ele>2537</ele>
        <time>2022-07-16T11:50:27Z</time>
      </trkpt>
      <trkpt lat="44.70848" lon="7.0541">
        <ele>2536</ele>
        <time>2022-07-16T11:50:31Z</time>
      </trkpt>
      <trkpt lat="44.70847" lon="7.05405">
        <ele>2536</ele>
        <time>2022-07-16T11:50:37Z</time>
      </trkpt>
      <trkpt lat="44.70844" lon="7.05403">
        <ele>2534</ele>
        <time>2022-07-16T11:50:42Z</time>
      </trkpt>
      <trkpt lat="44.70841" lon="7.05401">
        <ele>2534</ele>
        <time>2022-07-16T11:50:46Z</time>
      </trkpt>
      <trkpt lat="44.70838" lon="7.05391">
        <ele>2533</ele>
        <time>2022-07-16T11:50:55Z</time>
      </trkpt>
      <trkpt lat="44.70836" lon="7.05387">
        <ele>2534</ele>
        <time>2022-07-16T11:51:00Z</time>
      </trkpt>
      <trkpt lat="44.70835" lon="7.05381">
        <ele>2534</ele>
        <time>2022-07-16T11:51:05Z</time>
      </trkpt>
      <trkpt lat="44.70833" lon="7.05377">
        <ele>2536</ele>
        <time>2022-07-16T11:51:10Z</time>
      </trkpt>
      <trkpt lat="44.7083" lon="7.05374">
        <ele>2536</ele>
        <time>2022-07-16T11:51:15Z</time>
      </trkpt>
      <trkpt lat="44.70829" lon="7.05369">
        <ele>2535</ele>
        <time>2022-07-16T11:51:20Z</time>
      </trkpt>
      <trkpt lat="44.70828" lon="7.05363">
        <ele>2535</ele>
        <time>2022-07-16T11:51:25Z</time>
      </trkpt>
      <trkpt lat="44.70828" lon="7.05358">
        <ele>2535</ele>
        <time>2022-07-16T11:51:31Z</time>
      </trkpt>
      <trkpt lat="44.70828" lon="7.05353">
        <ele>2535</ele>
        <time>2022-07-16T11:51:36Z</time>
      </trkpt>
      <trkpt lat="44.70826" lon="7.05348">
        <ele>2535</ele>
        <time>2022-07-16T11:51:41Z</time>
      </trkpt>
      <trkpt lat="44.70822" lon="7.05346">
        <ele>2534</ele>
        <time>2022-07-16T11:51:44Z</time>
      </trkpt>
      <trkpt lat="44.70819" lon="7.05332">
        <ele>2533</ele>
        <time>2022-07-16T11:52:02Z</time>
      </trkpt>
      <trkpt lat="44.70819" lon="7.05327">
        <ele>2533</ele>
        <time>2022-07-16T11:52:07Z</time>
      </trkpt>
      <trkpt lat="44.70821" lon="7.05317">
        <ele>2532</ele>
        <time>2022-07-16T11:52:17Z</time>
      </trkpt>
      <trkpt lat="44.70819" lon="7.05313">
        <ele>2532</ele>
        <time>2022-07-16T11:52:23Z</time>
      </trkpt>
      <trkpt lat="44.70818" lon="7.05307">
        <ele>2531</ele>
        <time>2022-07-16T11:52:29Z</time>
      </trkpt>
      <trkpt lat="44.70818" lon="7.05302">
        <ele>2531</ele>
        <time>2022-07-16T11:52:36Z</time>
      </trkpt>
      <trkpt lat="44.70817" lon="7.05297">
        <ele>2530</ele>
        <time>2022-07-16T11:52:42Z</time>
      </trkpt>
      <trkpt lat="44.70816" lon="7.05292">
        <ele>2529</ele>
        <time>2022-07-16T11:52:48Z</time>
      </trkpt>
      <trkpt lat="44.70816" lon="7.05287">
        <ele>2528</ele>
        <time>2022-07-16T11:52:54Z</time>
      </trkpt>
      <trkpt lat="44.70815" lon="7.05282">
        <ele>2528</ele>
        <time>2022-07-16T11:52:59Z</time>
      </trkpt>
      <trkpt lat="44.70813" lon="7.05277">
        <ele>2530</ele>
        <time>2022-07-16T11:53:03Z</time>
      </trkpt>
      <trkpt lat="44.70812" lon="7.05272">
        <ele>2530</ele>
        <time>2022-07-16T11:53:08Z</time>
      </trkpt>
      <trkpt lat="44.70811" lon="7.05269">
        <ele>2531</ele>
        <time>2022-07-16T11:53:17Z</time>
      </trkpt>
      <trkpt lat="44.70812" lon="7.05265">
        <ele>2530</ele>
        <time>2022-07-16T11:53:26Z</time>
      </trkpt>
      <trkpt lat="44.70815" lon="7.05263">
        <ele>2529</ele>
        <time>2022-07-16T11:53:32Z</time>
      </trkpt>
      <trkpt lat="44.70816" lon="7.05258">
        <ele>2526</ele>
        <time>2022-07-16T11:53:40Z</time>
      </trkpt>
      <trkpt lat="44.70818" lon="7.05254">
        <ele>2524</ele>
        <time>2022-07-16T11:53:47Z</time>
      </trkpt>
      <trkpt lat="44.70816" lon="7.05251">
        <ele>2523</ele>
        <time>2022-07-16T11:53:56Z</time>
      </trkpt>
      <trkpt lat="44.70815" lon="7.0524">
        <ele>2519</ele>
        <time>2022-07-16T11:54:08Z</time>
      </trkpt>
      <trkpt lat="44.7081" lon="7.05232">
        <ele>2514</ele>
        <time>2022-07-16T11:54:20Z</time>
      </trkpt>
      <trkpt lat="44.70807" lon="7.05229">
        <ele>2511</ele>
        <time>2022-07-16T11:54:26Z</time>
      </trkpt>
      <trkpt lat="44.7081" lon="7.05225">
        <ele>2511</ele>
        <time>2022-07-16T11:54:31Z</time>
      </trkpt>
      <trkpt lat="44.70812" lon="7.05221">
        <ele>2509</ele>
        <time>2022-07-16T11:54:37Z</time>
      </trkpt>
      <trkpt lat="44.70815" lon="7.05218">
        <ele>2508</ele>
        <time>2022-07-16T11:54:43Z</time>
      </trkpt>
      <trkpt lat="44.70817" lon="7.05213">
        <ele>2507</ele>
        <time>2022-07-16T11:54:50Z</time>
      </trkpt>
      <trkpt lat="44.7082" lon="7.0521">
        <ele>2507</ele>
        <time>2022-07-16T11:54:57Z</time>
      </trkpt>
      <trkpt lat="44.7082" lon="7.05204">
        <ele>2505</ele>
        <time>2022-07-16T11:55:03Z</time>
      </trkpt>
      <trkpt lat="44.70817" lon="7.052">
        <ele>2505</ele>
        <time>2022-07-16T11:55:13Z</time>
      </trkpt>
      <trkpt lat="44.70814" lon="7.05198">
        <ele>2504</ele>
        <time>2022-07-16T11:55:17Z</time>
      </trkpt>
      <trkpt lat="44.70812" lon="7.05194">
        <ele>2503</ele>
        <time>2022-07-16T11:55:22Z</time>
      </trkpt>
      <trkpt lat="44.70812" lon="7.05189">
        <ele>2501</ele>
        <time>2022-07-16T11:55:28Z</time>
      </trkpt>
      <trkpt lat="44.70814" lon="7.05185">
        <ele>2501</ele>
        <time>2022-07-16T11:55:32Z</time>
      </trkpt>
      <trkpt lat="44.70816" lon="7.05174">
        <ele>2500</ele>
        <time>2022-07-16T11:55:41Z</time>
      </trkpt>
      <trkpt lat="44.70817" lon="7.05169">
        <ele>2498</ele>
        <time>2022-07-16T11:55:48Z</time>
      </trkpt>
      <trkpt lat="44.70814" lon="7.05166">
        <ele>2498</ele>
        <time>2022-07-16T11:55:53Z</time>
      </trkpt>
      <trkpt lat="44.70811" lon="7.05162">
        <ele>2496</ele>
        <time>2022-07-16T11:55:58Z</time>
      </trkpt>
      <trkpt lat="44.70809" lon="7.05157">
        <ele>2496</ele>
        <time>2022-07-16T11:56:03Z</time>
      </trkpt>
      <trkpt lat="44.70811" lon="7.05152">
        <ele>2495</ele>
        <time>2022-07-16T11:56:08Z</time>
      </trkpt>
      <trkpt lat="44.70812" lon="7.05147">
        <ele>2495</ele>
        <time>2022-07-16T11:56:13Z</time>
      </trkpt>
      <trkpt lat="44.70817" lon="7.05138">
        <ele>2494</ele>
        <time>2022-07-16T11:56:22Z</time>
      </trkpt>
      <trkpt lat="44.70818" lon="7.05134">
        <ele>2493</ele>
        <time>2022-07-16T11:56:27Z</time>
      </trkpt>
      <trkpt lat="44.70823" lon="7.05125">
        <ele>2491</ele>
        <time>2022-07-16T11:56:39Z</time>
      </trkpt>
      <trkpt lat="44.70827" lon="7.05125">
        <ele>2490</ele>
        <time>2022-07-16T11:56:44Z</time>
      </trkpt>
      <trkpt lat="44.7083" lon="7.05122">
        <ele>2490</ele>
        <time>2022-07-16T11:56:48Z</time>
      </trkpt>
      <trkpt lat="44.70834" lon="7.05119">
        <ele>2488</ele>
        <time>2022-07-16T11:56:54Z</time>
      </trkpt>
      <trkpt lat="44.70834" lon="7.05114">
        <ele>2488</ele>
        <time>2022-07-16T11:56:59Z</time>
      </trkpt>
      <trkpt lat="44.70824" lon="7.05106">
        <ele>2486</ele>
        <time>2022-07-16T11:57:14Z</time>
      </trkpt>
      <trkpt lat="44.70822" lon="7.05102">
        <ele>2485</ele>
        <time>2022-07-16T11:57:19Z</time>
      </trkpt>
      <trkpt lat="44.70814" lon="7.0509">
        <ele>2484</ele>
        <time>2022-07-16T11:57:32Z</time>
      </trkpt>
      <trkpt lat="44.70812" lon="7.05086">
        <ele>2484</ele>
        <time>2022-07-16T11:57:36Z</time>
      </trkpt>
      <trkpt lat="44.70807" lon="7.05078">
        <ele>2483</ele>
        <time>2022-07-16T11:57:57Z</time>
      </trkpt>
      <trkpt lat="44.70806" lon="7.05074">
        <ele>2482</ele>
        <time>2022-07-16T11:58:01Z</time>
      </trkpt>
      <trkpt lat="44.70804" lon="7.05069">
        <ele>2482</ele>
        <time>2022-07-16T11:58:06Z</time>
      </trkpt>
      <trkpt lat="44.70807" lon="7.05065">
        <ele>2481</ele>
        <time>2022-07-16T11:58:11Z</time>
      </trkpt>
      <trkpt lat="44.70807" lon="7.0506">
        <ele>2481</ele>
        <time>2022-07-16T11:58:15Z</time>
      </trkpt>
      <trkpt lat="44.7081" lon="7.05056">
        <ele>2481</ele>
        <time>2022-07-16T11:58:19Z</time>
      </trkpt>
      <trkpt lat="44.7081" lon="7.0505">
        <ele>2481</ele>
        <time>2022-07-16T11:58:23Z</time>
      </trkpt>
      <trkpt lat="44.70808" lon="7.05046">
        <ele>2480</ele>
        <time>2022-07-16T11:58:27Z</time>
      </trkpt>
      <trkpt lat="44.70807" lon="7.05041">
        <ele>2479</ele>
        <time>2022-07-16T11:58:32Z</time>
      </trkpt>
      <trkpt lat="44.7081" lon="7.0502">
        <ele>2477</ele>
        <time>2022-07-16T11:58:54Z</time>
      </trkpt>
      <trkpt lat="44.70808" lon="7.05016">
        <ele>2475</ele>
        <time>2022-07-16T11:59:00Z</time>
      </trkpt>
      <trkpt lat="44.70809" lon="7.0501">
        <ele>2472</ele>
        <time>2022-07-16T12:00:01Z</time>
      </trkpt>
      <trkpt lat="44.70809" lon="7.05005">
        <ele>2470</ele>
        <time>2022-07-16T12:00:05Z</time>
      </trkpt>
      <trkpt lat="44.70808" lon="7.05">
        <ele>2470</ele>
        <time>2022-07-16T12:00:09Z</time>
      </trkpt>
      <trkpt lat="44.70808" lon="7.04973">
        <ele>2466</ele>
        <time>2022-07-16T12:00:27Z</time>
      </trkpt>
      <trkpt lat="44.70811" lon="7.04962">
        <ele>2466</ele>
        <time>2022-07-16T12:00:50Z</time>
      </trkpt>
      <trkpt lat="44.70809" lon="7.04957">
        <ele>2466</ele>
        <time>2022-07-16T12:00:54Z</time>
      </trkpt>
      <trkpt lat="44.708" lon="7.04947">
        <ele>2464</ele>
        <time>2022-07-16T12:01:04Z</time>
      </trkpt>
      <trkpt lat="44.70798" lon="7.04942">
        <ele>2463</ele>
        <time>2022-07-16T12:01:08Z</time>
      </trkpt>
      <trkpt lat="44.70789" lon="7.04932">
        <ele>2462</ele>
        <time>2022-07-16T12:01:19Z</time>
      </trkpt>
      <trkpt lat="44.70787" lon="7.04928">
        <ele>2461</ele>
        <time>2022-07-16T12:01:23Z</time>
      </trkpt>
      <trkpt lat="44.70784" lon="7.04925">
        <ele>2461</ele>
        <time>2022-07-16T12:01:28Z</time>
      </trkpt>
      <trkpt lat="44.70782" lon="7.04922">
        <ele>2460</ele>
        <time>2022-07-16T12:01:33Z</time>
      </trkpt>
      <trkpt lat="44.70776" lon="7.04915">
        <ele>2458</ele>
        <time>2022-07-16T12:01:41Z</time>
      </trkpt>
      <trkpt lat="44.70766" lon="7.0491">
        <ele>2456</ele>
        <time>2022-07-16T12:01:53Z</time>
      </trkpt>
      <trkpt lat="44.70754" lon="7.04913">
        <ele>2455</ele>
        <time>2022-07-16T12:02:06Z</time>
      </trkpt>
      <trkpt lat="44.70751" lon="7.04915">
        <ele>2454</ele>
        <time>2022-07-16T12:02:10Z</time>
      </trkpt>
      <trkpt lat="44.70747" lon="7.04916">
        <ele>2453</ele>
        <time>2022-07-16T12:02:14Z</time>
      </trkpt>
      <trkpt lat="44.70735" lon="7.04919">
        <ele>2452</ele>
        <time>2022-07-16T12:02:26Z</time>
      </trkpt>
      <trkpt lat="44.70732" lon="7.0492">
        <ele>2451</ele>
        <time>2022-07-16T12:02:37Z</time>
      </trkpt>
      <trkpt lat="44.70728" lon="7.04917">
        <ele>2450</ele>
        <time>2022-07-16T12:02:42Z</time>
      </trkpt>
      <trkpt lat="44.70725" lon="7.04909">
        <ele>2449</ele>
        <time>2022-07-16T12:02:49Z</time>
      </trkpt>
      <trkpt lat="44.70723" lon="7.04903">
        <ele>2449</ele>
        <time>2022-07-16T12:02:53Z</time>
      </trkpt>
      <trkpt lat="44.70719" lon="7.04888">
        <ele>2448</ele>
        <time>2022-07-16T12:03:05Z</time>
      </trkpt>
      <trkpt lat="44.70717" lon="7.04877">
        <ele>2448</ele>
        <time>2022-07-16T12:03:13Z</time>
      </trkpt>
      <trkpt lat="44.70711" lon="7.04863">
        <ele>2446</ele>
        <time>2022-07-16T12:03:25Z</time>
      </trkpt>
      <trkpt lat="44.70708" lon="7.04852">
        <ele>2445</ele>
        <time>2022-07-16T12:03:33Z</time>
      </trkpt>
      <trkpt lat="44.70705" lon="7.04849">
        <ele>2445</ele>
        <time>2022-07-16T12:03:41Z</time>
      </trkpt>
      <trkpt lat="44.70701" lon="7.04839">
        <ele>2443</ele>
        <time>2022-07-16T12:03:49Z</time>
      </trkpt>
      <trkpt lat="44.70695" lon="7.04815">
        <ele>2441</ele>
        <time>2022-07-16T12:04:09Z</time>
      </trkpt>
      <trkpt lat="44.70692" lon="7.04813">
        <ele>2440</ele>
        <time>2022-07-16T12:04:13Z</time>
      </trkpt>
      <trkpt lat="44.7069" lon="7.04809">
        <ele>2440</ele>
        <time>2022-07-16T12:04:18Z</time>
      </trkpt>
      <trkpt lat="44.70691" lon="7.04803">
        <ele>2439</ele>
        <time>2022-07-16T12:04:23Z</time>
      </trkpt>
      <trkpt lat="44.70687" lon="7.04789">
        <ele>2437</ele>
        <time>2022-07-16T12:04:37Z</time>
      </trkpt>
      <trkpt lat="44.70687" lon="7.04784">
        <ele>2437</ele>
        <time>2022-07-16T12:04:44Z</time>
      </trkpt>
      <trkpt lat="44.70689" lon="7.04773">
        <ele>2435</ele>
        <time>2022-07-16T12:04:55Z</time>
      </trkpt>
      <trkpt lat="44.70691" lon="7.04769">
        <ele>2434</ele>
        <time>2022-07-16T12:05:00Z</time>
      </trkpt>
      <trkpt lat="44.7069" lon="7.04764">
        <ele>2433</ele>
        <time>2022-07-16T12:05:05Z</time>
      </trkpt>
      <trkpt lat="44.70691" lon="7.04758">
        <ele>2432</ele>
        <time>2022-07-16T12:05:10Z</time>
      </trkpt>
      <trkpt lat="44.70691" lon="7.04754">
        <ele>2431</ele>
        <time>2022-07-16T12:05:15Z</time>
      </trkpt>
      <trkpt lat="44.7069" lon="7.04749">
        <ele>2430</ele>
        <time>2022-07-16T12:05:19Z</time>
      </trkpt>
      <trkpt lat="44.70694" lon="7.04733">
        <ele>2427</ele>
        <time>2022-07-16T12:05:34Z</time>
      </trkpt>
      <trkpt lat="44.70692" lon="7.04729">
        <ele>2427</ele>
        <time>2022-07-16T12:05:39Z</time>
      </trkpt>
      <trkpt lat="44.70688" lon="7.04731">
        <ele>2427</ele>
        <time>2022-07-16T12:05:44Z</time>
      </trkpt>
      <trkpt lat="44.70686" lon="7.04727">
        <ele>2425</ele>
        <time>2022-07-16T12:05:49Z</time>
      </trkpt>
      <trkpt lat="44.70687" lon="7.04722">
        <ele>2424</ele>
        <time>2022-07-16T12:05:54Z</time>
      </trkpt>
      <trkpt lat="44.70689" lon="7.04717">
        <ele>2422</ele>
        <time>2022-07-16T12:05:58Z</time>
      </trkpt>
      <trkpt lat="44.70691" lon="7.04713">
        <ele>2422</ele>
        <time>2022-07-16T12:06:03Z</time>
      </trkpt>
      <trkpt lat="44.70694" lon="7.0471">
        <ele>2421</ele>
        <time>2022-07-16T12:06:08Z</time>
      </trkpt>
      <trkpt lat="44.707" lon="7.04703">
        <ele>2420</ele>
        <time>2022-07-16T12:06:18Z</time>
      </trkpt>
      <trkpt lat="44.70703" lon="7.04699">
        <ele>2419</ele>
        <time>2022-07-16T12:06:22Z</time>
      </trkpt>
      <trkpt lat="44.707" lon="7.04696">
        <ele>2419</ele>
        <time>2022-07-16T12:06:28Z</time>
      </trkpt>
      <trkpt lat="44.70688" lon="7.04698">
        <ele>2416</ele>
        <time>2022-07-16T12:06:42Z</time>
      </trkpt>
      <trkpt lat="44.70684" lon="7.04697">
        <ele>2416</ele>
        <time>2022-07-16T12:06:47Z</time>
      </trkpt>
      <trkpt lat="44.70684" lon="7.04692">
        <ele>2415</ele>
        <time>2022-07-16T12:06:51Z</time>
      </trkpt>
      <trkpt lat="44.70692" lon="7.0468">
        <ele>2412</ele>
        <time>2022-07-16T12:07:06Z</time>
      </trkpt>
      <trkpt lat="44.70694" lon="7.04676">
        <ele>2411</ele>
        <time>2022-07-16T12:07:11Z</time>
      </trkpt>
      <trkpt lat="44.70695" lon="7.04671">
        <ele>2410</ele>
        <time>2022-07-16T12:07:16Z</time>
      </trkpt>
      <trkpt lat="44.70696" lon="7.04666">
        <ele>2409</ele>
        <time>2022-07-16T12:07:21Z</time>
      </trkpt>
      <trkpt lat="44.70699" lon="7.04663">
        <ele>2408</ele>
        <time>2022-07-16T12:07:26Z</time>
      </trkpt>
      <trkpt lat="44.7071" lon="7.04657">
        <ele>2405</ele>
        <time>2022-07-16T12:07:41Z</time>
      </trkpt>
      <trkpt lat="44.70714" lon="7.04657">
        <ele>2404</ele>
        <time>2022-07-16T12:07:45Z</time>
      </trkpt>
      <trkpt lat="44.70718" lon="7.04659">
        <ele>2403</ele>
        <time>2022-07-16T12:07:49Z</time>
      </trkpt>
      <trkpt lat="44.70721" lon="7.0466">
        <ele>2403</ele>
        <time>2022-07-16T12:07:53Z</time>
      </trkpt>
      <trkpt lat="44.70724" lon="7.04657">
        <ele>2403</ele>
        <time>2022-07-16T12:07:57Z</time>
      </trkpt>
      <trkpt lat="44.70728" lon="7.04655">
        <ele>2402</ele>
        <time>2022-07-16T12:08:02Z</time>
      </trkpt>
      <trkpt lat="44.70734" lon="7.04648">
        <ele>2401</ele>
        <time>2022-07-16T12:08:12Z</time>
      </trkpt>
      <trkpt lat="44.70737" lon="7.04645">
        <ele>2400</ele>
        <time>2022-07-16T12:08:17Z</time>
      </trkpt>
      <trkpt lat="44.70751" lon="7.04626">
        <ele>2394</ele>
        <time>2022-07-16T12:08:51Z</time>
      </trkpt>
      <trkpt lat="44.70748" lon="7.04622">
        <ele>2394</ele>
        <time>2022-07-16T12:08:56Z</time>
      </trkpt>
      <trkpt lat="44.70741" lon="7.04618">
        <ele>2393</ele>
        <time>2022-07-16T12:09:04Z</time>
      </trkpt>
      <trkpt lat="44.70737" lon="7.04616">
        <ele>2392</ele>
        <time>2022-07-16T12:09:09Z</time>
      </trkpt>
      <trkpt lat="44.70733" lon="7.04616">
        <ele>2391</ele>
        <time>2022-07-16T12:09:13Z</time>
      </trkpt>
      <trkpt lat="44.7073" lon="7.04614">
        <ele>2390</ele>
        <time>2022-07-16T12:09:17Z</time>
      </trkpt>
      <trkpt lat="44.70728" lon="7.0461">
        <ele>2390</ele>
        <time>2022-07-16T12:09:21Z</time>
      </trkpt>
      <trkpt lat="44.70727" lon="7.04605">
        <ele>2389</ele>
        <time>2022-07-16T12:09:25Z</time>
      </trkpt>
      <trkpt lat="44.70724" lon="7.04603">
        <ele>2388</ele>
        <time>2022-07-16T12:09:29Z</time>
      </trkpt>
      <trkpt lat="44.70721" lon="7.04599">
        <ele>2387</ele>
        <time>2022-07-16T12:09:33Z</time>
      </trkpt>
      <trkpt lat="44.70718" lon="7.04596">
        <ele>2386</ele>
        <time>2022-07-16T12:09:37Z</time>
      </trkpt>
      <trkpt lat="44.70717" lon="7.04591">
        <ele>2385</ele>
        <time>2022-07-16T12:09:41Z</time>
      </trkpt>
      <trkpt lat="44.70716" lon="7.04586">
        <ele>2385</ele>
        <time>2022-07-16T12:09:45Z</time>
      </trkpt>
      <trkpt lat="44.70711" lon="7.04579">
        <ele>2384</ele>
        <time>2022-07-16T12:09:54Z</time>
      </trkpt>
      <trkpt lat="44.70714" lon="7.04575">
        <ele>2383</ele>
        <time>2022-07-16T12:10:01Z</time>
      </trkpt>
      <trkpt lat="44.7072" lon="7.0457">
        <ele>2380</ele>
        <time>2022-07-16T12:10:10Z</time>
      </trkpt>
      <trkpt lat="44.70724" lon="7.04568">
        <ele>2378</ele>
        <time>2022-07-16T12:10:16Z</time>
      </trkpt>
      <trkpt lat="44.70728" lon="7.04566">
        <ele>2377</ele>
        <time>2022-07-16T12:10:21Z</time>
      </trkpt>
      <trkpt lat="44.70726" lon="7.04561">
        <ele>2377</ele>
        <time>2022-07-16T12:10:26Z</time>
      </trkpt>
      <trkpt lat="44.70722" lon="7.04552">
        <ele>2375</ele>
        <time>2022-07-16T12:10:36Z</time>
      </trkpt>
      <trkpt lat="44.70724" lon="7.04543">
        <ele>2373</ele>
        <time>2022-07-16T12:10:46Z</time>
      </trkpt>
      <trkpt lat="44.70726" lon="7.04538">
        <ele>2371</ele>
        <time>2022-07-16T12:10:51Z</time>
      </trkpt>
      <trkpt lat="44.70727" lon="7.04533">
        <ele>2371</ele>
        <time>2022-07-16T12:10:56Z</time>
      </trkpt>
      <trkpt lat="44.70726" lon="7.04528">
        <ele>2369</ele>
        <time>2022-07-16T12:11:01Z</time>
      </trkpt>
      <trkpt lat="44.70725" lon="7.04523">
        <ele>2369</ele>
        <time>2022-07-16T12:11:06Z</time>
      </trkpt>
      <trkpt lat="44.70728" lon="7.04491">
        <ele>2363</ele>
        <time>2022-07-16T12:11:33Z</time>
      </trkpt>
      <trkpt lat="44.7074" lon="7.04464">
        <ele>2358</ele>
        <time>2022-07-16T12:11:58Z</time>
      </trkpt>
      <trkpt lat="44.70742" lon="7.04454">
        <ele>2357</ele>
        <time>2022-07-16T12:12:07Z</time>
      </trkpt>
      <trkpt lat="44.70744" lon="7.04444">
        <ele>2356</ele>
        <time>2022-07-16T12:12:39Z</time>
      </trkpt>
      <trkpt lat="44.70749" lon="7.04435">
        <ele>2355</ele>
        <time>2022-07-16T12:12:48Z</time>
      </trkpt>
      <trkpt lat="44.7075" lon="7.0443">
        <ele>2354</ele>
        <time>2022-07-16T12:12:54Z</time>
      </trkpt>
      <trkpt lat="44.70752" lon="7.04426">
        <ele>2352</ele>
        <time>2022-07-16T12:12:59Z</time>
      </trkpt>
      <trkpt lat="44.70752" lon="7.04415">
        <ele>2350</ele>
        <time>2022-07-16T12:13:09Z</time>
      </trkpt>
      <trkpt lat="44.70753" lon="7.0441">
        <ele>2350</ele>
        <time>2022-07-16T12:13:13Z</time>
      </trkpt>
      <trkpt lat="44.70755" lon="7.04404">
        <ele>2349</ele>
        <time>2022-07-16T12:13:18Z</time>
      </trkpt>
      <trkpt lat="44.70755" lon="7.04399">
        <ele>2348</ele>
        <time>2022-07-16T12:13:23Z</time>
      </trkpt>
      <trkpt lat="44.7076" lon="7.04384">
        <ele>2345</ele>
        <time>2022-07-16T12:13:38Z</time>
      </trkpt>
      <trkpt lat="44.70763" lon="7.04381">
        <ele>2343</ele>
        <time>2022-07-16T12:13:42Z</time>
      </trkpt>
      <trkpt lat="44.70769" lon="7.04368">
        <ele>2340</ele>
        <time>2022-07-16T12:13:54Z</time>
      </trkpt>
      <trkpt lat="44.70772" lon="7.04352">
        <ele>2338</ele>
        <time>2022-07-16T12:14:07Z</time>
      </trkpt>
      <trkpt lat="44.70774" lon="7.04348">
        <ele>2338</ele>
        <time>2022-07-16T12:14:12Z</time>
      </trkpt>
      <trkpt lat="44.70775" lon="7.04342">
        <ele>2337</ele>
        <time>2022-07-16T12:14:17Z</time>
      </trkpt>
      <trkpt lat="44.70775" lon="7.04337">
        <ele>2336</ele>
        <time>2022-07-16T12:14:21Z</time>
      </trkpt>
      <trkpt lat="44.70778" lon="7.04333">
        <ele>2335</ele>
        <time>2022-07-16T12:14:26Z</time>
      </trkpt>
      <trkpt lat="44.7078" lon="7.04328">
        <ele>2334</ele>
        <time>2022-07-16T12:14:31Z</time>
      </trkpt>
      <trkpt lat="44.70781" lon="7.04323">
        <ele>2334</ele>
        <time>2022-07-16T12:14:35Z</time>
      </trkpt>
      <trkpt lat="44.70781" lon="7.04318">
        <ele>2334</ele>
        <time>2022-07-16T12:14:40Z</time>
      </trkpt>
      <trkpt lat="44.70784" lon="7.04313">
        <ele>2333</ele>
        <time>2022-07-16T12:14:44Z</time>
      </trkpt>
      <trkpt lat="44.70784" lon="7.04308">
        <ele>2332</ele>
        <time>2022-07-16T12:14:48Z</time>
      </trkpt>
      <trkpt lat="44.70785" lon="7.04303">
        <ele>2331</ele>
        <time>2022-07-16T12:14:53Z</time>
      </trkpt>
      <trkpt lat="44.70786" lon="7.04298">
        <ele>2331</ele>
        <time>2022-07-16T12:14:57Z</time>
      </trkpt>
      <trkpt lat="44.70787" lon="7.04293">
        <ele>2330</ele>
        <time>2022-07-16T12:15:02Z</time>
      </trkpt>
      <trkpt lat="44.70786" lon="7.04283">
        <ele>2328</ele>
        <time>2022-07-16T12:15:11Z</time>
      </trkpt>
      <trkpt lat="44.70786" lon="7.04278">
        <ele>2328</ele>
        <time>2022-07-16T12:15:15Z</time>
      </trkpt>
      <trkpt lat="44.70791" lon="7.04259">
        <ele>2324</ele>
        <time>2022-07-16T12:15:32Z</time>
      </trkpt>
      <trkpt lat="44.70791" lon="7.04253">
        <ele>2322</ele>
        <time>2022-07-16T12:15:37Z</time>
      </trkpt>
      <trkpt lat="44.70793" lon="7.04248">
        <ele>2322</ele>
        <time>2022-07-16T12:15:42Z</time>
      </trkpt>
      <trkpt lat="44.70794" lon="7.04244">
        <ele>2321</ele>
        <time>2022-07-16T12:15:46Z</time>
      </trkpt>
      <trkpt lat="44.70797" lon="7.0424">
        <ele>2320</ele>
        <time>2022-07-16T12:15:51Z</time>
      </trkpt>
      <trkpt lat="44.70799" lon="7.04235">
        <ele>2319</ele>
        <time>2022-07-16T12:15:56Z</time>
      </trkpt>
      <trkpt lat="44.70801" lon="7.04231">
        <ele>2318</ele>
        <time>2022-07-16T12:16:01Z</time>
      </trkpt>
      <trkpt lat="44.70803" lon="7.04226">
        <ele>2317</ele>
        <time>2022-07-16T12:16:06Z</time>
      </trkpt>
      <trkpt lat="44.70802" lon="7.0422">
        <ele>2316</ele>
        <time>2022-07-16T12:16:11Z</time>
      </trkpt>
      <trkpt lat="44.708" lon="7.04216">
        <ele>2315</ele>
        <time>2022-07-16T12:16:16Z</time>
      </trkpt>
      <trkpt lat="44.70797" lon="7.04212">
        <ele>2314</ele>
        <time>2022-07-16T12:16:20Z</time>
      </trkpt>
      <trkpt lat="44.7079" lon="7.04199">
        <ele>2312</ele>
        <time>2022-07-16T12:16:35Z</time>
      </trkpt>
      <trkpt lat="44.70788" lon="7.04195">
        <ele>2311</ele>
        <time>2022-07-16T12:16:39Z</time>
      </trkpt>
      <trkpt lat="44.70785" lon="7.04192">
        <ele>2310</ele>
        <time>2022-07-16T12:16:44Z</time>
      </trkpt>
      <trkpt lat="44.70783" lon="7.04188">
        <ele>2309</ele>
        <time>2022-07-16T12:16:49Z</time>
      </trkpt>
      <trkpt lat="44.70782" lon="7.04182">
        <ele>2308</ele>
        <time>2022-07-16T12:16:54Z</time>
      </trkpt>
      <trkpt lat="44.70783" lon="7.04176">
        <ele>2307</ele>
        <time>2022-07-16T12:16:59Z</time>
      </trkpt>
      <trkpt lat="44.70782" lon="7.04172">
        <ele>2306</ele>
        <time>2022-07-16T12:17:04Z</time>
      </trkpt>
      <trkpt lat="44.70786" lon="7.04163">
        <ele>2304</ele>
        <time>2022-07-16T12:17:14Z</time>
      </trkpt>
      <trkpt lat="44.70787" lon="7.04159">
        <ele>2303</ele>
        <time>2022-07-16T12:17:19Z</time>
      </trkpt>
      <trkpt lat="44.70786" lon="7.04154">
        <ele>2302</ele>
        <time>2022-07-16T12:17:23Z</time>
      </trkpt>
      <trkpt lat="44.70783" lon="7.04129">
        <ele>2299</ele>
        <time>2022-07-16T12:17:44Z</time>
      </trkpt>
      <trkpt lat="44.7078" lon="7.04119">
        <ele>2299</ele>
        <time>2022-07-16T12:17:52Z</time>
      </trkpt>
      <trkpt lat="44.70778" lon="7.04116">
        <ele>2298</ele>
        <time>2022-07-16T12:17:56Z</time>
      </trkpt>
      <trkpt lat="44.70776" lon="7.0411">
        <ele>2297</ele>
        <time>2022-07-16T12:18:01Z</time>
      </trkpt>
      <trkpt lat="44.70777" lon="7.04105">
        <ele>2297</ele>
        <time>2022-07-16T12:18:05Z</time>
      </trkpt>
      <trkpt lat="44.70777" lon="7.041">
        <ele>2296</ele>
        <time>2022-07-16T12:18:10Z</time>
      </trkpt>
      <trkpt lat="44.70783" lon="7.04078">
        <ele>2292</ele>
        <time>2022-07-16T12:18:30Z</time>
      </trkpt>
      <trkpt lat="44.70786" lon="7.04075">
        <ele>2291</ele>
        <time>2022-07-16T12:18:33Z</time>
      </trkpt>
      <trkpt lat="44.70787" lon="7.04071">
        <ele>2291</ele>
        <time>2022-07-16T12:18:48Z</time>
      </trkpt>
      <trkpt lat="44.70789" lon="7.04055">
        <ele>2289</ele>
        <time>2022-07-16T12:19:01Z</time>
      </trkpt>
      <trkpt lat="44.70788" lon="7.0405">
        <ele>2288</ele>
        <time>2022-07-16T12:19:06Z</time>
      </trkpt>
      <trkpt lat="44.70786" lon="7.04046">
        <ele>2287</ele>
        <time>2022-07-16T12:19:10Z</time>
      </trkpt>
      <trkpt lat="44.70782" lon="7.04045">
        <ele>2286</ele>
        <time>2022-07-16T12:19:15Z</time>
      </trkpt>
      <trkpt lat="44.70779" lon="7.04043">
        <ele>2286</ele>
        <time>2022-07-16T12:19:20Z</time>
      </trkpt>
      <trkpt lat="44.70775" lon="7.04043">
        <ele>2285</ele>
        <time>2022-07-16T12:19:25Z</time>
      </trkpt>
      <trkpt lat="44.70772" lon="7.04041">
        <ele>2285</ele>
        <time>2022-07-16T12:19:29Z</time>
      </trkpt>
      <trkpt lat="44.70763" lon="7.0403">
        <ele>2283</ele>
        <time>2022-07-16T12:19:41Z</time>
      </trkpt>
      <trkpt lat="44.70761" lon="7.04025">
        <ele>2281</ele>
        <time>2022-07-16T12:19:46Z</time>
      </trkpt>
      <trkpt lat="44.7076" lon="7.0402">
        <ele>2281</ele>
        <time>2022-07-16T12:19:50Z</time>
      </trkpt>
      <trkpt lat="44.70763" lon="7.04005">
        <ele>2279</ele>
        <time>2022-07-16T12:20:04Z</time>
      </trkpt>
      <trkpt lat="44.70767" lon="7.03984">
        <ele>2277</ele>
        <time>2022-07-16T12:20:22Z</time>
      </trkpt>
      <trkpt lat="44.70769" lon="7.03979">
        <ele>2276</ele>
        <time>2022-07-16T12:20:26Z</time>
      </trkpt>
      <trkpt lat="44.70771" lon="7.03976">
        <ele>2275</ele>
        <time>2022-07-16T12:20:30Z</time>
      </trkpt>
      <trkpt lat="44.70774" lon="7.03972">
        <ele>2274</ele>
        <time>2022-07-16T12:20:35Z</time>
      </trkpt>
      <trkpt lat="44.70775" lon="7.03967">
        <ele>2273</ele>
        <time>2022-07-16T12:20:39Z</time>
      </trkpt>
      <trkpt lat="44.70775" lon="7.03961">
        <ele>2272</ele>
        <time>2022-07-16T12:20:44Z</time>
      </trkpt>
      <trkpt lat="44.70777" lon="7.03957">
        <ele>2271</ele>
        <time>2022-07-16T12:20:48Z</time>
      </trkpt>
      <trkpt lat="44.70781" lon="7.03954">
        <ele>2270</ele>
        <time>2022-07-16T12:20:53Z</time>
      </trkpt>
      <trkpt lat="44.70784" lon="7.03951">
        <ele>2269</ele>
        <time>2022-07-16T12:20:58Z</time>
      </trkpt>
      <trkpt lat="44.70787" lon="7.03941">
        <ele>2268</ele>
        <time>2022-07-16T12:21:07Z</time>
      </trkpt>
      <trkpt lat="44.70788" lon="7.03936">
        <ele>2267</ele>
        <time>2022-07-16T12:21:12Z</time>
      </trkpt>
      <trkpt lat="44.70789" lon="7.0393">
        <ele>2266</ele>
        <time>2022-07-16T12:21:17Z</time>
      </trkpt>
      <trkpt lat="44.70798" lon="7.03912">
        <ele>2264</ele>
        <time>2022-07-16T12:21:33Z</time>
      </trkpt>
      <trkpt lat="44.708" lon="7.03908">
        <ele>2262</ele>
        <time>2022-07-16T12:21:37Z</time>
      </trkpt>
      <trkpt lat="44.70805" lon="7.03901">
        <ele>2260</ele>
        <time>2022-07-16T12:21:45Z</time>
      </trkpt>
      <trkpt lat="44.70808" lon="7.03898">
        <ele>2259</ele>
        <time>2022-07-16T12:21:49Z</time>
      </trkpt>
      <trkpt lat="44.70811" lon="7.03894">
        <ele>2258</ele>
        <time>2022-07-16T12:21:53Z</time>
      </trkpt>
      <trkpt lat="44.70816" lon="7.03888">
        <ele>2257</ele>
        <time>2022-07-16T12:22:01Z</time>
      </trkpt>
      <trkpt lat="44.70821" lon="7.0388">
        <ele>2256</ele>
        <time>2022-07-16T12:22:09Z</time>
      </trkpt>
      <trkpt lat="44.70824" lon="7.03876">
        <ele>2255</ele>
        <time>2022-07-16T12:22:13Z</time>
      </trkpt>
      <trkpt lat="44.70827" lon="7.03873">
        <ele>2255</ele>
        <time>2022-07-16T12:22:17Z</time>
      </trkpt>
      <trkpt lat="44.70829" lon="7.03869">
        <ele>2255</ele>
        <time>2022-07-16T12:22:21Z</time>
      </trkpt>
      <trkpt lat="44.7083" lon="7.03864">
        <ele>2255</ele>
        <time>2022-07-16T12:22:25Z</time>
      </trkpt>
      <trkpt lat="44.70833" lon="7.03853">
        <ele>2254</ele>
        <time>2022-07-16T12:22:33Z</time>
      </trkpt>
      <trkpt lat="44.70841" lon="7.0384">
        <ele>2252</ele>
        <time>2022-07-16T12:22:45Z</time>
      </trkpt>
      <trkpt lat="44.70842" lon="7.03834">
        <ele>2252</ele>
        <time>2022-07-16T12:22:49Z</time>
      </trkpt>
      <trkpt lat="44.70841" lon="7.03824">
        <ele>2253</ele>
        <time>2022-07-16T12:22:57Z</time>
      </trkpt>
      <trkpt lat="44.7085" lon="7.03795">
        <ele>2252</ele>
        <time>2022-07-16T12:23:21Z</time>
      </trkpt>
      <trkpt lat="44.70851" lon="7.03784">
        <ele>2252</ele>
        <time>2022-07-16T12:23:29Z</time>
      </trkpt>
      <trkpt lat="44.70849" lon="7.03779">
        <ele>2252</ele>
        <time>2022-07-16T12:23:37Z</time>
      </trkpt>
      <trkpt lat="44.70849" lon="7.03774">
        <ele>2252</ele>
        <time>2022-07-16T12:23:41Z</time>
      </trkpt>
      <trkpt lat="44.70851" lon="7.0377">
        <ele>2252</ele>
        <time>2022-07-16T12:23:45Z</time>
      </trkpt>
      <trkpt lat="44.70858" lon="7.03766">
        <ele>2251</ele>
        <time>2022-07-16T12:23:53Z</time>
      </trkpt>
      <trkpt lat="44.70863" lon="7.03759">
        <ele>2249</ele>
        <time>2022-07-16T12:24:01Z</time>
      </trkpt>
      <trkpt lat="44.70866" lon="7.03748">
        <ele>2247</ele>
        <time>2022-07-16T12:24:12Z</time>
      </trkpt>
      <trkpt lat="44.70868" lon="7.03745">
        <ele>2246</ele>
        <time>2022-07-16T12:24:16Z</time>
      </trkpt>
      <trkpt lat="44.7087" lon="7.03741">
        <ele>2245</ele>
        <time>2022-07-16T12:24:20Z</time>
      </trkpt>
      <trkpt lat="44.70872" lon="7.03736">
        <ele>2244</ele>
        <time>2022-07-16T12:24:24Z</time>
      </trkpt>
      <trkpt lat="44.70874" lon="7.03731">
        <ele>2243</ele>
        <time>2022-07-16T12:24:28Z</time>
      </trkpt>
      <trkpt lat="44.70886" lon="7.03708">
        <ele>2238</ele>
        <time>2022-07-16T12:24:53Z</time>
      </trkpt>
      <trkpt lat="44.70888" lon="7.03698">
        <ele>2237</ele>
        <time>2022-07-16T12:25:01Z</time>
      </trkpt>
      <trkpt lat="44.70889" lon="7.03693">
        <ele>2236</ele>
        <time>2022-07-16T12:25:06Z</time>
      </trkpt>
      <trkpt lat="44.70891" lon="7.03679">
        <ele>2236</ele>
        <time>2022-07-16T12:25:18Z</time>
      </trkpt>
      <trkpt lat="44.7089" lon="7.03674">
        <ele>2235</ele>
        <time>2022-07-16T12:25:23Z</time>
      </trkpt>
      <trkpt lat="44.70887" lon="7.03676">
        <ele>2235</ele>
        <time>2022-07-16T12:25:27Z</time>
      </trkpt>
      <trkpt lat="44.70882" lon="7.03685">
        <ele>2233</ele>
        <time>2022-07-16T12:25:36Z</time>
      </trkpt>
      <trkpt lat="44.70879" lon="7.03688">
        <ele>2233</ele>
        <time>2022-07-16T12:25:40Z</time>
      </trkpt>
      <trkpt lat="44.70877" lon="7.03692">
        <ele>2232</ele>
        <time>2022-07-16T12:25:44Z</time>
      </trkpt>
      <trkpt lat="44.70875" lon="7.03697">
        <ele>2231</ele>
        <time>2022-07-16T12:25:48Z</time>
      </trkpt>
      <trkpt lat="44.70871" lon="7.03701">
        <ele>2231</ele>
        <time>2022-07-16T12:25:52Z</time>
      </trkpt>
      <trkpt lat="44.70868" lon="7.03699">
        <ele>2230</ele>
        <time>2022-07-16T12:25:58Z</time>
      </trkpt>
      <trkpt lat="44.70869" lon="7.03694">
        <ele>2230</ele>
        <time>2022-07-16T12:26:02Z</time>
      </trkpt>
      <trkpt lat="44.70869" lon="7.03689">
        <ele>2229</ele>
        <time>2022-07-16T12:26:06Z</time>
      </trkpt>
      <trkpt lat="44.70869" lon="7.03683">
        <ele>2229</ele>
        <time>2022-07-16T12:26:10Z</time>
      </trkpt>
      <trkpt lat="44.70869" lon="7.03678">
        <ele>2227</ele>
        <time>2022-07-16T12:26:14Z</time>
      </trkpt>
      <trkpt lat="44.7087" lon="7.03668">
        <ele>2226</ele>
        <time>2022-07-16T12:26:22Z</time>
      </trkpt>
      <trkpt lat="44.70872" lon="7.03663">
        <ele>2225</ele>
        <time>2022-07-16T12:26:26Z</time>
      </trkpt>
      <trkpt lat="44.70873" lon="7.03658">
        <ele>2224</ele>
        <time>2022-07-16T12:26:30Z</time>
      </trkpt>
      <trkpt lat="44.70872" lon="7.03653">
        <ele>2223</ele>
        <time>2022-07-16T12:26:34Z</time>
      </trkpt>
      <trkpt lat="44.70873" lon="7.03648">
        <ele>2222</ele>
        <time>2022-07-16T12:26:39Z</time>
      </trkpt>
      <trkpt lat="44.70877" lon="7.03644">
        <ele>2222</ele>
        <time>2022-07-16T12:26:44Z</time>
      </trkpt>
      <trkpt lat="44.70875" lon="7.03634">
        <ele>2221</ele>
        <time>2022-07-16T12:26:52Z</time>
      </trkpt>
      <trkpt lat="44.70876" lon="7.03624">
        <ele>2219</ele>
        <time>2022-07-16T12:27:02Z</time>
      </trkpt>
      <trkpt lat="44.70878" lon="7.03613">
        <ele>2216</ele>
        <time>2022-07-16T12:27:11Z</time>
      </trkpt>
      <trkpt lat="44.70882" lon="7.03584">
        <ele>2213</ele>
        <time>2022-07-16T12:27:35Z</time>
      </trkpt>
      <trkpt lat="44.70881" lon="7.03578">
        <ele>2212</ele>
        <time>2022-07-16T12:27:39Z</time>
      </trkpt>
      <trkpt lat="44.70876" lon="7.03544">
        <ele>2209</ele>
        <time>2022-07-16T12:28:03Z</time>
      </trkpt>
      <trkpt lat="44.70874" lon="7.03528">
        <ele>2206</ele>
        <time>2022-07-16T12:28:15Z</time>
      </trkpt>
      <trkpt lat="44.70876" lon="7.03518">
        <ele>2205</ele>
        <time>2022-07-16T12:28:23Z</time>
      </trkpt>
      <trkpt lat="44.70878" lon="7.03513">
        <ele>2204</ele>
        <time>2022-07-16T12:28:27Z</time>
      </trkpt>
      <trkpt lat="44.70885" lon="7.035">
        <ele>2202</ele>
        <time>2022-07-16T12:28:39Z</time>
      </trkpt>
      <trkpt lat="44.70888" lon="7.03496">
        <ele>2201</ele>
        <time>2022-07-16T12:28:43Z</time>
      </trkpt>
      <trkpt lat="44.70891" lon="7.03491">
        <ele>2200</ele>
        <time>2022-07-16T12:28:48Z</time>
      </trkpt>
      <trkpt lat="44.70893" lon="7.03487">
        <ele>2199</ele>
        <time>2022-07-16T12:28:52Z</time>
      </trkpt>
      <trkpt lat="44.70896" lon="7.03482">
        <ele>2199</ele>
        <time>2022-07-16T12:28:57Z</time>
      </trkpt>
      <trkpt lat="44.70902" lon="7.03456">
        <ele>2196</ele>
        <time>2022-07-16T12:29:17Z</time>
      </trkpt>
      <trkpt lat="44.70905" lon="7.03412">
        <ele>2196</ele>
        <time>2022-07-16T12:29:49Z</time>
      </trkpt>
      <trkpt lat="44.70904" lon="7.03397">
        <ele>2196</ele>
        <time>2022-07-16T12:30:01Z</time>
      </trkpt>
      <trkpt lat="44.70904" lon="7.03391">
        <ele>2196</ele>
        <time>2022-07-16T12:30:05Z</time>
      </trkpt>
      <trkpt lat="44.709" lon="7.03349">
        <ele>2193</ele>
        <time>2022-07-16T12:30:37Z</time>
      </trkpt>
      <trkpt lat="44.70899" lon="7.03339">
        <ele>2191</ele>
        <time>2022-07-16T12:30:46Z</time>
      </trkpt>
      <trkpt lat="44.70899" lon="7.03334">
        <ele>2191</ele>
        <time>2022-07-16T12:30:51Z</time>
      </trkpt>
      <trkpt lat="44.70897" lon="7.0333">
        <ele>2190</ele>
        <time>2022-07-16T12:30:56Z</time>
      </trkpt>
      <trkpt lat="44.70896" lon="7.03325">
        <ele>2189</ele>
        <time>2022-07-16T12:31:01Z</time>
      </trkpt>
      <trkpt lat="44.70895" lon="7.0332">
        <ele>2188</ele>
        <time>2022-07-16T12:31:07Z</time>
      </trkpt>
      <trkpt lat="44.70894" lon="7.03315">
        <ele>2186</ele>
        <time>2022-07-16T12:31:14Z</time>
      </trkpt>
      <trkpt lat="44.70893" lon="7.0331">
        <ele>2183</ele>
        <time>2022-07-16T12:31:21Z</time>
      </trkpt>
      <trkpt lat="44.70894" lon="7.03305">
        <ele>2183</ele>
        <time>2022-07-16T12:31:26Z</time>
      </trkpt>
      <trkpt lat="44.70895" lon="7.03301">
        <ele>2182</ele>
        <time>2022-07-16T12:31:31Z</time>
      </trkpt>
      <trkpt lat="44.70896" lon="7.03296">
        <ele>2181</ele>
        <time>2022-07-16T12:31:36Z</time>
      </trkpt>
      <trkpt lat="44.70889" lon="7.03299">
        <ele>2181</ele>
        <time>2022-07-16T12:31:47Z</time>
      </trkpt>
      <trkpt lat="44.70887" lon="7.03294">
        <ele>2179</ele>
        <time>2022-07-16T12:31:54Z</time>
      </trkpt>
      <trkpt lat="44.70888" lon="7.0329">
        <ele>2179</ele>
        <time>2022-07-16T12:31:58Z</time>
      </trkpt>
      <trkpt lat="44.7089" lon="7.03285">
        <ele>2178</ele>
        <time>2022-07-16T12:32:03Z</time>
      </trkpt>
      <trkpt lat="44.70895" lon="7.03279">
        <ele>2178</ele>
        <time>2022-07-16T12:33:12Z</time>
      </trkpt>
      <trkpt lat="44.70897" lon="7.03275">
        <ele>2178</ele>
        <time>2022-07-16T12:33:16Z</time>
      </trkpt>
      <trkpt lat="44.70901" lon="7.03261">
        <ele>2176</ele>
        <time>2022-07-16T12:33:29Z</time>
      </trkpt>
      <trkpt lat="44.70908" lon="7.03249">
        <ele>2174</ele>
        <time>2022-07-16T12:33:41Z</time>
      </trkpt>
      <trkpt lat="44.7091" lon="7.03245">
        <ele>2173</ele>
        <time>2022-07-16T12:33:47Z</time>
      </trkpt>
      <trkpt lat="44.70915" lon="7.03236">
        <ele>2172</ele>
        <time>2022-07-16T12:34:03Z</time>
      </trkpt>
      <trkpt lat="44.70913" lon="7.03231">
        <ele>2171</ele>
        <time>2022-07-16T12:34:08Z</time>
      </trkpt>
      <trkpt lat="44.70909" lon="7.0323">
        <ele>2169</ele>
        <time>2022-07-16T12:34:12Z</time>
      </trkpt>
      <trkpt lat="44.70905" lon="7.03232">
        <ele>2168</ele>
        <time>2022-07-16T12:34:16Z</time>
      </trkpt>
      <trkpt lat="44.70901" lon="7.03232">
        <ele>2168</ele>
        <time>2022-07-16T12:34:20Z</time>
      </trkpt>
      <trkpt lat="44.70894" lon="7.03233">
        <ele>2166</ele>
        <time>2022-07-16T12:34:29Z</time>
      </trkpt>
      <trkpt lat="44.70894" lon="7.03228">
        <ele>2165</ele>
        <time>2022-07-16T12:34:34Z</time>
      </trkpt>
      <trkpt lat="44.70898" lon="7.03218">
        <ele>2164</ele>
        <time>2022-07-16T12:34:44Z</time>
      </trkpt>
      <trkpt lat="44.70903" lon="7.03203">
        <ele>2161</ele>
        <time>2022-07-16T12:34:59Z</time>
      </trkpt>
      <trkpt lat="44.70905" lon="7.03198">
        <ele>2160</ele>
        <time>2022-07-16T12:35:03Z</time>
      </trkpt>
      <trkpt lat="44.70907" lon="7.03194">
        <ele>2159</ele>
        <time>2022-07-16T12:35:07Z</time>
      </trkpt>
      <trkpt lat="44.7091" lon="7.0319">
        <ele>2159</ele>
        <time>2022-07-16T12:35:12Z</time>
      </trkpt>
      <trkpt lat="44.70917" lon="7.03178">
        <ele>2157</ele>
        <time>2022-07-16T12:35:27Z</time>
      </trkpt>
      <trkpt lat="44.70919" lon="7.03169">
        <ele>2155</ele>
        <time>2022-07-16T12:35:37Z</time>
      </trkpt>
      <trkpt lat="44.70918" lon="7.03163">
        <ele>2155</ele>
        <time>2022-07-16T12:35:42Z</time>
      </trkpt>
      <trkpt lat="44.70919" lon="7.03158">
        <ele>2153</ele>
        <time>2022-07-16T12:35:47Z</time>
      </trkpt>
      <trkpt lat="44.70918" lon="7.03148">
        <ele>2151</ele>
        <time>2022-07-16T12:35:57Z</time>
      </trkpt>
      <trkpt lat="44.70916" lon="7.03144">
        <ele>2149</ele>
        <time>2022-07-16T12:36:02Z</time>
      </trkpt>
      <trkpt lat="44.70901" lon="7.03144">
        <ele>2149</ele>
        <time>2022-07-16T12:36:25Z</time>
      </trkpt>
      <trkpt lat="44.70897" lon="7.03146">
        <ele>2148</ele>
        <time>2022-07-16T12:36:30Z</time>
      </trkpt>
      <trkpt lat="44.70893" lon="7.03147">
        <ele>2148</ele>
        <time>2022-07-16T12:36:35Z</time>
      </trkpt>
      <trkpt lat="44.7089" lon="7.03148">
        <ele>2145</ele>
        <time>2022-07-16T12:39:21Z</time>
      </trkpt>
      <trkpt lat="44.70887" lon="7.03144">
        <ele>2145</ele>
        <time>2022-07-16T12:39:30Z</time>
      </trkpt>
      <trkpt lat="44.70885" lon="7.03139">
        <ele>2143</ele>
        <time>2022-07-16T12:39:34Z</time>
      </trkpt>
      <trkpt lat="44.70886" lon="7.03134">
        <ele>2142</ele>
        <time>2022-07-16T12:39:38Z</time>
      </trkpt>
      <trkpt lat="44.70886" lon="7.03128">
        <ele>2141</ele>
        <time>2022-07-16T12:39:42Z</time>
      </trkpt>
      <trkpt lat="44.70886" lon="7.03118">
        <ele>2140</ele>
        <time>2022-07-16T12:39:50Z</time>
      </trkpt>
      <trkpt lat="44.70888" lon="7.03108">
        <ele>2139</ele>
        <time>2022-07-16T12:39:58Z</time>
      </trkpt>
      <trkpt lat="44.70887" lon="7.03102">
        <ele>2138</ele>
        <time>2022-07-16T12:40:03Z</time>
      </trkpt>
      <trkpt lat="44.70883" lon="7.03101">
        <ele>2137</ele>
        <time>2022-07-16T12:40:08Z</time>
      </trkpt>
      <trkpt lat="44.70882" lon="7.03096">
        <ele>2135</ele>
        <time>2022-07-16T12:40:13Z</time>
      </trkpt>
      <trkpt lat="44.70883" lon="7.0309">
        <ele>2134</ele>
        <time>2022-07-16T12:40:17Z</time>
      </trkpt>
      <trkpt lat="44.70882" lon="7.03085">
        <ele>2132</ele>
        <time>2022-07-16T12:40:22Z</time>
      </trkpt>
      <trkpt lat="44.70879" lon="7.03081">
        <ele>2130</ele>
        <time>2022-07-16T12:40:26Z</time>
      </trkpt>
      <trkpt lat="44.70878" lon="7.03076">
        <ele>2127</ele>
        <time>2022-07-16T12:40:30Z</time>
      </trkpt>
      <trkpt lat="44.70879" lon="7.0307">
        <ele>2126</ele>
        <time>2022-07-16T12:40:36Z</time>
      </trkpt>
      <trkpt lat="44.70879" lon="7.0306">
        <ele>2124</ele>
        <time>2022-07-16T12:40:49Z</time>
      </trkpt>
      <trkpt lat="44.70878" lon="7.03054">
        <ele>2125</ele>
        <time>2022-07-16T12:40:55Z</time>
      </trkpt>
      <trkpt lat="44.7088" lon="7.03049">
        <ele>2125</ele>
        <time>2022-07-16T12:41:01Z</time>
      </trkpt>
      <trkpt lat="44.70882" lon="7.03039">
        <ele>2122</ele>
        <time>2022-07-16T12:41:13Z</time>
      </trkpt>
      <trkpt lat="44.7088" lon="7.03034">
        <ele>2121</ele>
        <time>2022-07-16T12:41:18Z</time>
      </trkpt>
      <trkpt lat="44.70881" lon="7.03029">
        <ele>2120</ele>
        <time>2022-07-16T12:41:23Z</time>
      </trkpt>
      <trkpt lat="44.70882" lon="7.03018">
        <ele>2118</ele>
        <time>2022-07-16T12:41:33Z</time>
      </trkpt>
      <trkpt lat="44.70884" lon="7.03013">
        <ele>2115</ele>
        <time>2022-07-16T12:41:38Z</time>
      </trkpt>
      <trkpt lat="44.70886" lon="7.03003">
        <ele>2114</ele>
        <time>2022-07-16T12:41:47Z</time>
      </trkpt>
      <trkpt lat="44.70888" lon="7.02988">
        <ele>2111</ele>
        <time>2022-07-16T12:42:00Z</time>
      </trkpt>
      <trkpt lat="44.70892" lon="7.02978">
        <ele>2108</ele>
        <time>2022-07-16T12:42:09Z</time>
      </trkpt>
      <trkpt lat="44.70894" lon="7.02974">
        <ele>2108</ele>
        <time>2022-07-16T12:42:13Z</time>
      </trkpt>
      <trkpt lat="44.70896" lon="7.0297">
        <ele>2108</ele>
        <time>2022-07-16T12:42:17Z</time>
      </trkpt>
      <trkpt lat="44.70899" lon="7.02959">
        <ele>2106</ele>
        <time>2022-07-16T12:42:25Z</time>
      </trkpt>
      <trkpt lat="44.709" lon="7.02954">
        <ele>2105</ele>
        <time>2022-07-16T12:42:29Z</time>
      </trkpt>
      <trkpt lat="44.70901" lon="7.02949">
        <ele>2103</ele>
        <time>2022-07-16T12:42:33Z</time>
      </trkpt>
      <trkpt lat="44.70902" lon="7.02943">
        <ele>2102</ele>
        <time>2022-07-16T12:42:37Z</time>
      </trkpt>
      <trkpt lat="44.70903" lon="7.02937">
        <ele>2101</ele>
        <time>2022-07-16T12:42:41Z</time>
      </trkpt>
      <trkpt lat="44.70905" lon="7.02933">
        <ele>2102</ele>
        <time>2022-07-16T12:42:45Z</time>
      </trkpt>
      <trkpt lat="44.70905" lon="7.02928">
        <ele>2101</ele>
        <time>2022-07-16T12:42:50Z</time>
      </trkpt>
      <trkpt lat="44.7091" lon="7.02914">
        <ele>2101</ele>
        <time>2022-07-16T12:43:05Z</time>
      </trkpt>
      <trkpt lat="44.70909" lon="7.02909">
        <ele>2101</ele>
        <time>2022-07-16T12:43:10Z</time>
      </trkpt>
      <trkpt lat="44.70908" lon="7.02904">
        <ele>2100</ele>
        <time>2022-07-16T12:43:17Z</time>
      </trkpt>
      <trkpt lat="44.70909" lon="7.02899">
        <ele>2100</ele>
        <time>2022-07-16T12:43:22Z</time>
      </trkpt>
      <trkpt lat="44.70909" lon="7.02894">
        <ele>2097</ele>
        <time>2022-07-16T12:43:28Z</time>
      </trkpt>
      <trkpt lat="44.70912" lon="7.02892">
        <ele>2096</ele>
        <time>2022-07-16T12:43:32Z</time>
      </trkpt>
      <trkpt lat="44.70909" lon="7.02893">
        <ele>2095</ele>
        <time>2022-07-16T12:43:44Z</time>
      </trkpt>
      <trkpt lat="44.70907" lon="7.02891">
        <ele>2091</ele>
        <time>2022-07-16T12:43:57Z</time>
      </trkpt>
      <trkpt lat="44.7091" lon="7.02887">
        <ele>2091</ele>
        <time>2022-07-16T12:44:02Z</time>
      </trkpt>
      <trkpt lat="44.70912" lon="7.02883">
        <ele>2088</ele>
        <time>2022-07-16T12:44:07Z</time>
      </trkpt>
      <trkpt lat="44.70913" lon="7.02878">
        <ele>2087</ele>
        <time>2022-07-16T12:44:11Z</time>
      </trkpt>
      <trkpt lat="44.70913" lon="7.02872">
        <ele>2087</ele>
        <time>2022-07-16T12:44:13Z</time>
      </trkpt>
      <trkpt lat="44.70908" lon="7.02873">
        <ele>2087</ele>
        <time>2022-07-16T12:44:15Z</time>
      </trkpt>
      <trkpt lat="44.70905" lon="7.02875">
        <ele>2085</ele>
        <time>2022-07-16T12:44:18Z</time>
      </trkpt>
      <trkpt lat="44.70906" lon="7.02869">
        <ele>2086</ele>
        <time>2022-07-16T12:44:23Z</time>
      </trkpt>
      <trkpt lat="44.7091" lon="7.02868">
        <ele>2085</ele>
        <time>2022-07-16T12:44:28Z</time>
      </trkpt>
      <trkpt lat="44.70914" lon="7.02865">
        <ele>2086</ele>
        <time>2022-07-16T12:44:33Z</time>
      </trkpt>
      <trkpt lat="44.70917" lon="7.02862">
        <ele>2088</ele>
        <time>2022-07-16T12:44:38Z</time>
      </trkpt>
      <trkpt lat="44.7092" lon="7.02859">
        <ele>2090</ele>
        <time>2022-07-16T12:44:44Z</time>
      </trkpt>
      <trkpt lat="44.7092" lon="7.02854">
        <ele>2089</ele>
        <time>2022-07-16T12:44:49Z</time>
      </trkpt>
      <trkpt lat="44.70917" lon="7.02856">
        <ele>2087</ele>
        <time>2022-07-16T12:44:53Z</time>
      </trkpt>
      <trkpt lat="44.70914" lon="7.02853">
        <ele>2083</ele>
        <time>2022-07-16T12:44:57Z</time>
      </trkpt>
      <trkpt lat="44.7092" lon="7.02846">
        <ele>2078</ele>
        <time>2022-07-16T12:45:06Z</time>
      </trkpt>
      <trkpt lat="44.70921" lon="7.02841">
        <ele>2078</ele>
        <time>2022-07-16T12:45:11Z</time>
      </trkpt>
      <trkpt lat="44.70923" lon="7.02837">
        <ele>2076</ele>
        <time>2022-07-16T12:45:15Z</time>
      </trkpt>
      <trkpt lat="44.7093" lon="7.02818">
        <ele>2067</ele>
        <time>2022-07-16T12:45:32Z</time>
      </trkpt>
      <trkpt lat="44.70938" lon="7.02805">
        <ele>2064</ele>
        <time>2022-07-16T12:45:43Z</time>
      </trkpt>
      <trkpt lat="44.70941" lon="7.02802">
        <ele>2065</ele>
        <time>2022-07-16T12:45:47Z</time>
      </trkpt>
      <trkpt lat="44.70945" lon="7.02803">
        <ele>2066</ele>
        <time>2022-07-16T12:45:51Z</time>
      </trkpt>
      <trkpt lat="44.70957" lon="7.02789">
        <ele>2066</ele>
        <time>2022-07-16T12:46:07Z</time>
      </trkpt>
      <trkpt lat="44.7096" lon="7.02786">
        <ele>2065</ele>
        <time>2022-07-16T12:46:11Z</time>
      </trkpt>
      <trkpt lat="44.70962" lon="7.02783">
        <ele>2065</ele>
        <time>2022-07-16T12:46:15Z</time>
      </trkpt>
      <trkpt lat="44.70965" lon="7.02778">
        <ele>2063</ele>
        <time>2022-07-16T12:46:19Z</time>
      </trkpt>
      <trkpt lat="44.70967" lon="7.02773">
        <ele>2063</ele>
        <time>2022-07-16T12:46:23Z</time>
      </trkpt>
      <trkpt lat="44.7097" lon="7.02763">
        <ele>2062</ele>
        <time>2022-07-16T12:46:31Z</time>
      </trkpt>
      <trkpt lat="44.70972" lon="7.02758">
        <ele>2061</ele>
        <time>2022-07-16T12:46:35Z</time>
      </trkpt>
      <trkpt lat="44.70975" lon="7.02753">
        <ele>2061</ele>
        <time>2022-07-16T12:46:39Z</time>
      </trkpt>
      <trkpt lat="44.70979" lon="7.02742">
        <ele>2056</ele>
        <time>2022-07-16T12:46:47Z</time>
      </trkpt>
      <trkpt lat="44.70985" lon="7.02734">
        <ele>2056</ele>
        <time>2022-07-16T12:46:55Z</time>
      </trkpt>
      <trkpt lat="44.70989" lon="7.02732">
        <ele>2056</ele>
        <time>2022-07-16T12:46:59Z</time>
      </trkpt>
      <trkpt lat="44.70998" lon="7.02721">
        <ele>2055</ele>
        <time>2022-07-16T12:47:10Z</time>
      </trkpt>
      <trkpt lat="44.71" lon="7.02715">
        <ele>2054</ele>
        <time>2022-07-16T12:47:14Z</time>
      </trkpt>
      <trkpt lat="44.71002" lon="7.02712">
        <ele>2054</ele>
        <time>2022-07-16T12:47:17Z</time>
      </trkpt>
      <trkpt lat="44.71006" lon="7.0271">
        <ele>2055</ele>
        <time>2022-07-16T12:47:21Z</time>
      </trkpt>
      <trkpt lat="44.71012" lon="7.02702">
        <ele>2059</ele>
        <time>2022-07-16T12:47:28Z</time>
      </trkpt>
      <trkpt lat="44.71015" lon="7.02698">
        <ele>2060</ele>
        <time>2022-07-16T12:47:32Z</time>
      </trkpt>
      <trkpt lat="44.71017" lon="7.02694">
        <ele>2060</ele>
        <time>2022-07-16T12:47:36Z</time>
      </trkpt>
      <trkpt lat="44.71018" lon="7.0269">
        <ele>2060</ele>
        <time>2022-07-16T12:47:40Z</time>
      </trkpt>
      <trkpt lat="44.7102" lon="7.02685">
        <ele>2060</ele>
        <time>2022-07-16T12:47:44Z</time>
      </trkpt>
      <trkpt lat="44.71023" lon="7.02679">
        <ele>2061</ele>
        <time>2022-07-16T12:47:48Z</time>
      </trkpt>
      <trkpt lat="44.71026" lon="7.02677">
        <ele>2062</ele>
        <time>2022-07-16T12:47:51Z</time>
      </trkpt>
      <trkpt lat="44.71029" lon="7.02673">
        <ele>2062</ele>
        <time>2022-07-16T12:47:55Z</time>
      </trkpt>
      <trkpt lat="44.71032" lon="7.02669">
        <ele>2064</ele>
        <time>2022-07-16T12:47:59Z</time>
      </trkpt>
      <trkpt lat="44.71032" lon="7.02665">
        <ele>2064</ele>
        <time>2022-07-16T12:48:02Z</time>
      </trkpt>
      <trkpt lat="44.71036" lon="7.02654">
        <ele>2063</ele>
        <time>2022-07-16T12:48:08Z</time>
      </trkpt>
      <trkpt lat="44.71039" lon="7.0265">
        <ele>2063</ele>
        <time>2022-07-16T12:48:11Z</time>
      </trkpt>
      <trkpt lat="44.71041" lon="7.02645">
        <ele>2061</ele>
        <time>2022-07-16T12:48:15Z</time>
      </trkpt>
      <trkpt lat="44.71042" lon="7.02641">
        <ele>2060</ele>
        <time>2022-07-16T12:48:19Z</time>
      </trkpt>
      <trkpt lat="44.71048" lon="7.02633">
        <ele>2057</ele>
        <time>2022-07-16T12:48:27Z</time>
      </trkpt>
      <trkpt lat="44.71051" lon="7.0263">
        <ele>2056</ele>
        <time>2022-07-16T12:48:31Z</time>
      </trkpt>
      <trkpt lat="44.71054" lon="7.02626">
        <ele>2056</ele>
        <time>2022-07-16T12:48:35Z</time>
      </trkpt>
      <trkpt lat="44.71053" lon="7.02621">
        <ele>2057</ele>
        <time>2022-07-16T12:48:40Z</time>
      </trkpt>
      <trkpt lat="44.71057" lon="7.02618">
        <ele>2058</ele>
        <time>2022-07-16T12:48:43Z</time>
      </trkpt>
      <trkpt lat="44.71067" lon="7.0261">
        <ele>2057</ele>
        <time>2022-07-16T12:48:55Z</time>
      </trkpt>
      <trkpt lat="44.71071" lon="7.02609">
        <ele>2056</ele>
        <time>2022-07-16T12:48:59Z</time>
      </trkpt>
      <trkpt lat="44.71074" lon="7.02607">
        <ele>2055</ele>
        <time>2022-07-16T12:49:03Z</time>
      </trkpt>
      <trkpt lat="44.71077" lon="7.02604">
        <ele>2054</ele>
        <time>2022-07-16T12:49:07Z</time>
      </trkpt>
      <trkpt lat="44.71081" lon="7.02605">
        <ele>2053</ele>
        <time>2022-07-16T12:49:11Z</time>
      </trkpt>
      <trkpt lat="44.71085" lon="7.02603">
        <ele>2052</ele>
        <time>2022-07-16T12:49:15Z</time>
      </trkpt>
      <trkpt lat="44.71089" lon="7.02604">
        <ele>2051</ele>
        <time>2022-07-16T12:49:19Z</time>
      </trkpt>
      <trkpt lat="44.71093" lon="7.02602">
        <ele>2052</ele>
        <time>2022-07-16T12:49:24Z</time>
      </trkpt>
      <trkpt lat="44.71097" lon="7.026">
        <ele>2051</ele>
        <time>2022-07-16T12:49:30Z</time>
      </trkpt>
      <trkpt lat="44.71096" lon="7.02595">
        <ele>2051</ele>
        <time>2022-07-16T12:49:35Z</time>
      </trkpt>
      <trkpt lat="44.71098" lon="7.0259">
        <ele>2050</ele>
        <time>2022-07-16T12:49:39Z</time>
      </trkpt>
      <trkpt lat="44.71106" lon="7.02578">
        <ele>2046</ele>
        <time>2022-07-16T12:50:02Z</time>
      </trkpt>
      <trkpt lat="44.71102" lon="7.02578">
        <ele>2042</ele>
        <time>2022-07-16T12:50:09Z</time>
      </trkpt>
      <trkpt lat="44.71098" lon="7.02579">
        <ele>2041</ele>
        <time>2022-07-16T12:50:14Z</time>
      </trkpt>
      <trkpt lat="44.71095" lon="7.02581">
        <ele>2041</ele>
        <time>2022-07-16T12:50:18Z</time>
      </trkpt>
      <trkpt lat="44.71092" lon="7.02577">
        <ele>2040</ele>
        <time>2022-07-16T12:50:22Z</time>
      </trkpt>
      <trkpt lat="44.71089" lon="7.02575">
        <ele>2039</ele>
        <time>2022-07-16T12:50:26Z</time>
      </trkpt>
      <trkpt lat="44.71081" lon="7.02575">
        <ele>2036</ele>
        <time>2022-07-16T12:50:36Z</time>
      </trkpt>
      <trkpt lat="44.71083" lon="7.02579">
        <ele>2033</ele>
        <time>2022-07-16T12:50:47Z</time>
      </trkpt>
      <trkpt lat="44.71085" lon="7.02574">
        <ele>2034</ele>
        <time>2022-07-16T13:00:50Z</time>
      </trkpt>
      <trkpt lat="44.71089" lon="7.02573">
        <ele>2035</ele>
        <time>2022-07-16T13:00:55Z</time>
      </trkpt>
      <trkpt lat="44.71092" lon="7.02573">
        <ele>2035</ele>
        <time>2022-07-16T13:00:59Z</time>
      </trkpt>
      <trkpt lat="44.71098" lon="7.0258">
        <ele>2038</ele>
        <time>2022-07-16T13:01:11Z</time>
      </trkpt>
      <trkpt lat="44.71102" lon="7.02581">
        <ele>2038</ele>
        <time>2022-07-16T13:01:17Z</time>
      </trkpt>
      <trkpt lat="44.71105" lon="7.0258">
        <ele>2039</ele>
        <time>2022-07-16T13:01:23Z</time>
      </trkpt>
      <trkpt lat="44.71112" lon="7.02574">
        <ele>2037</ele>
        <time>2022-07-16T13:01:33Z</time>
      </trkpt>
      <trkpt lat="44.71116" lon="7.02573">
        <ele>2037</ele>
        <time>2022-07-16T13:01:37Z</time>
      </trkpt>
      <trkpt lat="44.71123" lon="7.02568">
        <ele>2037</ele>
        <time>2022-07-16T13:01:45Z</time>
      </trkpt>
      <trkpt lat="44.71125" lon="7.02564">
        <ele>2036</ele>
        <time>2022-07-16T13:01:49Z</time>
      </trkpt>
      <trkpt lat="44.71127" lon="7.02559">
        <ele>2037</ele>
        <time>2022-07-16T13:02:00Z</time>
      </trkpt>
      <trkpt lat="44.71133" lon="7.02552">
        <ele>2037</ele>
        <time>2022-07-16T13:02:09Z</time>
      </trkpt>
      <trkpt lat="44.71135" lon="7.02548">
        <ele>2036</ele>
        <time>2022-07-16T13:02:13Z</time>
      </trkpt>
      <trkpt lat="44.71145" lon="7.02542">
        <ele>2034</ele>
        <time>2022-07-16T13:02:25Z</time>
      </trkpt>
      <trkpt lat="44.71154" lon="7.0253">
        <ele>2030</ele>
        <time>2022-07-16T13:02:37Z</time>
      </trkpt>
      <trkpt lat="44.71161" lon="7.02523">
        <ele>2028</ele>
        <time>2022-07-16T13:02:45Z</time>
      </trkpt>
      <trkpt lat="44.71167" lon="7.02515">
        <ele>2027</ele>
        <time>2022-07-16T13:02:53Z</time>
      </trkpt>
      <trkpt lat="44.7117" lon="7.02512">
        <ele>2027</ele>
        <time>2022-07-16T13:02:57Z</time>
      </trkpt>
      <trkpt lat="44.71171" lon="7.02506">
        <ele>2027</ele>
        <time>2022-07-16T13:03:01Z</time>
      </trkpt>
      <trkpt lat="44.71174" lon="7.02504">
        <ele>2027</ele>
        <time>2022-07-16T13:03:05Z</time>
      </trkpt>
      <trkpt lat="44.71181" lon="7.02491">
        <ele>2027</ele>
        <time>2022-07-16T13:03:17Z</time>
      </trkpt>
      <trkpt lat="44.71182" lon="7.02485">
        <ele>2027</ele>
        <time>2022-07-16T13:03:21Z</time>
      </trkpt>
      <trkpt lat="44.71187" lon="7.02469">
        <ele>2027</ele>
        <time>2022-07-16T13:03:33Z</time>
      </trkpt>
      <trkpt lat="44.71189" lon="7.02459">
        <ele>2026</ele>
        <time>2022-07-16T13:03:41Z</time>
      </trkpt>
      <trkpt lat="44.71191" lon="7.02455">
        <ele>2026</ele>
        <time>2022-07-16T13:03:45Z</time>
      </trkpt>
      <trkpt lat="44.71193" lon="7.0245">
        <ele>2026</ele>
        <time>2022-07-16T13:03:50Z</time>
      </trkpt>
      <trkpt lat="44.71205" lon="7.02408">
        <ele>2025</ele>
        <time>2022-07-16T13:04:20Z</time>
      </trkpt>
      <trkpt lat="44.71223" lon="7.02368">
        <ele>2023</ele>
        <time>2022-07-16T13:04:51Z</time>
      </trkpt>
      <trkpt lat="44.71243" lon="7.02329">
        <ele>2022</ele>
        <time>2022-07-16T13:05:23Z</time>
      </trkpt>
      <trkpt lat="44.71246" lon="7.02324">
        <ele>2023</ele>
        <time>2022-07-16T13:05:27Z</time>
      </trkpt>
      <trkpt lat="44.71264" lon="7.02285">
        <ele>2021</ele>
        <time>2022-07-16T13:05:58Z</time>
      </trkpt>
      <trkpt lat="44.71281" lon="7.02244">
        <ele>2021</ele>
        <time>2022-07-16T13:06:29Z</time>
      </trkpt>
      <trkpt lat="44.71284" lon="7.02234">
        <ele>2021</ele>
        <time>2022-07-16T13:06:36Z</time>
      </trkpt>
      <trkpt lat="44.71289" lon="7.02225">
        <ele>2021</ele>
        <time>2022-07-16T13:06:44Z</time>
      </trkpt>
      <trkpt lat="44.71295" lon="7.02216">
        <ele>2022</ele>
        <time>2022-07-16T13:06:52Z</time>
      </trkpt>
      <trkpt lat="44.71307" lon="7.02208">
        <ele>2022</ele>
        <time>2022-07-16T13:07:04Z</time>
      </trkpt>
      <trkpt lat="44.71329" lon="7.02204">
        <ele>2022</ele>
        <time>2022-07-16T13:07:24Z</time>
      </trkpt>
      <trkpt lat="44.71346" lon="7.02205">
        <ele>2022</ele>
        <time>2022-07-16T13:07:39Z</time>
      </trkpt>
      <trkpt lat="44.71379" lon="7.02197">
        <ele>2021</ele>
        <time>2022-07-16T13:08:10Z</time>
      </trkpt>
      <trkpt lat="44.71392" lon="7.02192">
        <ele>2020</ele>
        <time>2022-07-16T13:08:22Z</time>
      </trkpt>
      <trkpt lat="44.71396" lon="7.02191">
        <ele>2019</ele>
        <time>2022-07-16T13:08:26Z</time>
      </trkpt>
      <trkpt lat="44.7142" lon="7.02181">
        <ele>2016</ele>
        <time>2022-07-16T13:08:49Z</time>
      </trkpt>
      <trkpt lat="44.71451" lon="7.02157">
        <ele>2015</ele>
        <time>2022-07-16T13:09:20Z</time>
      </trkpt>
      <trkpt lat="44.71454" lon="7.02154">
        <ele>2015</ele>
        <time>2022-07-16T13:09:23Z</time>
      </trkpt>
      <trkpt lat="44.71469" lon="7.02135">
        <ele>2014</ele>
        <time>2022-07-16T13:09:41Z</time>
      </trkpt>
      <trkpt lat="44.71473" lon="7.02131">
        <ele>2014</ele>
        <time>2022-07-16T13:09:45Z</time>
      </trkpt>
      <trkpt lat="44.71491" lon="7.02104">
        <ele>2014</ele>
        <time>2022-07-16T13:10:08Z</time>
      </trkpt>
      <trkpt lat="44.71501" lon="7.02095">
        <ele>2013</ele>
        <time>2022-07-16T13:10:19Z</time>
      </trkpt>
      <trkpt lat="44.71534" lon="7.02078">
        <ele>2015</ele>
        <time>2022-07-16T13:10:52Z</time>
      </trkpt>
      <trkpt lat="44.71563" lon="7.0206">
        <ele>2016</ele>
        <time>2022-07-16T13:11:20Z</time>
      </trkpt>
      <trkpt lat="44.71567" lon="7.02057">
        <ele>2016</ele>
        <time>2022-07-16T13:11:24Z</time>
      </trkpt>
      <trkpt lat="44.71573" lon="7.02051">
        <ele>2016</ele>
        <time>2022-07-16T13:11:31Z</time>
      </trkpt>
      <trkpt lat="44.71579" lon="7.02044">
        <ele>2016</ele>
        <time>2022-07-16T13:11:39Z</time>
      </trkpt>
      <trkpt lat="44.71582" lon="7.0204">
        <ele>2015</ele>
        <time>2022-07-16T13:11:43Z</time>
      </trkpt>
      <trkpt lat="44.71586" lon="7.02031">
        <ele>2015</ele>
        <time>2022-07-16T13:11:50Z</time>
      </trkpt>
      <trkpt lat="44.716" lon="7.01988">
        <ele>2014</ele>
        <time>2022-07-16T13:12:21Z</time>
      </trkpt>
      <trkpt lat="44.71602" lon="7.01983">
        <ele>2013</ele>
        <time>2022-07-16T13:12:25Z</time>
      </trkpt>
      <trkpt lat="44.71611" lon="7.01975">
        <ele>2013</ele>
        <time>2022-07-16T13:12:34Z</time>
      </trkpt>
      <trkpt lat="44.71633" lon="7.01941">
        <ele>2016</ele>
        <time>2022-07-16T13:13:05Z</time>
      </trkpt>
      <trkpt lat="44.71652" lon="7.01904">
        <ele>2014</ele>
        <time>2022-07-16T13:13:35Z</time>
      </trkpt>
      <trkpt lat="44.71659" lon="7.0189">
        <ele>2014</ele>
        <time>2022-07-16T13:13:46Z</time>
      </trkpt>
      <trkpt lat="44.71663" lon="7.01881">
        <ele>2013</ele>
        <time>2022-07-16T13:13:53Z</time>
      </trkpt>
      <trkpt lat="44.71664" lon="7.01875">
        <ele>2013</ele>
        <time>2022-07-16T13:13:57Z</time>
      </trkpt>
      <trkpt lat="44.71677" lon="7.01848">
        <ele>2013</ele>
        <time>2022-07-16T13:14:19Z</time>
      </trkpt>
      <trkpt lat="44.7168" lon="7.01838">
        <ele>2013</ele>
        <time>2022-07-16T13:14:27Z</time>
      </trkpt>
      <trkpt lat="44.71681" lon="7.01832">
        <ele>2013</ele>
        <time>2022-07-16T13:14:31Z</time>
      </trkpt>
      <trkpt lat="44.71699" lon="7.01788">
        <ele>2014</ele>
        <time>2022-07-16T13:15:03Z</time>
      </trkpt>
      <trkpt lat="44.71711" lon="7.01768">
        <ele>2012</ele>
        <time>2022-07-16T13:15:22Z</time>
      </trkpt>
      <trkpt lat="44.71714" lon="7.01765">
        <ele>2012</ele>
        <time>2022-07-16T13:15:26Z</time>
      </trkpt>
      <trkpt lat="44.71721" lon="7.01759">
        <ele>2011</ele>
        <time>2022-07-16T13:15:34Z</time>
      </trkpt>
      <trkpt lat="44.71727" lon="7.0175">
        <ele>2011</ele>
        <time>2022-07-16T13:15:42Z</time>
      </trkpt>
      <trkpt lat="44.71751" lon="7.0172">
        <ele>2011</ele>
        <time>2022-07-16T13:16:12Z</time>
      </trkpt>
      <trkpt lat="44.7178" lon="7.01697">
        <ele>2009</ele>
        <time>2022-07-16T13:16:43Z</time>
      </trkpt>
      <trkpt lat="44.71791" lon="7.01686">
        <ele>2008</ele>
        <time>2022-07-16T13:16:55Z</time>
      </trkpt>
      <trkpt lat="44.71812" lon="7.01649">
        <ele>2005</ele>
        <time>2022-07-16T13:17:27Z</time>
      </trkpt>
      <trkpt lat="44.71815" lon="7.01644">
        <ele>2005</ele>
        <time>2022-07-16T13:17:31Z</time>
      </trkpt>
      <trkpt lat="44.71841" lon="7.0161">
        <ele>2000</ele>
        <time>2022-07-16T13:18:04Z</time>
      </trkpt>
      <trkpt lat="44.71868" lon="7.01586">
        <ele>1998</ele>
        <time>2022-07-16T13:18:34Z</time>
      </trkpt>
      <trkpt lat="44.71888" lon="7.01568">
        <ele>1996</ele>
        <time>2022-07-16T13:18:57Z</time>
      </trkpt>
      <trkpt lat="44.71907" lon="7.01536">
        <ele>1992</ele>
        <time>2022-07-16T13:19:25Z</time>
      </trkpt>
      <trkpt lat="44.71917" lon="7.01517">
        <ele>1990</ele>
        <time>2022-07-16T13:19:41Z</time>
      </trkpt>
      <trkpt lat="44.71926" lon="7.01505">
        <ele>1990</ele>
        <time>2022-07-16T13:19:53Z</time>
      </trkpt>
      <trkpt lat="44.71928" lon="7.015">
        <ele>1989</ele>
        <time>2022-07-16T13:19:57Z</time>
      </trkpt>
      <trkpt lat="44.71955" lon="7.01468">
        <ele>1988</ele>
        <time>2022-07-16T13:20:27Z</time>
      </trkpt>
      <trkpt lat="44.71962" lon="7.01462">
        <ele>1988</ele>
        <time>2022-07-16T13:20:34Z</time>
      </trkpt>
      <trkpt lat="44.71966" lon="7.0146">
        <ele>1988</ele>
        <time>2022-07-16T13:20:38Z</time>
      </trkpt>
      <trkpt lat="44.71986" lon="7.01451">
        <ele>1989</ele>
        <time>2022-07-16T13:21:10Z</time>
      </trkpt>
      <trkpt lat="44.72017" lon="7.01432">
        <ele>1989</ele>
        <time>2022-07-16T13:21:42Z</time>
      </trkpt>
      <trkpt lat="44.72041" lon="7.01418">
        <ele>1990</ele>
        <time>2022-07-16T13:22:06Z</time>
      </trkpt>
      <trkpt lat="44.72043" lon="7.01415">
        <ele>1991</ele>
        <time>2022-07-16T13:22:09Z</time>
      </trkpt>
      <trkpt lat="44.72071" lon="7.0139">
        <ele>1993</ele>
        <time>2022-07-16T13:22:41Z</time>
      </trkpt>
      <trkpt lat="44.72083" lon="7.01385">
        <ele>1994</ele>
        <time>2022-07-16T13:22:53Z</time>
      </trkpt>
      <trkpt lat="44.721" lon="7.01373">
        <ele>1993</ele>
        <time>2022-07-16T13:23:10Z</time>
      </trkpt>
      <trkpt lat="44.72124" lon="7.01361">
        <ele>1993</ele>
        <time>2022-07-16T13:23:34Z</time>
      </trkpt>
      <trkpt lat="44.72135" lon="7.01347">
        <ele>1992</ele>
        <time>2022-07-16T13:23:46Z</time>
      </trkpt>
      <trkpt lat="44.72154" lon="7.01324">
        <ele>1991</ele>
        <time>2022-07-16T13:24:09Z</time>
      </trkpt>
      <trkpt lat="44.72157" lon="7.01319">
        <ele>1990</ele>
        <time>2022-07-16T13:24:13Z</time>
      </trkpt>
      <trkpt lat="44.72167" lon="7.0131">
        <ele>1989</ele>
        <time>2022-07-16T13:24:25Z</time>
      </trkpt>
      <trkpt lat="44.72179" lon="7.01304">
        <ele>1990</ele>
        <time>2022-07-16T13:24:37Z</time>
      </trkpt>
      <trkpt lat="44.72183" lon="7.01302">
        <ele>1990</ele>
        <time>2022-07-16T13:24:41Z</time>
      </trkpt>
      <trkpt lat="44.72212" lon="7.01291">
        <ele>1989</ele>
        <time>2022-07-16T13:25:08Z</time>
      </trkpt>
      <trkpt lat="44.72238" lon="7.01265">
        <ele>1986</ele>
        <time>2022-07-16T13:25:38Z</time>
      </trkpt>
      <trkpt lat="44.72266" lon="7.01239">
        <ele>1983</ele>
        <time>2022-07-16T13:26:08Z</time>
      </trkpt>
      <trkpt lat="44.72275" lon="7.01228">
        <ele>1981</ele>
        <time>2022-07-16T13:26:20Z</time>
      </trkpt>
      <trkpt lat="44.72283" lon="7.01221">
        <ele>1981</ele>
        <time>2022-07-16T13:26:28Z</time>
      </trkpt>
      <trkpt lat="44.7231" lon="7.01193">
        <ele>1981</ele>
        <time>2022-07-16T13:26:59Z</time>
      </trkpt>
      <trkpt lat="44.72338" lon="7.01171">
        <ele>1980</ele>
        <time>2022-07-16T13:27:28Z</time>
      </trkpt>
      <trkpt lat="44.72344" lon="7.01167">
        <ele>1979</ele>
        <time>2022-07-16T13:27:35Z</time>
      </trkpt>
      <trkpt lat="44.72347" lon="7.01164">
        <ele>1980</ele>
        <time>2022-07-16T13:27:38Z</time>
      </trkpt>
      <trkpt lat="44.72351" lon="7.01161">
        <ele>1980</ele>
        <time>2022-07-16T13:27:42Z</time>
      </trkpt>
      <trkpt lat="44.72357" lon="7.01154">
        <ele>1978</ele>
        <time>2022-07-16T13:27:49Z</time>
      </trkpt>
      <trkpt lat="44.72369" lon="7.01111">
        <ele>1974</ele>
        <time>2022-07-16T13:28:21Z</time>
      </trkpt>
      <trkpt lat="44.72385" lon="7.01067">
        <ele>1974</ele>
        <time>2022-07-16T13:28:52Z</time>
      </trkpt>
      <trkpt lat="44.72387" lon="7.01063">
        <ele>1974</ele>
        <time>2022-07-16T13:28:55Z</time>
      </trkpt>
      <trkpt lat="44.72402" lon="7.01017">
        <ele>1974</ele>
        <time>2022-07-16T13:29:28Z</time>
      </trkpt>
      <trkpt lat="44.72419" lon="7.00975">
        <ele>1974</ele>
        <time>2022-07-16T13:29:59Z</time>
      </trkpt>
      <trkpt lat="44.72429" lon="7.0095">
        <ele>1974</ele>
        <time>2022-07-16T13:30:18Z</time>
      </trkpt>
      <trkpt lat="44.72445" lon="7.00912">
        <ele>1977</ele>
        <time>2022-07-16T13:30:48Z</time>
      </trkpt>
      <trkpt lat="44.72447" lon="7.00907">
        <ele>1977</ele>
        <time>2022-07-16T13:30:52Z</time>
      </trkpt>
      <trkpt lat="44.72455" lon="7.00895">
        <ele>1978</ele>
        <time>2022-07-16T13:31:02Z</time>
      </trkpt>
      <trkpt lat="44.72458" lon="7.00892">
        <ele>1978</ele>
        <time>2022-07-16T13:31:05Z</time>
      </trkpt>
      <trkpt lat="44.72471" lon="7.00875">
        <ele>1976</ele>
        <time>2022-07-16T13:31:20Z</time>
      </trkpt>
      <trkpt lat="44.72475" lon="7.00866">
        <ele>1975</ele>
        <time>2022-07-16T13:31:27Z</time>
      </trkpt>
      <trkpt lat="44.72476" lon="7.00861">
        <ele>1974</ele>
        <time>2022-07-16T13:31:31Z</time>
      </trkpt>
      <trkpt lat="44.72476" lon="7.0085">
        <ele>1972</ele>
        <time>2022-07-16T13:31:39Z</time>
      </trkpt>
      <trkpt lat="44.72478" lon="7.00844">
        <ele>1972</ele>
        <time>2022-07-16T13:31:43Z</time>
      </trkpt>
      <trkpt lat="44.72478" lon="7.00816">
        <ele>1972</ele>
        <time>2022-07-16T13:32:03Z</time>
      </trkpt>
      <trkpt lat="44.72481" lon="7.00795">
        <ele>1972</ele>
        <time>2022-07-16T13:32:18Z</time>
      </trkpt>
      <trkpt lat="44.72484" lon="7.0079">
        <ele>1973</ele>
        <time>2022-07-16T13:32:22Z</time>
      </trkpt>
      <trkpt lat="44.7249" lon="7.00783">
        <ele>1973</ele>
        <time>2022-07-16T13:32:30Z</time>
      </trkpt>
      <trkpt lat="44.72507" lon="7.00779">
        <ele>1973</ele>
        <time>2022-07-16T13:32:45Z</time>
      </trkpt>
      <trkpt lat="44.7251" lon="7.00777">
        <ele>1973</ele>
        <time>2022-07-16T13:32:48Z</time>
      </trkpt>
      <trkpt lat="44.72521" lon="7.00759">
        <ele>1971</ele>
        <time>2022-07-16T13:33:04Z</time>
      </trkpt>
      <trkpt lat="44.72536" lon="7.00732">
        <ele>1971</ele>
        <time>2022-07-16T13:33:28Z</time>
      </trkpt>
      <trkpt lat="44.72539" lon="7.00729">
        <ele>1971</ele>
        <time>2022-07-16T13:33:31Z</time>
      </trkpt>
      <trkpt lat="44.72561" lon="7.00715">
        <ele>1971</ele>
        <time>2022-07-16T13:33:52Z</time>
      </trkpt>
      <trkpt lat="44.72569" lon="7.00713">
        <ele>1971</ele>
        <time>2022-07-16T13:33:59Z</time>
      </trkpt>
      <trkpt lat="44.72578" lon="7.00713">
        <ele>1971</ele>
        <time>2022-07-16T13:34:07Z</time>
      </trkpt>
      <trkpt lat="44.72593" lon="7.00717">
        <ele>1972</ele>
        <time>2022-07-16T13:34:21Z</time>
      </trkpt>
      <trkpt lat="44.72602" lon="7.00716">
        <ele>1972</ele>
        <time>2022-07-16T13:34:29Z</time>
      </trkpt>
      <trkpt lat="44.72605" lon="7.00711">
        <ele>1972</ele>
        <time>2022-07-16T13:34:33Z</time>
      </trkpt>
      <trkpt lat="44.72612" lon="7.00686">
        <ele>1971</ele>
        <time>2022-07-16T13:34:53Z</time>
      </trkpt>
      <trkpt lat="44.72618" lon="7.00667">
        <ele>1970</ele>
        <time>2022-07-16T13:35:09Z</time>
      </trkpt>
      <trkpt lat="44.72623" lon="7.00656">
        <ele>1969</ele>
        <time>2022-07-16T13:35:17Z</time>
      </trkpt>
      <trkpt lat="44.72625" lon="7.00651">
        <ele>1968</ele>
        <time>2022-07-16T13:35:21Z</time>
      </trkpt>
      <trkpt lat="44.72628" lon="7.00646">
        <ele>1967</ele>
        <time>2022-07-16T13:35:25Z</time>
      </trkpt>
      <trkpt lat="44.7263" lon="7.00641">
        <ele>1967</ele>
        <time>2022-07-16T13:35:29Z</time>
      </trkpt>
      <trkpt lat="44.72632" lon="7.00638">
        <ele>1966</ele>
        <time>2022-07-16T13:35:32Z</time>
      </trkpt>
      <trkpt lat="44.72645" lon="7.00625">
        <ele>1963</ele>
        <time>2022-07-16T13:35:47Z</time>
      </trkpt>
      <trkpt lat="44.72653" lon="7.00621">
        <ele>1962</ele>
        <time>2022-07-16T13:35:55Z</time>
      </trkpt>
      <trkpt lat="44.72666" lon="7.00622">
        <ele>1961</ele>
        <time>2022-07-16T13:36:07Z</time>
      </trkpt>
      <trkpt lat="44.7267" lon="7.00623">
        <ele>1960</ele>
        <time>2022-07-16T13:36:11Z</time>
      </trkpt>
      <trkpt lat="44.72674" lon="7.00625">
        <ele>1961</ele>
        <time>2022-07-16T13:36:14Z</time>
      </trkpt>
      <trkpt lat="44.72681" lon="7.0063">
        <ele>1960</ele>
        <time>2022-07-16T13:36:21Z</time>
      </trkpt>
      <trkpt lat="44.72685" lon="7.00632">
        <ele>1960</ele>
        <time>2022-07-16T13:36:25Z</time>
      </trkpt>
      <trkpt lat="44.72693" lon="7.00629">
        <ele>1960</ele>
        <time>2022-07-16T13:36:33Z</time>
      </trkpt>
      <trkpt lat="44.72696" lon="7.00627">
        <ele>1960</ele>
        <time>2022-07-16T13:36:37Z</time>
      </trkpt>
      <trkpt lat="44.7271" lon="7.00616">
        <ele>1961</ele>
        <time>2022-07-16T13:36:53Z</time>
      </trkpt>
      <trkpt lat="44.72713" lon="7.00613">
        <ele>1961</ele>
        <time>2022-07-16T13:36:57Z</time>
      </trkpt>
      <trkpt lat="44.72716" lon="7.0061">
        <ele>1961</ele>
        <time>2022-07-16T13:37:00Z</time>
      </trkpt>
      <trkpt lat="44.72722" lon="7.00603">
        <ele>1960</ele>
        <time>2022-07-16T13:37:08Z</time>
      </trkpt>
      <trkpt lat="44.72734" lon="7.00599">
        <ele>1959</ele>
        <time>2022-07-16T13:37:19Z</time>
      </trkpt>
      <trkpt lat="44.72741" lon="7.00596">
        <ele>1958</ele>
        <time>2022-07-16T13:37:26Z</time>
      </trkpt>
      <trkpt lat="44.72756" lon="7.00575">
        <ele>1957</ele>
        <time>2022-07-16T13:37:46Z</time>
      </trkpt>
      <trkpt lat="44.72762" lon="7.00562">
        <ele>1954</ele>
        <time>2022-07-16T13:37:56Z</time>
      </trkpt>
      <trkpt lat="44.72765" lon="7.00557">
        <ele>1953</ele>
        <time>2022-07-16T13:38:00Z</time>
      </trkpt>
      <trkpt lat="44.72767" lon="7.00552">
        <ele>1953</ele>
        <time>2022-07-16T13:38:04Z</time>
      </trkpt>
      <trkpt lat="44.72779" lon="7.00537">
        <ele>1951</ele>
        <time>2022-07-16T13:38:18Z</time>
      </trkpt>
      <trkpt lat="44.72789" lon="7.00527">
        <ele>1951</ele>
        <time>2022-07-16T13:38:30Z</time>
      </trkpt>
      <trkpt lat="44.7281" lon="7.00497">
        <ele>1949</ele>
        <time>2022-07-16T13:38:58Z</time>
      </trkpt>
      <trkpt lat="44.72813" lon="7.00494">
        <ele>1948</ele>
        <time>2022-07-16T13:39:02Z</time>
      </trkpt>
      <trkpt lat="44.72822" lon="7.00476">
        <ele>1946</ele>
        <time>2022-07-16T13:39:18Z</time>
      </trkpt>
      <trkpt lat="44.72827" lon="7.00466">
        <ele>1945</ele>
        <time>2022-07-16T13:39:26Z</time>
      </trkpt>
      <trkpt lat="44.72835" lon="7.00454">
        <ele>1944</ele>
        <time>2022-07-16T13:39:38Z</time>
      </trkpt>
      <trkpt lat="44.72861" lon="7.00425">
        <ele>1942</ele>
        <time>2022-07-16T13:40:10Z</time>
      </trkpt>
      <trkpt lat="44.72885" lon="7.00395">
        <ele>1938</ele>
        <time>2022-07-16T13:40:41Z</time>
      </trkpt>
      <trkpt lat="44.72908" lon="7.00364">
        <ele>1937</ele>
        <time>2022-07-16T13:41:12Z</time>
      </trkpt>
      <trkpt lat="44.72914" lon="7.00357">
        <ele>1937</ele>
        <time>2022-07-16T13:41:20Z</time>
      </trkpt>
      <trkpt lat="44.72916" lon="7.00352">
        <ele>1936</ele>
        <time>2022-07-16T13:41:24Z</time>
      </trkpt>
      <trkpt lat="44.72916" lon="7.00346">
        <ele>1936</ele>
        <time>2022-07-16T13:41:29Z</time>
      </trkpt>
      <trkpt lat="44.72912" lon="7.00346">
        <ele>1937</ele>
        <time>2022-07-16T13:41:43Z</time>
      </trkpt>
      <trkpt lat="44.72909" lon="7.00344">
        <ele>1936</ele>
        <time>2022-07-16T13:41:47Z</time>
      </trkpt>
      <trkpt lat="44.72909" lon="7.00339">
        <ele>1935</ele>
        <time>2022-07-16T13:41:50Z</time>
      </trkpt>
      <trkpt lat="44.72911" lon="7.00334">
        <ele>1932</ele>
        <time>2022-07-16T13:41:53Z</time>
      </trkpt>
      <trkpt lat="44.72911" lon="7.0033">
        <ele>1931</ele>
        <time>2022-07-16T13:41:56Z</time>
      </trkpt>
      <trkpt lat="44.72906" lon="7.00321">
        <ele>1928</ele>
        <time>2022-07-16T13:42:03Z</time>
      </trkpt>
      <trkpt lat="44.72906" lon="7.00316">
        <ele>1926</ele>
        <time>2022-07-16T13:42:07Z</time>
      </trkpt>
      <trkpt lat="44.72903" lon="7.00311">
        <ele>1925</ele>
        <time>2022-07-16T13:42:11Z</time>
      </trkpt>
      <trkpt lat="44.729" lon="7.00309">
        <ele>1924</ele>
        <time>2022-07-16T13:42:15Z</time>
      </trkpt>
      <trkpt lat="44.729" lon="7.00303">
        <ele>1924</ele>
        <time>2022-07-16T13:42:19Z</time>
      </trkpt>
      <trkpt lat="44.72902" lon="7.00291">
        <ele>1922</ele>
        <time>2022-07-16T13:42:27Z</time>
      </trkpt>
      <trkpt lat="44.7291" lon="7.00272">
        <ele>1917</ele>
        <time>2022-07-16T13:42:40Z</time>
      </trkpt>
      <trkpt lat="44.72912" lon="7.00267">
        <ele>1916</ele>
        <time>2022-07-16T13:42:44Z</time>
      </trkpt>
      <trkpt lat="44.72932" lon="7.0023">
        <ele>1914</ele>
        <time>2022-07-16T13:43:13Z</time>
      </trkpt>
      <trkpt lat="44.72931" lon="7.00225">
        <ele>1912</ele>
        <time>2022-07-16T13:43:16Z</time>
      </trkpt>
      <trkpt lat="44.72927" lon="7.00225">
        <ele>1911</ele>
        <time>2022-07-16T13:43:19Z</time>
      </trkpt>
      <trkpt lat="44.72924" lon="7.00224">
        <ele>1911</ele>
        <time>2022-07-16T13:43:21Z</time>
      </trkpt>
      <trkpt lat="44.72923" lon="7.00217">
        <ele>1911</ele>
        <time>2022-07-16T13:43:23Z</time>
      </trkpt>
      <trkpt lat="44.72926" lon="7.00212">
        <ele>1912</ele>
        <time>2022-07-16T13:43:25Z</time>
      </trkpt>
      <trkpt lat="44.72928" lon="7.00207">
        <ele>1911</ele>
        <time>2022-07-16T13:43:28Z</time>
      </trkpt>
      <trkpt lat="44.72929" lon="7.00203">
        <ele>1908</ele>
        <time>2022-07-16T13:43:31Z</time>
      </trkpt>
      <trkpt lat="44.72932" lon="7.00199">
        <ele>1907</ele>
        <time>2022-07-16T13:43:35Z</time>
      </trkpt>
      <trkpt lat="44.72936" lon="7.00188">
        <ele>1902</ele>
        <time>2022-07-16T13:43:42Z</time>
      </trkpt>
      <trkpt lat="44.72938" lon="7.00183">
        <ele>1901</ele>
        <time>2022-07-16T13:43:45Z</time>
      </trkpt>
      <trkpt lat="44.72945" lon="7.0018">
        <ele>1900</ele>
        <time>2022-07-16T13:43:51Z</time>
      </trkpt>
      <trkpt lat="44.72948" lon="7.00177">
        <ele>1901</ele>
        <time>2022-07-16T13:43:54Z</time>
      </trkpt>
      <trkpt lat="44.72951" lon="7.00173">
        <ele>1902</ele>
        <time>2022-07-16T13:43:58Z</time>
      </trkpt>
      <trkpt lat="44.72962" lon="7.00167">
        <ele>1901</ele>
        <time>2022-07-16T13:44:11Z</time>
      </trkpt>
      <trkpt lat="44.72965" lon="7.00164">
        <ele>1900</ele>
        <time>2022-07-16T13:44:15Z</time>
      </trkpt>
      <trkpt lat="44.72969" lon="7.00165">
        <ele>1899</ele>
        <time>2022-07-16T13:44:20Z</time>
      </trkpt>
      <trkpt lat="44.72977" lon="7.00163">
        <ele>1899</ele>
        <time>2022-07-16T13:44:28Z</time>
      </trkpt>
      <trkpt lat="44.72992" lon="7.00159">
        <ele>1900</ele>
        <time>2022-07-16T13:44:44Z</time>
      </trkpt>
      <trkpt lat="44.72995" lon="7.00157">
        <ele>1899</ele>
        <time>2022-07-16T13:44:47Z</time>
      </trkpt>
      <trkpt lat="44.72996" lon="7.00156">
        <ele>1903</ele>
        <time>2022-07-16T13:44:52Z</time>
      </trkpt>
      <trkpt lat="44.72992" lon="7.00154">
        <ele>1902</ele>
        <time>2022-07-16T13:44:56Z</time>
      </trkpt>
      <trkpt lat="44.72989" lon="7.00149">
        <ele>1902</ele>
        <time>2022-07-16T13:44:59Z</time>
      </trkpt>
      <trkpt lat="44.72985" lon="7.00148">
        <ele>1904</ele>
        <time>2022-07-16T13:45:02Z</time>
      </trkpt>
      <trkpt lat="44.72982" lon="7.00147">
        <ele>1905</ele>
        <time>2022-07-16T13:45:14Z</time>
      </trkpt>
      <trkpt lat="44.72979" lon="7.00144">
        <ele>1901</ele>
        <time>2022-07-16T13:45:20Z</time>
      </trkpt>
      <trkpt lat="44.72978" lon="7.00139">
        <ele>1900</ele>
        <time>2022-07-16T13:45:25Z</time>
      </trkpt>
      <trkpt lat="44.72975" lon="7.00141">
        <ele>1901</ele>
        <time>2022-07-16T13:45:35Z</time>
      </trkpt>
      <trkpt lat="44.72972" lon="7.00137">
        <ele>1901</ele>
        <time>2022-07-16T13:45:41Z</time>
      </trkpt>
      <trkpt lat="44.72976" lon="7.00128">
        <ele>1901</ele>
        <time>2022-07-16T13:45:49Z</time>
      </trkpt>
      <trkpt lat="44.72987" lon="7.00114">
        <ele>1901</ele>
        <time>2022-07-16T13:46:07Z</time>
      </trkpt>
      <trkpt lat="44.72995" lon="7.00109">
        <ele>1900</ele>
        <time>2022-07-16T13:46:16Z</time>
      </trkpt>
      <trkpt lat="44.73006" lon="7.00102">
        <ele>1900</ele>
        <time>2022-07-16T13:46:28Z</time>
      </trkpt>
      <trkpt lat="44.73009" lon="7.00103">
        <ele>1900</ele>
        <time>2022-07-16T13:46:32Z</time>
      </trkpt>
      <trkpt lat="44.73013" lon="7.00104">
        <ele>1901</ele>
        <time>2022-07-16T13:46:37Z</time>
      </trkpt>
      <trkpt lat="44.73024" lon="7.00098">
        <ele>1902</ele>
        <time>2022-07-16T13:46:52Z</time>
      </trkpt>
      <trkpt lat="44.73036" lon="7.00084">
        <ele>1901</ele>
        <time>2022-07-16T13:47:08Z</time>
      </trkpt>
      <trkpt lat="44.73039" lon="7.00073">
        <ele>1900</ele>
        <time>2022-07-16T13:47:16Z</time>
      </trkpt>
      <trkpt lat="44.7304" lon="7.00067">
        <ele>1900</ele>
        <time>2022-07-16T13:47:20Z</time>
      </trkpt>
      <trkpt lat="44.7304" lon="7.00062">
        <ele>1900</ele>
        <time>2022-07-16T13:47:24Z</time>
      </trkpt>
      <trkpt lat="44.73044" lon="7.00042">
        <ele>1899</ele>
        <time>2022-07-16T13:47:38Z</time>
      </trkpt>
      <trkpt lat="44.73046" lon="7.00036">
        <ele>1899</ele>
        <time>2022-07-16T13:47:42Z</time>
      </trkpt>
      <trkpt lat="44.73048" lon="7.00031">
        <ele>1899</ele>
        <time>2022-07-16T13:47:46Z</time>
      </trkpt>
      <trkpt lat="44.73052" lon="7.00029">
        <ele>1898</ele>
        <time>2022-07-16T13:47:49Z</time>
      </trkpt>
      <trkpt lat="44.73057" lon="7.00021">
        <ele>1897</ele>
        <time>2022-07-16T13:47:57Z</time>
      </trkpt>
      <trkpt lat="44.73071" lon="7.00008">
        <ele>1896</ele>
        <time>2022-07-16T13:48:12Z</time>
      </trkpt>
      <trkpt lat="44.73084" lon="6.99994">
        <ele>1896</ele>
        <time>2022-07-16T13:48:27Z</time>
      </trkpt>
      <trkpt lat="44.73096" lon="6.99986">
        <ele>1896</ele>
        <time>2022-07-16T13:48:39Z</time>
      </trkpt>
      <trkpt lat="44.73104" lon="6.99984">
        <ele>1896</ele>
        <time>2022-07-16T13:48:47Z</time>
      </trkpt>
      <trkpt lat="44.73111" lon="6.99978">
        <ele>1896</ele>
        <time>2022-07-16T13:48:55Z</time>
      </trkpt>
      <trkpt lat="44.73113" lon="6.99973">
        <ele>1896</ele>
        <time>2022-07-16T13:48:59Z</time>
      </trkpt>
      <trkpt lat="44.73117" lon="6.9997">
        <ele>1897</ele>
        <time>2022-07-16T13:49:04Z</time>
      </trkpt>
      <trkpt lat="44.73121" lon="6.9997">
        <ele>1897</ele>
        <time>2022-07-16T13:49:08Z</time>
      </trkpt>
      <trkpt lat="44.73129" lon="6.9997">
        <ele>1897</ele>
        <time>2022-07-16T13:49:16Z</time>
      </trkpt>
      <trkpt lat="44.73141" lon="6.99964">
        <ele>1896</ele>
        <time>2022-07-16T13:49:28Z</time>
      </trkpt>
      <trkpt lat="44.73167" lon="6.99936">
        <ele>1897</ele>
        <time>2022-07-16T13:50:00Z</time>
      </trkpt>
      <trkpt lat="44.7317" lon="6.99932">
        <ele>1897</ele>
        <time>2022-07-16T13:50:04Z</time>
      </trkpt>
      <trkpt lat="44.73171" lon="6.99927">
        <ele>1897</ele>
        <time>2022-07-16T13:50:08Z</time>
      </trkpt>
      <trkpt lat="44.73173" lon="6.99923">
        <ele>1897</ele>
        <time>2022-07-16T13:50:13Z</time>
      </trkpt>
      <trkpt lat="44.73176" lon="6.99919">
        <ele>1894</ele>
        <time>2022-07-16T13:50:22Z</time>
      </trkpt>
      <trkpt lat="44.73177" lon="6.99914">
        <ele>1893</ele>
        <time>2022-07-16T13:50:26Z</time>
      </trkpt>
      <trkpt lat="44.73179" lon="6.99909">
        <ele>1892</ele>
        <time>2022-07-16T13:50:29Z</time>
      </trkpt>
      <trkpt lat="44.73181" lon="6.99905">
        <ele>1890</ele>
        <time>2022-07-16T13:50:32Z</time>
      </trkpt>
      <trkpt lat="44.73188" lon="6.99901">
        <ele>1891</ele>
        <time>2022-07-16T13:50:39Z</time>
      </trkpt>
      <trkpt lat="44.73192" lon="6.999">
        <ele>1890</ele>
        <time>2022-07-16T13:50:43Z</time>
      </trkpt>
      <trkpt lat="44.73204" lon="6.99901">
        <ele>1889</ele>
        <time>2022-07-16T13:50:55Z</time>
      </trkpt>
      <trkpt lat="44.73212" lon="6.99906">
        <ele>1890</ele>
        <time>2022-07-16T13:51:03Z</time>
      </trkpt>
      <trkpt lat="44.73216" lon="6.99905">
        <ele>1890</ele>
        <time>2022-07-16T13:51:07Z</time>
      </trkpt>
      <trkpt lat="44.7322" lon="6.99906">
        <ele>1889</ele>
        <time>2022-07-16T13:51:11Z</time>
      </trkpt>
      <trkpt lat="44.73224" lon="6.99906">
        <ele>1888</ele>
        <time>2022-07-16T13:51:14Z</time>
      </trkpt>
      <trkpt lat="44.73227" lon="6.99909">
        <ele>1888</ele>
        <time>2022-07-16T13:51:17Z</time>
      </trkpt>
      <trkpt lat="44.7323" lon="6.99912">
        <ele>1888</ele>
        <time>2022-07-16T13:51:20Z</time>
      </trkpt>
      <trkpt lat="44.73233" lon="6.99916">
        <ele>1888</ele>
        <time>2022-07-16T13:51:23Z</time>
      </trkpt>
      <trkpt lat="44.73249" lon="6.99917">
        <ele>1887</ele>
        <time>2022-07-16T13:51:37Z</time>
      </trkpt>
      <trkpt lat="44.73252" lon="6.99915">
        <ele>1888</ele>
        <time>2022-07-16T13:51:41Z</time>
      </trkpt>
      <trkpt lat="44.73255" lon="6.99911">
        <ele>1890</ele>
        <time>2022-07-16T13:51:44Z</time>
      </trkpt>
      <trkpt lat="44.73258" lon="6.99911">
        <ele>1890</ele>
        <time>2022-07-16T13:51:48Z</time>
      </trkpt>
      <trkpt lat="44.73262" lon="6.99911">
        <ele>1890</ele>
        <time>2022-07-16T13:51:52Z</time>
      </trkpt>
      <trkpt lat="44.73261" lon="6.99906">
        <ele>1890</ele>
        <time>2022-07-16T13:51:55Z</time>
      </trkpt>
      <trkpt lat="44.73259" lon="6.99901">
        <ele>1888</ele>
        <time>2022-07-16T13:51:57Z</time>
      </trkpt>
      <trkpt lat="44.73263" lon="6.99893">
        <ele>1889</ele>
        <time>2022-07-16T13:52:06Z</time>
      </trkpt>
      <trkpt lat="44.7326" lon="6.9989">
        <ele>1888</ele>
        <time>2022-07-16T13:52:12Z</time>
      </trkpt>
      <trkpt lat="44.73255" lon="6.99891">
        <ele>1885</ele>
        <time>2022-07-16T13:52:15Z</time>
      </trkpt>
      <trkpt lat="44.73255" lon="6.99885">
        <ele>1884</ele>
        <time>2022-07-16T13:52:18Z</time>
      </trkpt>
      <trkpt lat="44.73259" lon="6.99884">
        <ele>1885</ele>
        <time>2022-07-16T13:52:21Z</time>
      </trkpt>
      <trkpt lat="44.73263" lon="6.99884">
        <ele>1888</ele>
        <time>2022-07-16T13:52:25Z</time>
      </trkpt>
      <trkpt lat="44.73264" lon="6.99877">
        <ele>1887</ele>
        <time>2022-07-16T13:52:29Z</time>
      </trkpt>
      <trkpt lat="44.73261" lon="6.99876">
        <ele>1886</ele>
        <time>2022-07-16T13:52:32Z</time>
      </trkpt>
      <trkpt lat="44.73254" lon="6.99878">
        <ele>1880</ele>
        <time>2022-07-16T13:52:38Z</time>
      </trkpt>
      <trkpt lat="44.7325" lon="6.99877">
        <ele>1878</ele>
        <time>2022-07-16T13:52:42Z</time>
      </trkpt>
      <trkpt lat="44.73248" lon="6.99872">
        <ele>1879</ele>
        <time>2022-07-16T13:52:47Z</time>
      </trkpt>
      <trkpt lat="44.73244" lon="6.99869">
        <ele>1880</ele>
        <time>2022-07-16T13:52:51Z</time>
      </trkpt>
      <trkpt lat="44.73247" lon="6.99864">
        <ele>1881</ele>
        <time>2022-07-16T13:52:55Z</time>
      </trkpt>
      <trkpt lat="44.73248" lon="6.99854">
        <ele>1874</ele>
        <time>2022-07-16T13:53:07Z</time>
      </trkpt>
      <trkpt lat="44.73253" lon="6.99846">
        <ele>1862</ele>
        <time>2022-07-16T13:53:22Z</time>
      </trkpt>
      <trkpt lat="44.73264" lon="6.99857">
        <ele>1862</ele>
        <time>2022-07-16T13:53:34Z</time>
      </trkpt>
      <trkpt lat="44.73273" lon="6.99859">
        <ele>1862</ele>
        <time>2022-07-16T13:53:45Z</time>
      </trkpt>
      <trkpt lat="44.73283" lon="6.99856">
        <ele>1862</ele>
        <time>2022-07-16T13:53:55Z</time>
      </trkpt>
      <trkpt lat="44.73291" lon="6.99863">
        <ele>1860</ele>
        <time>2022-07-16T13:54:06Z</time>
      </trkpt>
      <trkpt lat="44.73298" lon="6.99874">
        <ele>1860</ele>
        <time>2022-07-16T13:54:20Z</time>
      </trkpt>
      <trkpt lat="44.73298" lon="6.9988">
        <ele>1864</ele>
        <time>2022-07-16T13:54:27Z</time>
      </trkpt>
      <trkpt lat="44.73303" lon="6.9988">
        <ele>1865</ele>
        <time>2022-07-16T13:54:31Z</time>
      </trkpt>
      <trkpt lat="44.7331" lon="6.99885">
        <ele>1866</ele>
        <time>2022-07-16T13:54:39Z</time>
      </trkpt>
      <trkpt lat="44.73312" lon="6.99889">
        <ele>1863</ele>
        <time>2022-07-16T13:54:44Z</time>
      </trkpt>
      <trkpt lat="44.73316" lon="6.9989">
        <ele>1861</ele>
        <time>2022-07-16T13:54:49Z</time>
      </trkpt>
      <trkpt lat="44.7332" lon="6.99886">
        <ele>1858</ele>
        <time>2022-07-16T13:54:53Z</time>
      </trkpt>
      <trkpt lat="44.73325" lon="6.99881">
        <ele>1855</ele>
        <time>2022-07-16T13:55:01Z</time>
      </trkpt>
      <trkpt lat="44.73331" lon="6.99873">
        <ele>1854</ele>
        <time>2022-07-16T13:55:09Z</time>
      </trkpt>
      <trkpt lat="44.73334" lon="6.99852">
        <ele>1852</ele>
        <time>2022-07-16T13:55:28Z</time>
      </trkpt>
      <trkpt lat="44.73337" lon="6.99846">
        <ele>1850</ele>
        <time>2022-07-16T13:55:32Z</time>
      </trkpt>
      <trkpt lat="44.73339" lon="6.99842">
        <ele>1848</ele>
        <time>2022-07-16T13:55:36Z</time>
      </trkpt>
      <trkpt lat="44.73345" lon="6.99834">
        <ele>1847</ele>
        <time>2022-07-16T13:55:44Z</time>
      </trkpt>
      <trkpt lat="44.73347" lon="6.99829">
        <ele>1849</ele>
        <time>2022-07-16T13:55:48Z</time>
      </trkpt>
      <trkpt lat="44.73364" lon="6.99818">
        <ele>1848</ele>
        <time>2022-07-16T13:56:08Z</time>
      </trkpt>
      <trkpt lat="44.73371" lon="6.99813">
        <ele>1848</ele>
        <time>2022-07-16T13:56:16Z</time>
      </trkpt>
      <trkpt lat="44.73374" lon="6.99809">
        <ele>1849</ele>
        <time>2022-07-16T13:56:21Z</time>
      </trkpt>
      <trkpt lat="44.73378" lon="6.99808">
        <ele>1849</ele>
        <time>2022-07-16T13:56:25Z</time>
      </trkpt>
      <trkpt lat="44.73382" lon="6.99806">
        <ele>1850</ele>
        <time>2022-07-16T13:56:29Z</time>
      </trkpt>
      <trkpt lat="44.73386" lon="6.99804">
        <ele>1851</ele>
        <time>2022-07-16T13:56:33Z</time>
      </trkpt>
      <trkpt lat="44.73405" lon="6.99786">
        <ele>1850</ele>
        <time>2022-07-16T13:57:01Z</time>
      </trkpt>
      <trkpt lat="44.73411" lon="6.99778">
        <ele>1849</ele>
        <time>2022-07-16T13:57:10Z</time>
      </trkpt>
      <trkpt lat="44.73417" lon="6.99773">
        <ele>1847</ele>
        <time>2022-07-16T13:57:18Z</time>
      </trkpt>
      <trkpt lat="44.7342" lon="6.99772">
        <ele>1846</ele>
        <time>2022-07-16T13:57:22Z</time>
      </trkpt>
      <trkpt lat="44.73432" lon="6.99776">
        <ele>1837</ele>
        <time>2022-07-16T13:57:39Z</time>
      </trkpt>
      <trkpt lat="44.73436" lon="6.99778">
        <ele>1834</ele>
        <time>2022-07-16T13:57:46Z</time>
      </trkpt>
      <trkpt lat="44.73446" lon="6.99781">
        <ele>1826</ele>
        <time>2022-07-16T13:57:58Z</time>
      </trkpt>
      <trkpt lat="44.7345" lon="6.9978">
        <ele>1825</ele>
        <time>2022-07-16T13:58:02Z</time>
      </trkpt>
      <trkpt lat="44.73454" lon="6.99779">
        <ele>1823</ele>
        <time>2022-07-16T13:58:06Z</time>
      </trkpt>
      <trkpt lat="44.73481" lon="6.9977">
        <ele>1819</ele>
        <time>2022-07-16T13:58:34Z</time>
      </trkpt>
      <trkpt lat="44.73485" lon="6.9977">
        <ele>1819</ele>
        <time>2022-07-16T13:58:38Z</time>
      </trkpt>
      <trkpt lat="44.73489" lon="6.99769">
        <ele>1818</ele>
        <time>2022-07-16T13:58:42Z</time>
      </trkpt>
      <trkpt lat="44.73493" lon="6.99767">
        <ele>1817</ele>
        <time>2022-07-16T13:58:46Z</time>
      </trkpt>
      <trkpt lat="44.735" lon="6.99762">
        <ele>1815</ele>
        <time>2022-07-16T13:58:54Z</time>
      </trkpt>
      <trkpt lat="44.73503" lon="6.99759">
        <ele>1815</ele>
        <time>2022-07-16T13:58:58Z</time>
      </trkpt>
      <trkpt lat="44.73506" lon="6.99758">
        <ele>1815</ele>
        <time>2022-07-16T13:59:02Z</time>
      </trkpt>
      <trkpt lat="44.73509" lon="6.99754">
        <ele>1814</ele>
        <time>2022-07-16T13:59:06Z</time>
      </trkpt>
      <trkpt lat="44.73532" lon="6.99727">
        <ele>1811</ele>
        <time>2022-07-16T13:59:38Z</time>
      </trkpt>
      <trkpt lat="44.73536" lon="6.99724">
        <ele>1811</ele>
        <time>2022-07-16T13:59:42Z</time>
      </trkpt>
      <trkpt lat="44.73538" lon="6.9972">
        <ele>1811</ele>
        <time>2022-07-16T13:59:46Z</time>
      </trkpt>
      <trkpt lat="44.7355" lon="6.99719">
        <ele>1807</ele>
        <time>2022-07-16T14:00:00Z</time>
      </trkpt>
      <trkpt lat="44.73554" lon="6.99718">
        <ele>1805</ele>
        <time>2022-07-16T14:00:05Z</time>
      </trkpt>
      <trkpt lat="44.73557" lon="6.99718">
        <ele>1805</ele>
        <time>2022-07-16T14:00:09Z</time>
      </trkpt>
      <trkpt lat="44.73561" lon="6.99718">
        <ele>1804</ele>
        <time>2022-07-16T14:00:13Z</time>
      </trkpt>
      <trkpt lat="44.73567" lon="6.99723">
        <ele>1803</ele>
        <time>2022-07-16T14:00:22Z</time>
      </trkpt>
      <trkpt lat="44.73571" lon="6.99725">
        <ele>1802</ele>
        <time>2022-07-16T14:00:26Z</time>
      </trkpt>
      <trkpt lat="44.73575" lon="6.99723">
        <ele>1801</ele>
        <time>2022-07-16T14:00:31Z</time>
      </trkpt>
      <trkpt lat="44.73577" lon="6.99719">
        <ele>1800</ele>
        <time>2022-07-16T14:00:35Z</time>
      </trkpt>
      <trkpt lat="44.73585" lon="6.99715">
        <ele>1799</ele>
        <time>2022-07-16T14:00:45Z</time>
      </trkpt>
      <trkpt lat="44.73588" lon="6.99714">
        <ele>1799</ele>
        <time>2022-07-16T14:00:49Z</time>
      </trkpt>
      <trkpt lat="44.7359" lon="6.9971">
        <ele>1799</ele>
        <time>2022-07-16T14:00:54Z</time>
      </trkpt>
      <trkpt lat="44.73594" lon="6.99707">
        <ele>1799</ele>
        <time>2022-07-16T14:00:59Z</time>
      </trkpt>
      <trkpt lat="44.73597" lon="6.99709">
        <ele>1798</ele>
        <time>2022-07-16T14:01:04Z</time>
      </trkpt>
      <trkpt lat="44.736" lon="6.99705">
        <ele>1797</ele>
        <time>2022-07-16T14:01:09Z</time>
      </trkpt>
      <trkpt lat="44.73605" lon="6.99705">
        <ele>1796</ele>
        <time>2022-07-16T14:01:16Z</time>
      </trkpt>
      <trkpt lat="44.73608" lon="6.99701">
        <ele>1797</ele>
        <time>2022-07-16T14:01:20Z</time>
      </trkpt>
      <trkpt lat="44.73615" lon="6.99687">
        <ele>1794</ele>
        <time>2022-07-16T14:01:33Z</time>
      </trkpt>
      <trkpt lat="44.73618" lon="6.99685">
        <ele>1794</ele>
        <time>2022-07-16T14:01:37Z</time>
      </trkpt>
      <trkpt lat="44.73626" lon="6.99688">
        <ele>1793</ele>
        <time>2022-07-16T14:01:46Z</time>
      </trkpt>
      <trkpt lat="44.73629" lon="6.99692">
        <ele>1792</ele>
        <time>2022-07-16T14:01:50Z</time>
      </trkpt>
    </trkseg>
  </trk>
</gpx>